[[{"header":{"parameterUnit":"m.s-1","parameterCategory":1,"la1":30.6,"la2":29.2853,"lo1":-89.7004,"lo2":-87.6739,"dy":0.0162,"dx":0.0183,"nx":112,"ny":82,"refTime":"2023-08-25T12:00:00:Z","depth":0,"parameterNumber":2,"parameterNumberName":"U-component_of_WINDS"},"data":[0.0,0.0,0.0,0.0,0.0,0.0,0.0,0.0,0.0,0.0,0.0,0.0,0.0,0.0,0.0,0.0,0.0,0.0,0.0,0.0,0.0,0.0,0.0,0.0,0.0,0.0,0.0,0.0,0.0,0.0,0.0,0.0,0.0,0.0,0.0,0.0,0.0,0.0,0.0,0.0,0.0,0.0,0.0,0.0,0.0,0.0,0.0,0.0,0.0,0.0,0.0,0.0,0.0,0.0,0.0,0.0,0.0,0.0,0.0,0.0,0.0,0.0,0.0,0.0,0.0,0.0,0.0,0.0,0.0,0.0,0.0,0.0,0.0,0.0,0.0,0.0,0.0,0.0,0.0,0.0,0.0,0.0,0.0,0.0,0.0,0.0,0.0,0.0,0.0,0.0,3.0516,3.0379,3.0218,3.0102,3.0102,2.9972,2.9956,3.0087,0.0,0.0,0.0,0.0,0.0,0.0,0.0,0.0,0.0,0.0,0.0,0.0,0.0,0.0,0.0,0.0,0.0,0.0,0.0,0.0,0.0,0.0,0.0,0.0,0.0,0.0,0.0,0.0,0.0,0.0,0.0,0.0,0.0,0.0,0.0,0.0,0.0,0.0,0.0,0.0,0.0,0.0,0.0,0.0,0.0,0.0,0.0,0.0,0.0,0.0,0.0,0.0,0.0,0.0,0.0,0.0,0.0,0.0,0.0,0.0,0.0,0.0,0.0,0.0,0.0,0.0,0.0,0.0,0.0,0.0,0.0,0.0,0.0,0.0,0.0,0.0,0.0,0.0,0.0,0.0,0.0,0.0,0.0,0.0,0.0,0.0,0.0,0.0,0.0,0.0,0.0,0.0,0.0,0.0,0.0,0.0,0.0,0.0,0.0,0.0,0.0,0.0,0.0,0.0,3.0309,3.024,3.0161,3.0102,3.0102,2.9972,2.9956,3.0087,0.0,0.0,0.0,0.0,0.0,0.0,0.0,0.0,0.0,0.0,0.0,0.0,0.0,0.0,0.0,0.0,0.0,0.0,0.0,0.0,0.0,0.0,0.0,0.0,0.0,0.0,0.0,0.0,0.0,0.0,0.0,0.0,0.0,0.0,0.0,0.0,0.0,0.0,0.0,0.0,0.0,0.0,0.0,0.0,0.0,0.0,0.0,0.0,0.0,0.0,0.0,0.0,0.0,0.0,0.0,0.0,0.0,0.0,0.0,0.0,0.0,0.0,0.0,0.0,0.0,0.0,0.0,0.0,0.0,0.0,0.0,0.0,0.0,0.0,0.0,0.0,0.0,0.0,0.0,0.0,0.0,0.0,0.0,0.0,0.0,0.0,0.0,0.0,0.0,0.0,0.0,0.0,0.0,0.0,0.0,0.0,0.0,0.0,0.0,0.0,0.0,0.0,0.0,3.039,3.0299,3.0199,3.0147,3.0102,3.0102,2.9924,2.9926,3.0087,2.9661,0.0,0.0,0.0,0.0,0.0,0.0,0.0,0.0,0.0,0.0,0.0,0.0,0.0,0.0,0.0,0.0,0.0,0.0,0.0,0.0,0.0,0.0,0.0,0.0,0.0,0.0,0.0,0.0,0.0,0.0,0.0,0.0,0.0,0.0,0.0,0.0,0.0,0.0,0.0,0.0,0.0,0.0,0.0,0.0,0.0,0.0,0.0,0.0,0.0,0.0,0.0,0.0,0.0,0.0,0.0,0.0,0.0,0.0,0.0,0.0,0.0,0.0,0.0,0.0,0.0,0.0,0.0,0.0,0.0,0.0,0.0,0.0,0.0,0.0,0.0,0.0,0.0,0.0,0.0,0.0,0.0,0.0,0.0,0.0,0.0,0.0,0.0,0.0,0.0,0.0,0.0,0.0,0.0,0.0,0.0,0.0,0.0,0.0,0.0,0.0,0.0,0.0,3.0359,3.0305,3.0199,3.0147,3.0102,3.0102,2.9926,2.991,3.0087,2.9988,0.0,0.0,0.0,0.0,0.0,0.0,0.0,0.0,0.0,0.0,0.0,0.0,0.0,0.0,0.0,0.0,0.0,0.0,0.0,0.0,0.0,0.0,0.0,0.0,0.0,0.0,0.0,0.0,0.0,0.0,0.0,0.0,0.0,0.0,0.0,0.0,0.0,0.0,0.0,0.0,0.0,0.0,0.0,0.0,0.0,0.0,0.0,0.0,0.0,0.0,0.0,0.0,0.0,0.0,0.0,0.0,0.0,0.0,0.0,0.0,0.0,0.0,0.0,0.0,0.0,0.0,0.0,0.0,0.0,0.0,0.0,0.0,0.0,0.0,0.0,0.0,0.0,0.0,0.0,0.0,0.0,0.0,0.0,0.0,0.0,0.0,0.0,0.0,0.0,0.0,0.0,0.0,0.0,0.0,0.0,0.0,0.0,0.0,0.0,0.0,0.0,0.0,3.0253,3.0218,3.0204,3.0147,3.0102,3.0102,2.9972,2.9956,3.0087,3.0087,0.0,0.0,0.0,0.0,0.0,0.0,0.0,0.0,0.0,0.0,0.0,0.0,0.0,0.0,0.0,0.0,0.0,0.0,0.0,0.0,0.0,0.0,0.0,0.0,0.0,0.0,0.0,0.0,0.0,0.0,0.0,0.0,0.0,0.0,0.0,0.0,0.0,0.0,0.0,0.0,0.0,0.0,0.0,0.0,0.0,0.0,0.0,0.0,0.0,0.0,0.0,0.0,0.0,0.0,0.0,0.0,0.0,0.0,0.0,0.0,0.0,0.0,0.0,0.0,0.0,0.0,0.0,0.0,0.0,0.0,0.0,0.0,0.0,0.0,0.0,0.0,0.0,0.0,0.0,0.0,0.0,0.0,0.0,0.0,0.0,0.0,0.0,0.0,0.0,0.0,0.0,0.0,0.0,0.0,0.0,0.0,0.0,0.0,0.0,0.0,0.0,0.0,3.024,3.0166,0.0,3.0117,3.0072,2.9972,2.994,2.9956,3.0087,0.0,0.0,0.0,0.0,0.0,0.0,0.0,0.0,0.0,0.0,0.0,0.0,0.0,0.0,0.0,0.0,0.0,0.0,0.0,0.0,0.0,0.0,0.0,0.0,0.0,0.0,0.0,0.0,0.0,0.0,0.0,0.0,0.0,0.0,0.0,0.0,0.0,0.0,0.0,0.0,0.0,0.0,0.0,0.0,0.0,0.0,0.0,0.0,0.0,0.0,0.0,0.0,0.0,0.0,0.0,0.0,0.0,0.0,0.0,0.0,0.0,0.0,0.0,0.0,0.0,0.0,0.0,0.0,0.0,0.0,0.0,0.0,0.0,0.0,0.0,0.0,0.0,0.0,0.0,0.0,0.0,0.0,0.0,0.0,0.0,0.0,0.0,0.0,0.0,0.0,0.0,0.0,0.0,0.0,0.0,0.0,0.0,0.0,0.0,0.0,0.0,0.0,3.0312,3.0253,3.0166,0.0,3.0132,3.0083,3.0003,3.0003,3.0003,3.0038,0.0,0.0,0.0,0.0,0.0,0.0,0.0,0.0,0.0,0.0,0.0,0.0,0.0,0.0,0.0,0.0,0.0,0.0,0.0,0.0,0.0,0.0,0.0,0.0,0.0,0.0,0.0,0.0,0.0,0.0,0.0,0.0,0.0,0.0,0.0,0.0,0.0,0.0,0.0,0.0,0.0,0.0,0.0,0.0,0.0,0.0,0.0,0.0,0.0,0.0,0.0,0.0,0.0,0.0,0.0,0.0,0.0,0.0,0.0,0.0,0.0,0.0,0.0,0.0,0.0,0.0,0.0,0.0,0.0,0.0,0.0,0.0,0.0,0.0,0.0,0.0,0.0,0.0,0.0,0.0,0.0,0.0,0.0,0.0,0.0,0.0,0.0,0.0,0.0,0.0,0.0,0.0,0.0,0.0,0.0,0.0,0.0,0.0,0.0,0.0,0.0,0.0,3.0292,3.0226,3.0204,3.0204,3.0204,3.0204,3.0185,3.0185,3.0113,0.0,0.0,0.0,0.0,0.0,0.0,0.0,0.0,0.0,0.0,0.0,0.0,0.0,0.0,0.0,0.0,0.0,0.0,0.0,0.0,0.0,0.0,0.0,0.0,0.0,0.0,0.0,0.0,0.0,0.0,0.0,0.0,0.0,0.0,0.0,0.0,0.0,0.0,0.0,0.0,0.0,0.0,0.0,0.0,0.0,0.0,0.0,0.0,0.0,0.0,0.0,0.0,0.0,0.0,0.0,0.0,0.0,0.0,0.0,0.0,0.0,0.0,0.0,0.0,0.0,0.0,0.0,0.0,0.0,0.0,0.0,0.0,0.0,0.0,0.0,0.0,0.0,0.0,0.0,0.0,0.0,0.0,0.0,0.0,0.0,0.0,0.0,0.0,0.0,0.0,0.0,0.0,0.0,0.0,0.0,0.0,0.0,0.0,0.0,0.0,0.0,0.0,0.0,3.0292,3.0226,3.019,3.0132,3.0132,3.0019,2.9786,2.9855,2.9823,2.9626,0.0,0.0,0.0,0.0,0.0,0.0,0.0,0.0,0.0,0.0,0.0,0.0,0.0,0.0,0.0,0.0,0.0,0.0,0.0,0.0,0.0,0.0,0.0,0.0,0.0,0.0,0.0,0.0,0.0,0.0,0.0,0.0,0.0,0.0,0.0,0.0,0.0,0.0,0.0,0.0,0.0,0.0,0.0,0.0,0.0,0.0,0.0,0.0,0.0,0.0,0.0,0.0,0.0,0.0,0.0,0.0,0.0,0.0,0.0,0.0,0.0,0.0,0.0,0.0,0.0,0.0,0.0,0.0,0.0,0.0,0.0,0.0,0.0,0.0,0.0,0.0,0.0,0.0,0.0,0.0,0.0,0.0,0.0,0.0,0.0,0.0,0.0,0.0,0.0,0.0,0.0,0.0,0.0,0.0,0.0,0.0,0.0,0.0,0.0,0.0,0.0,0.0,3.0292,3.0226,3.0142,3.0038,3.0022,2.9907,2.9626,2.9681,2.9626,2.9434,0.0,0.0,0.0,0.0,0.0,0.0,0.0,0.0,0.0,0.0,0.0,0.0,0.0,0.0,0.0,0.0,0.0,0.0,0.0,0.0,0.0,0.0,0.0,0.0,0.0,0.0,0.0,0.0,0.0,0.0,0.0,0.0,0.0,0.0,0.0,0.0,0.0,0.0,0.0,0.0,0.0,0.0,0.0,0.0,0.0,0.0,0.0,0.0,0.0,0.0,0.0,0.0,0.0,0.0,0.0,0.0,0.0,0.0,0.0,0.0,0.0,0.0,0.0,0.0,0.0,0.0,0.0,0.0,0.0,0.0,0.0,0.0,0.0,0.0,0.0,0.0,0.0,0.0,0.0,0.0,0.0,0.0,0.0,0.0,0.0,0.0,0.0,0.0,0.0,0.0,0.0,0.0,0.0,0.0,0.0,0.0,0.0,0.0,0.0,0.0,0.0,0.0,3.0496,3.0461,3.0327,3.0116,3.0099,2.9995,2.9814,2.9795,2.9681,2.9384,0.0,0.0,0.0,0.0,0.0,0.0,0.0,0.0,0.0,0.0,0.0,0.0,0.0,0.0,0.0,0.0,0.0,0.0,0.0,0.0,0.0,0.0,0.0,0.0,0.0,0.0,0.0,0.0,0.0,0.0,0.0,0.0,0.0,0.0,0.0,0.0,0.0,0.0,0.0,0.0,0.0,0.0,0.0,0.0,0.0,0.0,0.0,0.0,0.0,0.0,0.0,0.0,0.0,0.0,0.0,0.0,0.0,0.0,0.0,0.0,3.0858,3.0351,0.0,0.0,0.0,0.0,0.0,0.0,0.0,0.0,0.0,0.0,0.0,0.0,0.0,0.0,0.0,0.0,0.0,0.0,0.0,0.0,0.0,0.0,0.0,0.0,0.0,0.0,0.0,0.0,0.0,0.0,0.0,0.0,0.0,0.0,0.0,0.0,0.0,0.0,0.0,0.0,3.1962,3.196,3.1841,3.158,3.1561,3.1481,3.1272,3.125,3.0902,3.0065,3.0005,0.0,0.0,0.0,0.0,0.0,0.0,0.0,0.0,0.0,0.0,0.0,0.0,0.0,0.0,0.0,0.0,0.0,0.0,0.0,0.0,0.0,0.0,0.0,0.0,0.0,0.0,0.0,0.0,0.0,0.0,0.0,0.0,0.0,0.0,0.0,0.0,0.0,0.0,0.0,0.0,0.0,0.0,0.0,0.0,0.0,0.0,0.0,0.0,0.0,0.0,0.0,0.0,0.0,0.0,0.0,0.0,0.0,0.0,0.0,3.2642,3.1984,0.0,0.0,0.0,0.0,0.0,0.0,0.0,0.0,0.0,0.0,0.0,0.0,0.0,0.0,0.0,0.0,0.0,0.0,0.0,0.0,0.0,0.0,0.0,0.0,0.0,0.0,0.0,0.0,0.0,0.0,0.0,0.0,0.0,0.0,0.0,0.0,0.0,0.0,0.0,0.0,3.2276,3.226,3.2126,3.188,3.1859,3.1771,3.1584,3.156,3.1347,3.0797,3.0779,0.0,0.0,0.0,0.0,0.0,0.0,0.0,0.0,0.0,0.0,0.0,0.0,0.0,0.0,0.0,0.0,0.0,0.0,0.0,0.0,0.0,0.0,0.0,0.0,0.0,0.0,0.0,0.0,0.0,0.0,0.0,0.0,0.0,0.0,0.0,0.0,0.0,0.0,0.0,0.0,0.0,0.0,0.0,0.0,0.0,0.0,0.0,0.0,0.0,0.0,0.0,0.0,0.0,3.4947,3.5303,3.5995,3.598,3.5982,3.5919,3.4541,3.3767,3.3492,3.3523,0.0,0.0,0.0,0.0,0.0,0.0,0.0,0.0,0.0,0.0,0.0,0.0,0.0,0.0,0.0,0.0,0.0,0.0,0.0,0.0,0.0,0.0,3.1013,3.1033,3.0917,3.0839,3.1068,0.0,0.0,0.0,0.0,0.0,0.0,0.0,0.0,0.0,0.0,0.0,3.2482,3.2416,3.231,3.2085,3.2061,3.2009,3.1831,3.1806,3.1751,3.1623,3.1604,3.1531,0.0,0.0,0.0,0.0,0.0,0.0,0.0,0.0,0.0,0.0,0.0,0.0,0.0,0.0,0.0,0.0,0.0,0.0,0.0,0.0,0.0,0.0,0.0,0.0,0.0,0.0,0.0,0.0,0.0,0.0,0.0,0.0,3.031,3.0372,0.0,0.0,0.0,0.0,0.0,0.0,0.0,0.0,0.0,0.0,0.0,0.0,0.0,3.4836,3.6214,3.6286,3.6733,3.7586,3.7475,3.7497,3.7589,3.7474,3.7498,3.7584,3.7356,0.0,3.4256,3.4392,0.0,0.0,0.0,0.0,0.0,0.0,0.0,0.0,0.0,0.0,0.0,0.0,0.0,0.0,0.0,0.0,0.0,0.0,0.0,0.0,0.0,0.0,3.2003,3.2618,3.2141,3.1761,3.2524,3.2092,3.1783,3.2532,3.262,0.0,0.0,0.0,0.0,0.0,0.0,0.0,3.3877,3.3915,3.3814,3.3556,3.3529,3.3503,3.3476,3.3476,3.3183,3.2504,3.2449,3.2162,3.1513,3.1457,0.0,0.0,0.0,0.0,0.0,0.0,0.0,0.0,0.0,0.0,0.0,0.0,0.0,0.0,0.0,0.0,0.0,0.0,0.0,0.0,0.0,0.0,0.0,0.0,0.0,0.0,0.0,0.0,0.0,3.0477,3.0858,3.1425,3.1461,3.1652,0.0,0.0,0.0,0.0,0.0,0.0,0.0,0.0,0.0,3.5648,3.6086,3.6658,3.7363,3.7337,3.774,3.8604,3.855,3.8786,3.9248,3.9181,3.9182,3.9256,3.9289,3.8441,3.7011,3.6709,3.6377,3.6066,0.0,0.0,0.0,0.0,3.4019,3.3884,3.2949,3.2617,3.2539,3.2031,0.0,0.0,0.0,0.0,0.0,0.0,0.0,3.3328,3.3233,3.29,3.2694,3.3025,3.2756,3.2663,3.3499,3.3339,3.3038,3.2961,3.2917,3.2985,3.328,0.0,0.0,0.0,0.0,3.3877,3.3956,3.3979,3.3921,3.3815,3.3807,3.3807,3.3807,3.3807,3.3642,3.3311,3.3275,3.3128,3.2805,3.2471,3.2281,0.0,0.0,0.0,0.0,0.0,0.0,0.0,0.0,0.0,0.0,0.0,0.0,0.0,0.0,0.0,0.0,0.0,0.0,0.0,0.0,0.0,0.0,0.0,0.0,0.0,0.0,0.0,0.0,3.1055,3.1322,3.2284,3.2338,3.2649,0.0,0.0,0.0,0.0,0.0,0.0,3.5211,3.6312,3.7028,3.7206,3.7792,3.8191,3.8367,3.8286,3.8594,3.928,3.928,3.9624,4.031,4.031,4.031,4.0328,4.0381,4.0049,3.941,3.8723,3.8357,3.818,3.7568,3.7362,3.7247,3.5968,3.5509,3.5314,3.4043,3.3617,3.3503,3.2865,3.2634,3.277,3.3412,0.0,0.0,0.0,0.0,3.4567,3.4491,3.4282,3.4115,3.4318,3.4171,3.418,3.4903,3.4861,3.4414,3.3628,3.3427,3.3525,3.3881,0.0,0.0,0.0,0.0,3.4043,3.3815,3.3807,3.3807,3.3807,3.3807,3.3807,3.3807,3.3807,3.3807,3.3807,3.3834,3.3834,3.3834,3.3375,3.3136,3.3136,0.0,0.0,0.0,0.0,0.0,0.0,0.0,0.0,0.0,0.0,0.0,0.0,0.0,0.0,0.0,0.0,0.0,0.0,0.0,0.0,0.0,0.0,0.0,0.0,0.0,0.0,0.0,0.0,0.0,3.3113,3.3119,0.0,0.0,0.0,0.0,3.6474,3.7204,3.7627,3.7632,3.7577,3.7885,3.8575,3.8629,3.898,3.9588,3.9716,3.988,4.004,4.004,4.0138,4.031,4.031,4.0328,4.0398,4.0398,4.0408,4.0373,3.9646,3.8839,3.8127,3.82,3.8244,3.8241,3.8205,3.8194,3.8174,3.803,3.7975,3.7975,3.7936,3.7917,3.7936,3.7975,3.8014,0.0,0.0,3.8042,3.802,3.7969,3.7325,3.6891,3.7598,3.7178,3.6757,3.7307,3.678,3.5942,3.516,3.4883,3.468,3.4349,0.0,3.4189,3.3972,3.3921,3.3895,3.3807,3.3807,3.3807,3.3807,3.3807,3.3807,3.3807,3.3807,3.3807,3.3807,3.3842,3.3895,3.3895,3.3986,3.4025,3.4025,3.408,0.0,0.0,0.0,0.0,0.0,0.0,0.0,0.0,0.0,0.0,0.0,0.0,0.0,0.0,0.0,0.0,0.0,0.0,0.0,0.0,0.0,0.0,0.0,0.0,0.0,0.0,0.0,0.0,3.467,3.5071,0.0,3.6726,3.6941,3.717,3.7519,3.807,3.8379,3.8384,3.8744,3.9366,4.0281,4.0359,4.0798,4.1696,4.1757,4.1777,4.1837,4.1837,4.1857,4.1915,4.1915,4.1915,4.1952,4.1989,4.1735,4.1264,4.105,4.0462,3.9711,3.9823,3.9871,3.9846,3.9306,3.8762,3.8121,3.7003,3.6254,3.569,3.5146,3.5321,3.5803,3.5833,3.661,3.7473,3.7515,3.7786,3.8034,3.8015,3.761,3.728,3.7542,3.7355,3.7185,3.7376,3.7127,3.6744,3.6271,3.539,3.4614,3.4348,3.425,3.4173,3.3921,3.3868,3.3834,3.3788,3.3807,3.3807,3.3807,3.3807,3.3807,3.3807,3.3807,3.3707,3.3494,3.3743,3.3797,3.3606,3.3902,3.4099,3.4099,3.4173,3.4091,0.0,0.0,0.0,0.0,0.0,0.0,0.0,0.0,0.0,0.0,0.0,0.0,0.0,0.0,0.0,0.0,0.0,0.0,0.0,0.0,0.0,0.0,0.0,0.0,0.0,3.4067,3.5102,3.6308,3.6749,3.7305,3.8312,3.8223,3.8364,3.8974,3.9258,3.9513,3.9797,4.0272,4.083,4.1463,4.156,4.1892,4.2525,4.2569,4.2631,4.2673,4.2694,4.2754,4.2794,4.2794,4.2814,4.2852,4.2889,4.2618,4.2187,4.222,4.1921,4.1384,4.0866,4.07,4.07,4.0133,3.9572,3.8914,3.7812,3.7038,3.6458,3.5897,3.5897,3.6132,3.6172,3.6762,3.74,3.7456,3.7666,3.7939,3.8202,3.8029,3.7866,3.815,3.8186,3.8126,3.8058,3.7743,3.7399,3.7143,3.6123,3.5259,3.5008,3.4951,3.4874,3.4768,3.4687,3.4633,3.466,3.4679,3.4633,3.4633,3.466,3.4568,3.4293,3.4283,3.4046,3.3444,3.368,3.3734,3.3522,3.3823,3.4178,3.455,3.4618,3.4543,3.4293,0.0,0.0,0.0,0.0,0.0,0.0,0.0,0.0,0.0,0.0,0.0,0.0,0.0,0.0,0.0,0.0,0.0,0.0,0.0,0.0,0.0,0.0,0.0,3.5813,3.5656,3.617,3.7932,3.7959,3.8188,3.8975,3.8878,3.9387,4.0901,4.0885,4.1166,4.1935,4.2102,4.2146,4.2029,4.2165,4.2184,4.2093,4.2228,4.2351,4.2488,4.2623,4.2749,4.2889,4.287,4.291,4.2965,4.2965,4.3038,4.3143,4.3134,4.3131,4.2954,4.1287,4.0673,4.0739,4.0778,4.0771,4.0752,4.0732,4.0713,4.0713,4.0713,4.0152,3.9468,3.9468,3.8876,3.8226,3.8228,3.8055,3.8041,3.8816,3.8785,3.8774,3.9586,3.9757,3.969,3.9513,3.8727,3.7988,3.7785,3.7209,3.666,3.6342,3.6285,3.6313,3.637,3.6342,0.0,3.6398,3.6342,3.6303,3.6285,3.6342,3.6085,3.5312,3.5301,3.4852,3.3761,3.3744,3.3753,3.3735,3.3817,3.4371,3.5442,3.5442,3.5082,3.4293,0.0,0.0,0.0,0.0,0.0,0.0,0.0,0.0,0.0,0.0,0.0,0.0,0.0,0.0,0.0,0.0,0.0,0.0,0.0,0.0,0.0,3.6128,3.6859,3.6446,3.739,3.8296,3.8692,3.909,3.9699,4.0577,4.0272,4.0434,4.1496,4.1372,4.1311,4.1419,4.1449,4.1874,4.2754,4.2827,4.3295,4.4237,4.4284,4.4376,4.4505,4.4527,4.4588,4.4609,4.465,4.469,4.471,4.4747,4.4475,4.397,4.402,4.3686,4.3061,4.2025,4.1633,4.1569,4.101,4.0404,3.9765,3.9127,3.8914,3.8914,3.8914,3.876,3.8566,3.8566,3.8724,3.8917,3.8936,3.9065,3.9292,3.9399,3.8799,3.8347,3.91,3.8857,3.857,3.9088,3.8979,3.8748,3.8588,3.8432,3.7886,3.6515,3.6342,3.6342,3.6313,3.6313,3.6303,3.6332,3.6332,3.6332,3.6389,3.6398,3.6334,3.615,3.6159,3.592,3.5396,3.5634,3.5431,3.4604,3.485,3.4865,3.455,3.455,3.4487,0.0,0.0,0.0,0.0,0.0,0.0,0.0,0.0,0.0,0.0,0.0,0.0,0.0,0.0,0.0,0.0,0.0,0.0,0.0,0.0,0.0,0.0,3.7392,3.785,3.7832,3.8478,3.9146,3.9652,3.9966,4.0519,4.1378,4.1116,4.1221,4.206,4.1946,4.1989,4.2221,4.2366,4.2772,4.3596,4.368,4.4139,4.5014,4.5061,4.5148,4.5213,4.5275,4.5297,4.5297,4.5359,4.54,4.54,4.5476,4.5262,4.4836,4.4925,4.4669,4.4122,0.0,0.0,0.0,0.0,4.0771,3.9959,3.9456,3.9282,3.9282,3.9282,3.905,3.874,3.874,3.8697,3.8666,3.8666,3.8689,3.8754,3.9033,3.8527,3.8152,3.8915,3.8729,3.8525,3.9008,3.9073,3.8924,3.8524,3.8422,0.0,3.6619,3.6646,3.6857,3.6857,3.6562,3.647,3.683,3.6885,3.7024,3.7403,3.7478,3.7377,3.7082,3.6943,0.0,0.0,0.0,3.5991,3.5485,3.612,0.0,0.0,0.0,3.5095,3.4809,3.4455,0.0,0.0,3.4157,3.412,0.0,0.0,0.0,0.0,0.0,0.0,0.0,0.0,0.0,0.0,0.0,0.0,0.0,0.0,0.0,0.0,3.8686,3.8829,3.9452,3.919,3.9373,4.0572,4.0678,4.0943,4.1745,4.1605,4.1853,4.263,4.2627,4.2908,4.3627,4.3905,0.0,0.0,0.0,4.4688,4.4919,4.5057,4.5103,4.5125,4.5235,4.5297,4.5297,4.5359,4.54,4.54,4.5476,4.555,4.5622,4.5673,4.569,4.5552,4.397,4.3336,4.3208,4.2434,4.1622,4.0945,4.0945,0.0,0.0,4.079,4.0268,3.9661,3.9661,3.8967,3.8204,3.8174,3.7851,3.7653,3.8324,3.8216,3.8098,3.8915,3.9027,3.899,3.9082,3.9045,3.8803,3.8072,3.7924,3.7701,3.6916,3.7116,3.7408,3.7466,3.6859,3.6684,3.7442,3.7534,3.7811,3.8512,3.8644,0.0,3.7646,3.7445,3.7033,3.6329,3.6036,3.6024,3.6321,3.7276,3.7429,3.6705,3.6686,3.6333,3.5627,3.4847,3.4476,3.4476,3.4409,3.434,0.0,0.0,0.0,0.0,0.0,0.0,0.0,0.0,0.0,0.0,0.0,0.0,0.0,0.0,0.0,3.8457,3.9306,3.99,3.9834,4.0484,4.0877,4.0727,4.111,4.1696,4.2526,4.2253,4.2393,4.3254,4.3171,4.3139,4.3304,4.3594,4.3886,4.4121,4.4402,4.4695,4.5057,4.5103,4.5148,4.5275,4.5297,0.0,4.5297,4.5361,4.54,4.5419,4.5513,4.5586,4.5622,4.5668,4.5731,4.5675,4.4641,4.3863,4.3285,4.3111,4.2512,4.1777,4.1777,4.1332,4.079,4.079,4.0694,4.0539,4.0539,4.0293,0.0,3.9806,3.9526,3.926,3.9227,3.86,3.8178,3.8915,3.8599,3.8302,3.8952,3.9101,3.9008,3.8803,3.8756,3.8701,3.8467,3.7516,3.6731,3.6666,3.6509,3.6454,3.6648,3.6666,3.6646,3.6652,3.6652,3.6538,3.62,3.6685,3.6926,3.6762,3.6955,3.7094,3.7154,3.7008,3.6853,3.6686,3.6686,3.6612,3.6463,3.6296,3.6222,3.6166,3.4853,3.4221,0.0,0.0,0.0,0.0,0.0,0.0,0.0,0.0,0.0,0.0,0.0,3.7356,3.8137,0.0,3.847,3.9274,3.9779,4.0179,4.0464,4.1296,4.1804,4.1489,4.1743,4.2234,4.3014,4.2907,4.2953,4.3321,4.3214,4.316,4.316,4.3511,4.3836,4.4192,4.4493,4.4838,4.5192,4.5192,4.5235,4.5297,4.5297,4.5317,4.5338,4.538,4.5419,4.5476,4.5568,4.5586,4.5622,4.5668,4.5746,4.5752,4.5327,4.4664,4.3962,4.3962,4.3401,4.2647,4.2647,4.2396,4.2048,4.2048,4.1757,4.139,4.139,4.0911,4.0321,4.0196,3.9895,3.9539,3.9354,3.8931,3.8654,3.9008,3.8785,3.8599,3.9008,3.9101,3.899,3.8526,3.8452,3.8294,3.7859,3.7008,3.6481,3.674,3.6417,3.6259,3.6523,3.6577,3.6723,3.7062,3.7098,3.7067,3.6957,3.7301,3.7401,3.7214,3.7551,3.7731,3.7731,3.7534,3.7404,3.7404,3.6953,3.6857,3.7064,3.663,3.6527,3.6668,3.5832,3.5442,0.0,0.0,0.0,0.0,0.0,0.0,0.0,3.7165,3.763,3.747,3.7428,3.7675,3.8485,3.8512,3.8816,4.0168,4.0374,4.0598,4.1258,4.1996,4.2475,4.239,4.2441,4.2732,4.3321,4.3359,4.3305,4.3214,4.3214,4.3214,4.3269,4.3693,4.4065,4.4402,4.472,4.5023,4.5297,4.5297,4.5297,4.5297,4.5317,4.5338,4.5398,4.5419,4.5438,4.5495,4.5568,4.5603,4.562,4.5684,4.5731,4.5795,4.58,4.5394,4.4833,4.4833,4.4291,4.3556,4.3556,4.344,4.3305,4.3305,4.2821,4.226,4.2201,4.1524,4.0711,4.0557,4.0235,3.9862,3.9562,3.9425,3.9333,3.9138,3.9101,3.9101,3.9101,3.9101,3.8915,3.8265,3.8089,3.7831,3.7182,3.6775,3.662,3.6955,3.6315,3.5991,3.6432,3.6486,3.6823,3.7458,3.753,3.7551,3.7644,3.7662,3.7577,3.7432,3.7774,3.7982,3.7982,3.8068,3.8029,3.7866,3.7163,3.6926,3.7113,3.6424,3.6258,3.6527,3.6527,3.6581,3.5515,3.5916,3.6214,3.6184,3.6653,3.7106,0.0,3.7162,3.7466,3.814,3.8275,3.8523,3.9388,3.9865,4.0168,4.0381,4.1317,4.2066,4.2158,4.2805,4.3248,4.3123,4.3212,4.3249,4.3251,4.316,4.316,4.3214,4.3477,4.3712,4.391,4.4383,4.4701,4.4726,4.5087,4.5256,4.5297,4.5297,4.5297,4.5297,4.5359,4.5398,4.5418,4.5477,4.5495,4.5495,4.5568,4.5637,4.57,4.57,4.5727,4.58,4.58,4.5742,4.5664,4.5664,4.5142,4.4446,4.4446,4.3962,4.3305,4.3305,4.3227,4.3123,4.2938,4.278,4.26,4.2167,4.1964,4.1644,4.0705,4.0383,4.0142,3.9314,3.9101,3.9101,3.9101,3.9101,3.9064,3.8971,3.8736,3.8493,3.8401,3.8004,3.7374,3.6371,3.5846,3.557,3.5627,3.5627,3.5598,3.545,3.5434,3.5581,3.6015,3.6048,3.6347,3.6995,3.7376,3.7578,3.7578,3.7913,3.7757,3.7047,3.6939,3.6608,3.5968,3.5877,3.5854,3.5884,3.5884,3.6201,3.5458,3.6217,3.6806,3.6583,3.7096,3.7648,3.7577,3.7976,3.8396,3.855,3.8951,3.9388,3.9751,4.0352,4.0954,4.1416,4.194,4.2451,4.2928,4.3226,4.3376,4.3393,4.3376,4.334,4.3196,4.3233,4.3358,4.3545,4.3693,4.3886,4.4181,4.5036,4.5533,4.5558,4.6351,4.6748,4.6748,4.6791,4.6813,4.6813,4.6873,4.6665,4.6225,4.6244,4.5993,4.5568,4.564,4.5673,4.5687,4.5735,4.5761,4.5791,4.58,4.58,4.58,4.58,4.5587,4.5297,4.5297,4.5065,4.4742,4.4635,4.4257,4.3786,4.3578,4.3081,4.2538,4.2318,4.2121,4.1833,4.1371,4.1185,4.1053,4.0643,4.0197,3.9863,3.9863,3.9454,3.9027,3.8836,3.8718,3.8548,3.8346,3.7946,3.7487,3.6978,3.6735,3.656,3.638,3.638,3.6343,3.6233,3.6196,3.63,3.6461,3.6496,3.6636,3.697,3.7147,3.7206,3.7206,3.7356,3.7307,3.6969,3.6969,3.6899,3.6786,3.6371,3.6237,3.6413,3.6009,3.5933,3.597,3.6801,3.7426,3.7119,3.7769,3.8524,3.8469,3.8934,3.9323,3.9062,3.9313,3.9643,3.9845,4.0561,4.1368,4.2176,4.2488,4.2818,4.3406,4.3446,4.3429,4.3463,4.3411,4.3305,4.3251,4.3428,4.3548,4.3679,4.3899,4.4207,4.4539,4.5568,4.6234,4.6411,4.7319,4.7799,4.7799,4.7843,4.7886,4.7886,4.7968,4.7702,4.7165,4.7165,4.6723,4.5951,4.6003,4.5921,4.5706,4.5785,4.5795,4.5776,4.5742,4.5858,4.6017,4.5738,4.5688,4.58,4.58,4.5752,4.5688,4.556,4.5031,4.4422,4.4204,4.3612,4.2953,4.285,4.2682,4.2492,4.2184,4.2071,4.1928,4.1686,4.1173,4.0717,4.0717,4.0158,3.9494,3.9026,3.8784,3.8485,3.8018,3.7632,3.7376,3.7376,3.7319,3.7203,3.7009,3.6987,3.6987,3.6987,3.6987,3.6987,3.6987,3.6987,3.6987,3.6987,3.6987,3.6987,3.6987,3.6987,3.6882,3.6654,3.6654,3.6685,3.6736,3.6185,3.6077,3.6263,3.5854,3.5634,3.7296,3.7845,3.8183,3.794,3.8847,3.984,3.984,3.9858,3.9895,3.9863,3.9258,3.8964,3.9753,4.0561,4.1368,4.2176,4.2947,4.3461,4.3497,4.3446,4.3394,4.3394,4.3305,4.3251,4.3394,4.3631,4.3679,4.3411,4.4184,4.4823,4.5151,4.6001,4.671,4.7238,4.7605,4.7799,4.7799,4.7799,4.784,4.7886,4.7968,4.8029,4.8049,4.8068,4.7625,4.6855,4.6852,4.6422,4.57,4.5765,4.581,4.5786,4.5594,4.599,4.655,4.559,4.5454,4.58,4.58,4.5658,4.5507,4.549,4.5343,4.5101,4.4834,4.4743,4.4669,4.4484,4.4421,4.4224,4.3353,4.3053,4.2753,4.1903,4.163,4.1553,4.1553,4.1256,4.0708,3.9932,3.9189,3.8433,3.763,3.7243,3.7027,3.7027,3.7009,3.7027,3.6987,3.6987,3.6987,3.6987,3.6987,3.6987,3.6987,3.6987,3.6987,3.6987,3.6987,3.6987,3.6987,3.6987,3.6619,3.5864,3.5864,3.5495,3.4795,3.476,3.476,3.476,3.5065,3.5202,3.8031,3.8818,3.9562,3.929,3.9976,4.0708,4.0708,4.0286,3.99,3.99,3.984,3.9851,4.0129,4.0871,4.1693,4.2508,4.2654,4.2892,4.3406,4.3446,4.3429,4.3463,4.3376,4.3376,4.3463,4.3497,4.3697,4.4042,4.4647,4.5341,4.6026,4.7226,4.806,4.8462,4.911,4.9484,4.9507,4.957,4.9635,4.9677,4.9163,4.8933,4.8952,4.824,4.7738,4.7509,4.7588,4.7069,4.6185,4.6529,4.6166,4.5399,4.5472,4.5591,4.5744,4.5929,4.6087,4.6129,4.5591,4.5362,4.5264,4.5099,4.4988,4.4891,4.4655,4.4595,4.4587,4.4524,4.4487,4.4355,4.4093,4.3903,4.3711,4.345,4.2668,4.1991,4.1991,4.1254,4.0436,3.9914,3.919,3.8516,3.798,3.7422,3.6987,3.6987,3.6987,3.6987,3.6987,3.6987,3.6987,3.6987,3.6987,3.6987,3.6987,3.6987,3.6987,3.6987,3.6987,3.6987,3.6987,3.6987,3.6865,3.6584,3.6584,3.6461,3.6197,3.5688,3.5443,3.5425,3.5046,3.4871,3.8944,3.9653,4.0298,4.0325,4.0928,4.146,4.1185,4.0708,4.0249,3.9955,3.9875,3.9946,4.0244,4.0858,4.1594,4.2389,4.2608,4.2804,4.318,4.3446,4.3597,4.3532,4.3463,4.3446,4.3497,4.3463,4.3597,4.4053,4.4867,4.5627,4.6259,4.7626,4.8634,4.9045,4.9682,5.0095,5.0278,5.0325,5.0393,5.0399,4.9822,4.9554,4.9513,4.885,4.8403,4.8136,4.8266,4.7745,4.6851,4.7184,4.6647,4.564,4.5684,4.564,4.5586,4.5984,4.6358,4.6573,4.6225,4.6034,4.5925,4.5759,4.5426,4.5115,4.4983,4.474,4.4515,4.4515,4.4487,4.4458,4.4458,4.4344,4.4244,4.4244,4.3421,4.2635,4.2635,4.1796,4.0881,4.0363,3.9779,3.9191,3.8626,3.79,3.7286,3.7023,3.6987,3.6987,3.6987,3.6987,3.6987,3.6987,3.6987,3.6987,3.6987,3.6987,3.6987,3.6987,3.6987,3.6987,3.6987,3.6987,3.6987,3.6987,3.6987,3.6987,3.6987,3.6478,3.6233,3.6215,3.5857,3.5701,4.0026,4.0355,4.0507,4.1029,4.1754,4.2103,4.135,4.1111,4.0836,4.0079,3.9507,3.9349,4.0151,4.0546,4.1003,4.1814,4.2636,4.3088,4.2813,4.3472,4.3849,4.3548,4.3497,4.3516,4.3552,4.3552,4.3571,4.3608,4.4848,4.5724,4.601,4.735,4.8396,4.9019,4.9346,4.9674,5.0082,5.0082,5.0095,5.0068,4.9891,4.9803,4.9784,4.9857,4.9466,4.8764,4.8871,4.8443,4.7643,4.7732,4.7239,4.6412,4.6182,4.6108,4.6057,4.5848,4.6298,4.7099,4.7604,4.7566,4.7269,4.7269,4.6598,4.5772,4.5772,4.5228,4.4627,4.459,4.4571,4.4571,4.4505,4.4401,4.4285,4.4285,4.3809,4.3371,4.3371,4.2734,4.1943,4.127,4.0801,4.0217,3.9445,3.8638,3.7865,3.7145,3.7005,3.6987,3.6987,3.6987,3.6987,3.6987,3.6987,3.6987,3.6987,3.6987,3.6987,3.6987,3.6987,3.6987,3.6987,3.6987,3.6987,3.6987,3.6987,3.6987,3.6987,3.6987,3.6987,3.7027,3.7339,3.7469,4.0216,4.1021,4.1816,4.1971,4.2158,4.2249,4.2047,4.1075,4.0215,4.0193,3.981,3.9609,4.006,4.0012,4.016,4.0966,4.1428,4.1859,4.2359,4.3115,4.3597,4.3513,4.3497,4.3736,4.4342,4.4397,4.4635,4.5241,4.5621,4.6338,4.7529,4.8255,4.8861,4.945,4.948,4.9617,4.9814,4.9849,4.9876,4.9884,4.9811,4.9803,4.9803,4.9665,4.9514,4.9381,4.9446,4.8937,4.807,4.8433,4.7908,4.6806,4.6303,4.598,4.5885,4.6459,4.6824,4.721,4.8578,4.8183,4.709,4.709,4.6882,4.6674,4.6674,4.6542,4.6242,4.5585,4.5397,4.5247,4.459,4.4373,4.4285,4.4244,4.356,4.2959,4.2959,4.232,4.1692,4.1498,4.0936,4.0217,3.9445,3.8638,3.8041,3.7848,3.7338,3.6987,3.6987,3.6987,3.6987,3.6987,3.6987,3.6987,3.6987,3.6987,3.6987,3.6987,3.6987,3.6987,3.6987,3.6987,3.6987,3.6987,3.6987,3.6987,3.6987,3.6987,3.6987,3.7009,3.7087,3.7108,4.0596,4.1443,4.2378,4.2745,4.2561,4.2228,4.2036,4.1015,4.0052,3.9997,3.9873,3.984,4.0061,3.9962,3.997,4.0423,4.0809,4.1226,4.1896,4.2691,4.3273,4.3477,4.3809,4.4195,4.4672,4.5021,4.5571,4.6379,4.6434,4.6817,4.7774,4.8285,4.88,4.922,4.9155,4.9265,4.9558,4.9598,4.9627,4.9627,4.948,4.942,4.9401,4.9365,4.9352,4.9427,4.9499,4.9243,4.8788,4.9031,4.8503,4.7511,4.7127,4.6478,4.5848,4.7087,4.7312,4.7256,4.8927,4.8889,4.8101,4.8101,4.7838,4.7537,4.7537,4.7274,4.6899,4.6411,4.6232,4.5996,4.5161,4.4867,4.4733,4.4307,4.3679,4.3141,4.2995,4.24,4.1856,4.1631,4.1271,4.0727,3.9954,3.9445,3.9024,3.869,3.797,3.7479,3.7479,3.718,3.6987,3.6987,3.6987,3.6987,3.6987,3.6987,3.6987,3.6987,3.6987,3.6987,3.6987,3.6987,3.6987,3.6987,3.6987,3.6987,3.6987,3.6987,3.6987,3.6987,3.6987,3.6987,4.0974,4.1772,4.2598,4.3185,4.2745,4.2018,4.1553,4.0746,4.0057,3.9703,3.984,4.0042,4.012,4.012,4.0081,4.0042,4.0495,4.0973,4.1491,4.2214,4.2977,4.3603,4.4287,4.4782,4.5002,4.5663,4.6397,4.7223,4.7278,4.7316,4.7445,4.8015,4.8476,4.8787,4.8697,4.8872,4.9321,4.9352,4.9352,4.9321,4.9027,4.8909,4.8909,4.9049,4.915,4.9211,4.9276,4.939,4.9509,4.9509,4.9039,4.8363,4.8251,4.7312,4.6204,4.765,4.7763,4.7387,4.8964,4.9509,4.9509,4.9509,4.8983,4.8363,4.8363,4.7894,4.7312,4.7199,4.7084,4.6799,4.5975,4.5709,4.5382,4.4538,4.4027,4.3621,4.3196,4.2637,4.2098,4.1675,4.1604,4.1394,4.0744,4.0551,4.0253,3.9568,3.8778,3.8269,3.8269,3.7514,3.6987,3.6987,3.6987,3.6987,3.6987,3.6987,3.6987,3.6987,3.6987,3.6987,3.6987,3.6987,3.6987,3.6987,3.6987,3.6987,3.6987,3.6987,3.6987,3.6987,3.6987,3.6987,4.1075,4.2176,4.3167,4.2635,4.1901,4.119,4.0659,3.9881,3.9394,3.9769,3.9922,4.0101,4.0379,4.0252,4.0002,3.9731,4.0103,4.0588,4.1125,4.1871,4.2919,4.4323,4.4635,4.5241,4.6562,4.6819,4.7241,4.8031,4.8104,4.8142,4.8292,4.8383,4.8569,4.8787,4.8839,4.889,4.9012,4.9012,4.9012,4.9012,4.8943,4.8962,4.9068,4.9101,4.9183,4.9276,4.9289,4.939,4.9509,4.9509,4.9415,4.9208,4.8476,4.8007,4.78,4.8082,4.8101,4.8138,4.9152,4.9509,4.9509,4.9509,4.9396,4.9265,4.9265,4.9189,4.8927,4.8194,4.7988,4.777,4.6922,4.6477,4.6025,4.5162,4.4487,4.3756,4.2838,4.2133,4.1719,4.1604,4.1604,4.1569,4.1429,4.0884,4.0428,4.0288,3.9603,3.9111,3.9111,3.7865,3.6987,3.6987,3.6987,3.6987,3.6987,3.6987,3.6987,3.6987,3.6987,3.6987,3.6987,3.6987,3.6987,3.6987,3.6987,3.6987,3.6987,3.6987,3.6987,3.6987,3.6987,3.6987,4.1001,4.1662,4.2268,4.2286,4.1387,4.0467,4.0514,3.9892,3.947,4.0041,4.0196,4.0306,4.0515,4.0304,4.0043,3.9925,3.9806,4.0114,4.1218,4.1535,4.2268,4.3883,4.4819,4.5626,4.6416,4.7241,4.7884,4.8269,4.8363,4.8438,4.855,4.866,4.8751,4.8787,4.8874,4.8909,4.8909,4.8909,4.8909,4.8909,4.8962,4.9049,4.9101,4.9116,4.9197,4.9308,4.9308,4.939,4.9509,4.9509,4.9509,4.9471,4.9039,4.8589,4.8251,4.8701,4.8589,4.8307,4.9208,4.9509,4.9509,4.9509,4.9509,4.9509,4.9509,4.9509,4.9415,4.8983,4.8727,4.8362,4.7527,4.7055,4.6609,4.5711,4.4803,4.393,4.3358,4.2436,4.1736,4.1604,4.1604,4.1604,4.1604,4.1306,4.106,4.106,4.0411,3.9919,3.9919,3.8901,3.8041,3.7619,3.7216,3.6987,3.6987,3.6987,3.6987,3.6987,3.6987,3.6987,3.6987,3.6987,3.6987,3.6987,3.6987,3.6987,3.6987,3.6987,3.6987,3.6987,3.6987,3.6987,4.0648,4.0983,4.1222,4.1662,4.0836,3.9995,4.0371,3.9951,3.9664,4.0289,4.0466,4.0531,4.0592,4.0403,4.0226,4.0227,3.9762,3.9864,4.1166,4.1255,4.1779,4.333,4.4911,4.5975,4.614,4.7462,4.8306,4.8363,4.8494,4.8606,4.8642,4.8785,4.8839,4.8822,4.8874,4.8909,4.8909,4.8909,4.8909,4.8909,4.9015,4.9101,4.9116,4.9164,4.9244,4.934,4.934,4.939,4.9509,4.9509,4.9509,4.9509,4.9509,4.9077,4.8551,4.9246,4.9077,4.857,4.9265,4.9509,4.9509,4.9509,4.9509,4.9509,4.9509,4.9459,4.9377,4.9377,4.9113,4.8672,4.8041,4.7645,4.7131,4.6155,4.5046,4.4191,4.4012,4.3012,4.2096,4.1939,4.1798,4.1675,4.1675,4.1648,4.1604,4.1604,4.1095,4.0727,4.0727,4.0042,3.9322,3.869,3.7777,3.7163,3.6987,3.6987,3.6987,3.6987,3.6987,3.6987,3.6987,3.6987,3.6987,3.6987,3.6987,3.6987,3.6987,3.6987,3.6987,3.6987,3.6987,3.6987,3.9927,4.0575,4.0946,4.0286,4.001,3.9847,3.9658,3.9537,3.9664,4.0289,4.0495,4.0592,4.0607,4.0621,4.0563,4.0326,4.0191,4.021,4.0457,4.112,4.2038,4.3364,4.4911,4.6195,4.6929,4.7792,4.8363,4.8457,4.8642,4.8787,4.8787,4.8787,4.8839,4.8909,4.8909,4.8909,4.8909,4.8909,4.8909,4.8909,4.8909,4.9012,4.9197,4.9197,4.9295,4.949,4.949,4.949,4.9509,4.9509,4.9509,4.9509,4.9509,4.9452,4.9396,4.9471,4.9452,4.9396,4.9471,4.9509,4.9509,4.9509,4.9509,4.9509,4.9509,4.9295,4.9061,4.9061,4.8837,4.8605,4.8549,4.8273,4.7667,4.6398,4.5287,4.4517,4.4334,4.3607,4.2996,4.2953,4.2369,4.1874,4.1874,4.1719,4.1604,4.1604,4.1552,4.1499,4.1499,4.0832,4.034,4.027,3.8901,3.7725,3.704,3.6987,3.6987,3.6987,3.6987,3.6987,3.6987,3.6987,3.6987,3.6987,3.6987,3.6987,3.6987,3.6987,3.6987,3.6987,3.6987,3.6987,3.97,3.9834,3.9698,3.9845,3.9663,3.9417,3.9483,3.929,3.9182,3.954,3.9711,3.9822,3.9874,4.0312,4.0621,4.0549,4.0312,4.0349,4.0927,4.1553,4.2254,4.3051,4.5026,4.636,4.6488,4.7647,4.8494,4.8679,4.8751,4.8822,4.8839,4.8839,4.8874,4.8909,4.8909,4.8909,4.8909,4.8909,4.8909,4.8909,4.8962,4.9325,4.9926,5.0011,5.0389,5.0935,5.0935,5.0935,5.0917,5.041,5.0222,5.0166,4.9696,4.9509,4.9509,4.9509,4.9509,4.9509,4.9509,4.9509,4.9509,4.9509,4.9377,4.9211,4.9211,4.9094,4.8974,4.8802,4.8532,4.8307,4.8307,4.8093,4.7715,4.7199,4.6302,4.5513,4.525,4.4582,4.3819,4.3049,4.2767,4.2422,4.1833,4.1648,4.1604,4.1604,4.1604,4.1604,4.1604,4.1341,4.099,4.0533,3.9059,3.7988,3.769,3.7251,3.6987,3.6987,3.6987,3.6987,3.6987,3.6987,3.6987,3.6987,3.6987,3.6987,3.6987,3.6987,3.6987,3.6987,3.6987,3.6987,3.9071,3.911,3.8897,3.9405,3.9378,3.9182,3.9185,3.8986,3.882,3.8799,3.8892,3.9028,3.9341,3.9888,4.0384,4.0642,4.0442,4.0436,4.0958,4.1757,4.2389,4.2652,4.4871,4.6356,4.6264,4.7664,4.8661,4.8787,4.8822,4.8839,4.8909,4.8909,4.8909,4.8909,4.8909,4.8909,4.8909,4.8909,4.8909,4.8962,4.9291,4.9821,5.0464,5.0792,5.1289,5.1912,5.1912,5.1912,5.1874,5.1292,5.0898,5.0635,5.0072,4.9715,4.9509,4.9509,4.9509,4.9509,4.9509,4.9509,4.949,4.9377,4.9179,4.8974,4.8783,4.8748,4.8677,4.8514,4.8231,4.7974,4.7974,4.7847,4.7657,4.7615,4.7011,4.6362,4.6186,4.5579,4.4751,4.3845,4.3421,4.2951,4.2159,4.1807,4.1604,4.1604,4.1604,4.1604,4.1604,4.1604,4.1394,4.0867,3.9621,3.862,3.8146,3.7619,3.7216,3.6987,3.6987,3.6987,3.6987,3.6987,3.6987,3.6987,3.6987,3.6987,3.6987,3.6987,3.6987,3.6987,3.6987,3.6987,3.7866,3.8461,3.8881,3.8738,3.9064,3.9212,3.8553,3.8652,3.8747,3.8218,3.8119,3.8369,3.9237,3.9457,3.9765,4.0558,4.0642,4.0511,4.0257,4.1514,4.2421,4.224,4.4407,4.6105,4.6655,4.7969,4.8787,4.8787,4.8874,4.8909,4.8909,4.8909,4.8909,4.8909,4.8909,4.8909,4.8909,4.8909,4.8962,4.912,4.9902,5.0396,5.0619,5.1405,5.1846,5.1912,5.1912,5.1912,5.1912,5.1893,5.1424,5.0691,5.0673,5.0203,4.9509,4.9509,4.9509,4.9509,4.9509,4.9509,4.9459,4.9094,4.9008,4.8906,4.8289,4.8096,4.8114,4.8114,4.7911,4.7699,4.7699,4.7699,4.7615,4.7363,4.7143,4.698,4.698,4.6355,4.5784,4.5784,4.4535,4.3422,4.3129,4.2273,4.1604,4.1604,4.1604,4.1604,4.1604,4.1604,4.1604,4.1587,4.0902,3.9814,3.8251,3.8093,3.7777,3.704,3.6987,3.6987,3.6987,3.6987,3.6987,3.6987,3.6987,3.6987,3.6987,3.6987,3.6987,3.6987,3.6987,3.6987,3.7291,3.7568,3.7654,3.7623,3.7853,3.8059,3.789,3.7641,3.742,3.7244,3.7199,3.7308,3.7559,3.8587,3.9455,3.9747,4.0212,4.053,4.053,4.1752,4.2525,4.2221,4.4496,4.6629,4.7992,4.8574,4.8874,4.8874,4.8874,4.8909,4.8909,4.8909,4.8909,4.8909,4.8909,4.8909,4.8909,4.8996,4.9049,4.912,4.9971,5.0744,5.1443,5.2248,5.299,5.362,5.362,5.362,5.3564,5.3019,5.2625,5.2287,5.1142,5.0522,5.0241,4.9696,4.9509,4.9509,4.9509,4.9345,4.9146,4.9008,4.8713,4.8327,4.8153,4.8114,4.8075,4.787,4.7783,4.7717,4.7717,4.7717,4.7657,4.7597,4.7511,4.7399,4.7088,4.7052,4.6773,4.5545,4.476,4.4039,4.3049,4.2176,4.1604,4.1604,4.1604,4.1604,4.1604,4.1604,4.1604,4.1604,4.1394,4.0832,3.9814,3.8725,3.8006,3.7777,3.7268,3.6987,3.6987,3.6987,3.6987,3.6987,3.6987,3.6987,3.6987,3.6987,3.6987,3.6987,3.6987,3.6987,3.6691,3.7005,3.7165,3.7122,3.7336,3.7483,3.7206,3.6988,3.6748,3.6443,3.6354,3.6554,3.7211,3.8176,3.9108,3.9779,4.0293,4.0574,4.0516,4.1788,4.2852,4.3178,4.5162,4.6922,4.8031,4.8587,4.8909,4.8909,4.8909,4.8909,4.8909,4.8909,4.8909,4.8909,4.8909,4.8909,4.8962,4.9049,4.9135,4.9183,5.0071,5.0792,5.1434,5.2559,5.3399,5.3958,5.4277,5.4409,0.0,5.3846,5.3451,5.3076,5.2043,5.1255,5.0635,5.0128,4.9753,4.9459,4.9345,4.9179,4.8974,4.8748,4.8345,4.7933,4.7933,4.7933,4.7893,4.7741,4.7717,4.7717,4.7717,4.7717,4.7717,4.7717,4.7572,4.7399,4.716,4.7187,4.6955,4.5894,4.5308,4.4618,4.3434,4.257,4.1955,4.1657,4.1604,4.1604,4.1604,4.1604,4.1604,4.1604,4.1604,4.1411,4.0937,3.9743,3.8743,3.8146,3.7672,3.7286,3.6987,3.6987,3.6987,3.6987,3.6987,3.6987,3.6987,3.6987,3.6987,3.6987,3.6987,3.6987,0.0,3.6711,3.7143,3.7017,3.7281,3.7329,3.6535,3.6588,0.0,3.5844,3.5639,3.611,3.7812,3.816,3.874,4.0346,4.0655,4.061,4.0334,4.176,4.3329,4.4753,4.6112,4.6968,4.7024,4.817,4.8909,4.8909,4.8909,4.8909,4.8909,4.8909,4.8909,4.8909,4.8909,4.8962,4.9101,4.9101,4.9183,4.9308,5.0188,5.0646,5.0748,5.2362,5.3132,5.3226,5.3977,5.4352,5.4409,5.4409,5.3958,5.3264,5.3207,5.2193,5.0767,5.071,5.0153,4.9427,4.9094,4.894,4.8818,4.8269,4.7911,4.7717,4.7717,4.7717,4.7717,4.7717,4.7717,4.7717,4.7717,4.7717,4.7717,4.7717,4.7356,4.707,4.7232,4.6962,4.6637,4.659,4.5953,4.5064,4.4074,4.3289,4.2535,4.1727,4.1604,4.1604,4.1604,4.1604,4.1604,4.1604,4.1604,4.1604,4.1604,4.0902,3.9849,3.8374,3.8234,3.7848,3.7093,3.7058,3.704,3.6987,3.6987,3.6987,3.6987,3.6987,3.7044,3.7058,3.7058,3.7093,3.547,0.0,3.5914,3.5883,3.5944,3.5993,0.0,3.5861,3.5852,3.5657,3.5618,3.5936,3.7011,3.7754,3.8523,3.9548,4.0262,4.0808,4.1142,4.2243,4.354,4.4871,4.5898,4.6741,4.7457,4.8364,4.8909,4.8909,4.8909,4.8909,4.8909,4.8909,4.8909,4.8909,4.8996,4.9068,4.9101,4.915,4.923,4.9308,5.0234,5.0691,5.0729,5.1743,5.2569,5.3188,5.3395,5.3827,5.4409,5.4409,5.4296,5.4052,5.3433,5.255,5.1504,5.0688,4.9855,4.9061,4.8802,4.8532,4.8251,4.7911,4.7741,4.7717,4.7717,4.7717,4.7717,4.7717,4.7717,4.7717,4.7717,4.7717,4.7717,4.7717,4.7468,4.7187,4.7116,4.698,4.6795,4.6368,4.5811,4.5064,4.4074,4.3289,4.2535,4.1727,4.1604,4.1604,4.1604,4.1604,4.1604,4.1604,4.1604,4.1604,4.1604,4.0902,4.0323,3.9937,3.9357,3.8673,3.7865,3.7848,3.7567,3.6987,3.6987,3.6987,3.6987,3.6987,3.7286,3.7848,3.7848,3.8164,3.4776,3.5199,3.5493,3.5493,3.5493,3.552,3.5579,3.5591,3.5608,3.5648,3.5938,3.648,3.7424,3.8285,3.9124,3.9937,4.0384,4.0921,4.1837,4.2778,4.3737,4.4699,4.5873,4.6762,4.714,4.8203,4.8909,4.8909,4.8909,4.8909,4.8909,4.8909,4.8909,4.8909,4.8962,4.9049,4.9101,4.9197,4.9276,4.9308,4.989,5.0147,5.0166,5.0973,5.1611,5.2062,5.2437,5.285,5.3245,5.3245,5.3489,5.3808,5.3357,5.2596,5.1656,5.1052,5.0001,4.8767,4.8458,4.8172,4.7911,4.7741,4.7717,4.7717,4.7717,4.7717,4.7717,4.7717,4.7717,4.7717,4.7717,4.7717,4.7657,4.7554,4.7338,4.7098,4.6888,4.6702,4.656,4.627,4.5985,4.5487,4.4618,4.3816,4.3044,4.2271,4.185,4.1604,4.1604,4.1604,4.1604,4.1604,4.1604,4.1604,4.1604,4.1218,4.0849,4.0498,4.0077,3.9498,3.869,3.8655,3.8462,3.8058,3.8058,3.8058,3.8058,3.8058,3.8251,3.8655,3.8655,3.8883,3.4173,3.482,3.5446,3.5493,3.5493,3.552,3.5579,3.5591,3.5647,3.5853,3.6433,3.7246,3.8374,3.9131,3.9887,4.0733,4.0836,4.1171,4.2258,4.3183,4.39,4.4376,4.5904,4.6802,4.6527,4.7961,4.8909,4.8909,4.8909,4.8909,4.8909,4.8909,4.8909,4.8909,4.8943,4.8996,4.9101,4.923,4.9308,4.934,4.9459,4.9509,4.9527,5.0203,5.0579,5.0729,5.1424,5.1799,5.1912,5.1912,5.2344,5.3001,5.2949,5.2255,5.1281,5.1228,5.0028,4.8476,4.8153,4.7911,4.7717,4.7717,4.7717,4.7717,4.7717,4.7717,4.7717,4.7717,4.7717,4.7717,4.7717,4.7717,4.7615,4.7363,4.716,4.6934,4.6637,4.6398,4.6172,4.6172,4.6172,4.5993,4.5238,4.4431,4.3658,4.2921,4.2131,4.1604,4.1604,4.1604,4.1604,4.1604,4.1604,4.1604,4.1604,4.1604,4.1323,4.0691,4.0656,4.0305,3.9533,3.9375,3.9305,3.9305,3.9305,3.9305,3.9305,3.9305,3.9375,3.9498,3.9498,3.955,3.4,3.4697,3.5293,3.5465,3.5493,3.552,3.5579,3.5591,3.5809,3.6555,3.6806,3.7428,3.9101,3.9527,3.9876,4.0682,4.155,4.2093,4.2073,4.3154,4.3983,4.4072,4.5581,4.6573,4.6494,4.7961,4.8909,4.8909,4.8909,4.8909,4.8909,4.8909,4.8909,4.8909,4.9079,4.9131,4.9101,4.9164,4.9295,4.9459,4.949,4.9509,4.9509,4.9621,5.0053,5.0691,5.0823,5.1273,5.1912,5.1912,5.1987,5.2067,5.1865,5.1185,5.0352,4.9877,4.9056,4.8153,4.7847,4.7741,4.7717,4.7717,4.7717,4.7717,4.7717,4.7717,4.7717,4.7717,4.7717,4.7717,4.7717,4.7717,4.7615,4.7363,4.716,4.6934,4.6637,4.6398,4.6172,4.6172,4.6172,4.5993,4.5238,4.4431,4.3658,4.2921,4.2131,4.1604,4.1604,4.1604,4.1604,4.1604,4.1604,4.1604,4.1604,4.1604,4.1552,4.1446,4.1429,4.1095,4.034,3.9656,3.9305,3.9305,3.9305,3.9305,3.9305,3.9305,3.9656,4.0305,4.0305,4.0639,3.3448,3.4428,3.5469,3.5879,3.5911,3.5825,3.5856,3.62,3.6687,3.7261,3.7718,3.8369,3.946,3.9859,4.0058,4.0147,4.1457,4.236,4.2082,4.3492,4.4478,4.429,4.5367,4.6202,4.649,4.7553,4.8426,4.8872,4.8909,4.8909,4.8909,4.8909,4.8909,4.8909,4.8978,4.9064,4.9101,4.9116,4.9249,4.939,4.9459,4.9509,4.9509,4.9509,4.9696,5.0053,5.0053,5.026,5.0598,5.0598,5.0726,5.0968,5.0866,5.0377,4.9657,4.8802,4.8257,4.787,4.7741,4.7717,4.7717,4.7717,4.7717,4.7717,4.7717,4.7717,4.7717,4.7717,4.7717,4.7717,4.7717,4.7717,4.7615,4.7249,4.707,4.6888,4.6447,4.627,4.6172,4.6172,4.6172,4.6116,4.5765,4.5062,4.429,4.3518,4.2745,4.2096,4.1657,4.1604,4.1604,4.1604,4.1604,4.1604,4.1604,4.1604,4.1604,4.1604,4.1604,4.1446,4.1095,4.0744,4.0551,4.0551,4.0551,4.0551,4.0551,4.0551,4.0727,4.1078,4.1078,4.1271,3.301,3.4199,3.5537,3.6009,3.6041,3.6064,3.633,3.6786,3.73,3.789,3.8503,3.9122,3.9755,4.0179,4.0334,4.0027,4.1347,4.2354,4.2285,4.3729,4.4668,4.4417,4.5134,4.5817,4.6174,4.694,4.7757,4.8556,4.863,4.8704,4.889,4.8909,4.8909,4.8909,4.8943,4.8996,4.9101,4.9135,4.9197,4.9308,4.939,4.9459,4.9509,4.9509,4.9509,4.9509,4.9509,4.9509,4.949,4.9427,4.9566,4.9902,4.9763,4.9417,4.8908,4.8019,4.7717,4.7717,4.7717,4.7717,4.7717,4.7717,4.7717,4.7717,4.7717,4.7717,4.7717,4.7717,4.7717,4.7717,4.7717,4.7657,4.7511,4.7088,4.6934,4.6795,4.6319,4.6172,4.6172,4.6172,4.6172,4.6172,4.6172,4.5607,4.4834,4.4009,4.3272,4.2517,4.171,4.1604,4.1604,4.1604,4.1604,4.1604,4.1604,4.1604,4.1604,4.1604,4.1604,4.1604,4.1604,4.1604,4.1604,4.1604,4.1604,4.1604,4.1604,4.1604,4.1604,4.1604,4.1604,4.1604,3.301,3.4079,3.5226,3.5286,3.5475,3.5916,3.7052,3.6967,3.7041,3.8347,3.8689,3.9051,4.0146,4.0429,4.0654,4.1094,4.1658,4.2208,4.2675,4.352,4.406,4.4048,4.4811,4.5337,4.5379,4.6104,4.6921,4.7738,4.7794,4.811,4.8872,4.9015,4.9015,4.8909,4.9079,4.9164,4.9101,4.923,4.9308,4.9308,4.9308,4.939,4.9509,4.9509,4.9509,4.9509,4.9509,4.9509,4.9459,4.9179,4.9046,4.9033,4.8457,4.8065,4.7832,4.7735,4.7717,4.7717,4.7717,4.7717,4.7717,4.7717,4.7717,4.7717,4.7717,4.7717,4.7717,4.7717,4.7717,4.7717,4.7717,4.7511,4.7276,4.707,4.6795,4.6542,4.627,4.6172,4.6172,4.6172,4.6172,4.6172,4.6172,4.5607,4.4834,4.4009,4.3272,4.2517,4.171,4.1604,4.1604,4.1604,4.1604,4.1604,4.1604,4.1604,4.1604,4.1604,4.1604,4.1604,4.1604,4.1604,4.1604,4.1604,4.1604,4.1604,4.1604,4.1604,4.1604,4.1604,4.1604,4.1604,3.3014,3.4438,3.5952,3.5957,3.6051,3.632,3.7007,3.7383,3.79,3.9034,3.9258,3.9423,4.004,4.0444,4.0743,4.0956,4.1851,4.2565,4.2772,4.3485,4.4005,4.4005,4.4283,4.4692,4.5249,4.5565,4.6085,4.6884,4.694,4.7293,4.811,4.82,4.8441,4.889,4.8978,4.9012,4.8962,4.9116,4.9197,4.9244,4.9358,4.9459,4.9509,4.9509,4.9509,4.9509,4.9509,4.9509,4.9459,4.9146,4.8906,4.8695,4.8111,4.7765,4.7717,4.7717,4.7717,4.7717,4.7717,4.7717,4.7717,4.7717,4.7717,4.7717,4.7717,4.7717,4.7717,4.7717,4.7717,4.7717,4.7717,4.7511,4.7232,4.7025,4.6795,4.6542,4.627,4.6172,4.6172,4.6172,4.6172,4.6172,4.6172,4.5993,4.5378,4.4097,4.3658,4.3026,4.1762,4.1604,4.1604,4.1604,4.1604,4.1604,4.1604,4.1604,4.1604,4.1604,4.1604,4.1604,4.1604,4.1604,4.1604,4.1604,4.1604,4.1604,4.1604,4.1604,4.1604,4.1604,4.1604,4.1604,3.3048,3.4571,3.6178,3.637,3.6479,3.6644,3.725,3.7671,3.8225,3.9226,3.9548,3.9724,4.0171,4.0552,4.0971,4.1499,4.2268,4.289,4.3132,4.3652,4.4005,4.4005,4.4005,4.4228,4.4822,4.4878,4.5231,4.6048,4.6122,4.6475,4.7274,4.7586,4.7977,4.8534,4.8813,4.8962,4.8962,4.9083,4.915,4.9179,4.9377,4.9509,4.9509,4.9509,4.9509,4.9509,4.9509,4.9509,4.9459,4.9027,4.866,4.8249,4.7847,4.7717,4.7717,4.7717,4.7717,4.7717,4.7717,4.7717,4.7717,4.7717,4.7717,4.7717,4.7717,4.7717,4.7717,4.7717,4.7717,4.7657,4.7615,4.7381,4.7143,4.7025,4.6749,4.6398,4.6221,4.6172,4.6172,4.6172,4.6172,4.6172,4.6172,4.6172,4.5782,4.4466,4.4062,4.343,4.2148,4.1762,4.1604,4.1604,4.1604,4.1604,4.1604,4.1604,4.1604,4.1604,4.1604,4.1604,4.1604,4.1604,4.1604,4.1604,4.1604,4.1604,4.1604,4.1604,4.1604,4.1604,4.1604,4.1604,3.3102,3.4328,3.5765,3.6343,3.6511,3.6816,3.7943,3.7794,3.7726,3.8883,3.9371,3.9863,4.0632,4.0801,4.1367,4.302,4.3035,4.3095,4.3893,4.4005,4.4005,4.4005,4.4005,4.4005,4.4005,4.4005,4.4358,4.5212,4.5287,4.5639,4.6438,4.7336,4.7798,4.7816,4.8654,4.9101,4.9101,4.9164,4.9197,4.9179,4.9377,4.9509,4.9509,4.9509,4.9509,4.9509,4.9509,4.9509,4.9459,4.8855,4.8249,4.7717,4.7717,4.7717,4.7717,4.7717,4.7717,4.7717,4.7717,4.7717,4.7717,4.7717,4.7717,4.7717,4.7717,4.7717,4.7717,4.7717,4.7717,4.7657,4.7363,4.7143,4.6998,4.6998,4.6607,4.6172,4.6172,4.6172,4.6172,4.6172,4.6172,4.6172,4.6172,4.6172,4.5975,4.522,4.4413,4.3623,4.2886,4.2096,4.1604,4.1604,4.1604,4.1604,4.1604,4.1604,4.1604,4.1604,4.1604,4.1604,4.1604,4.1604,4.1604,4.1604,4.1604,4.1604,4.1604,4.1604,4.1604,4.1604,4.1604,4.1604,3.31,3.4941,3.6812,3.6501,3.7072,3.7788,3.8112,3.8085,3.8193,3.8941,3.9676,4.0285,4.0715,4.1571,4.2455,4.3175,4.3502,4.3726,4.3968,4.4005,4.4005,4.4005,4.4005,4.4005,4.4005,4.4005,4.4116,4.4376,4.4395,4.4779,4.568,4.6531,4.722,4.7779,4.8702,4.915,4.9101,4.923,4.9276,4.9276,4.9427,4.9509,4.9509,4.9509,4.9509,4.9509,4.9509,4.9377,4.9094,4.8495,4.8014,4.7717,4.7717,4.7717,4.7717,4.7717,4.7717,4.7717,4.7717,4.7717,4.7717,4.7717,4.7717,4.7717,4.7717,4.7717,4.7717,4.7717,4.7717,4.7657,4.7363,4.7143,4.6934,4.6778,4.6464,4.6172,4.6172,4.6172,4.6172,4.6172,4.6172,4.6172,4.6172,4.6172,4.5975,4.522,4.4413,4.343,4.2131,4.1745,4.1604,4.1604,4.1604,4.1604,4.1604,4.1604,4.1604,4.1604,4.1604,4.1604,4.1604,4.1604,4.1604,4.1604,4.1604,4.1604,4.1604,4.1604,4.1604,4.1604,4.1604,4.1604,3.3913,3.5499,3.7086,3.7129,3.7702,3.8319,3.8508,3.8577,3.8656,3.9017,3.9788,4.0542,4.1031,4.2043,4.2981,4.3503,4.3834,4.4005,4.4005,4.4005,4.4005,4.4005,4.4005,4.4005,4.4005,4.4005,4.4005,4.4005,4.4055,4.4309,4.4842,4.5674,4.6507,4.7359,4.8199,4.8828,4.9183,4.9244,4.9308,4.9308,4.9459,4.9509,4.9509,4.9509,4.9509,4.949,4.9345,4.9113,4.8802,4.8289,4.7933,4.7717,4.7717,4.7717,4.7717,4.7717,4.7717,4.7717,4.7717,4.7717,4.7717,4.7717,4.7717,4.7717,4.7717,4.7717,4.7657,4.7554,4.7554,4.7468,4.7125,4.6916,4.6795,4.6637,4.6416,4.6172,4.6172,4.6172,4.6172,4.6172,4.6172,4.6172,4.6172,4.6172,4.6081,4.5607,4.4606,4.3342,4.1797,4.1604,4.1604,4.1604,4.1604,4.1604,4.1604,4.1604,4.1604,4.1604,4.1604,4.1604,4.1604,4.1604,4.1604,4.1604,4.1604,4.1604,4.1604,4.1604,4.1604,4.1604,4.1604,4.1604,3.5136,3.595,3.69,3.8024,3.8338,3.8507,3.8997,3.9101,3.9101,3.9101,3.9844,4.0717,4.146,4.2314,4.315,4.3875,4.4005,4.4005,4.4005,4.4005,4.4005,4.4005,4.4005,4.4005,4.4005,4.4005,4.4005,4.4005,4.4135,4.4135,4.4036,4.4898,4.5774,4.6576,4.7396,4.8268,4.9177,4.927,4.9308,4.9308,4.944,4.9509,4.9509,4.9509,4.9509,4.9459,4.9113,4.8837,4.8587,4.8192,4.7911,4.7717,4.7717,4.7717,4.7717,4.7717,4.7717,4.7717,4.7717,4.7717,4.7717,4.7717,4.7717,4.7717,4.7717,4.7717,4.7657,4.7407,4.7302,4.7169,4.6778,4.6637,4.659,4.659,4.6368,4.6172,4.6172,4.6172,4.6172,4.6172,4.6172,4.6172,4.6172,4.6172,4.6154,4.6133,4.4852,4.3377,4.1903,4.1657,4.1604,4.1604,4.1604,4.1604,4.1604,4.1604,4.1604,4.1604,4.1604,4.1604,4.1604,4.1604,4.1604,4.1604,4.1604,4.1604,4.1604,4.1604,4.1604,4.1604,4.1604,4.1604,3.5062,3.6094,3.7133,3.8075,3.8609,3.8968,3.9073,3.9101,3.9101,3.9101,4.029,4.1386,4.1571,4.276,4.3801,4.3968,4.4005,4.4005,4.4005,4.4005,4.4005,4.4005,4.4005,4.4005,4.4005,4.4005,4.4036,4.4135,4.4184,4.4226,4.4325,4.5051,4.5604,4.5832,4.7273,4.8134,4.8372,4.909,4.9459,4.9459,4.9509,4.9509,4.9509,4.9509,4.9509,4.9459,4.8925,4.866,4.855,4.7992,4.7741,4.7717,4.7717,4.7717,4.7717,4.7717,4.7717,4.7717,4.7717,4.7717,4.7717,4.7717,4.7717,4.7717,4.7717,4.7717,4.7699,4.7615,4.7468,4.7232,4.698,4.6731,4.6542,4.6319,4.6221,4.6172,4.6172,4.6172,4.6172,4.6172,4.6172,4.6172,4.6172,4.6172,4.6028,4.5431,4.4518,4.357,4.2675,4.199,4.1604,4.1604,4.1604,4.1604,4.1604,4.1604,4.1604,4.1604,4.1604,4.1604,4.1604,4.1604,4.1604,4.1604,4.1604,4.1604,4.1604,4.1604,4.1604,4.1604,4.1604,4.1604,3.599,3.6711,3.7426,3.8428,3.8902,3.9101,3.9101,3.9101,3.9101,3.9101,4.0123,4.1033,4.1033,4.2333,4.3429,4.3429,4.3745,4.4005,4.4005,4.4005,4.4005,4.4005,4.4005,4.4005,4.4005,4.4005,4.4055,4.4184,4.4244,4.4304,4.4344,4.4736,4.5177,4.5581,4.6443,4.7316,4.8152,4.8614,4.9096,4.9509,4.9509,4.9509,4.9509,4.9509,4.9409,4.923,4.8767,4.8514,4.8326,4.7888,4.7717,4.7717,4.7717,4.7717,4.7717,4.7717,4.7717,4.7717,4.7717,4.7717,4.7717,4.7717,4.7615,4.7511,4.7657,4.7615,4.7468,4.7381,4.7249,4.7053,4.6702,4.6512,4.635,4.6221,4.6172,4.6172,4.6172,4.6172,4.6172,4.6172,4.6172,4.6172,4.6172,4.6172,4.5975,4.522,4.4413,4.3623,4.2903,4.2113,4.1604,4.1604,4.1604,4.1604,4.1604,4.1604,4.1604,4.1604,4.1604,4.1604,4.1604,4.1604,4.1604,4.1604,4.1604,4.1604,4.1604,4.1604,4.1604,4.1604,4.1604,4.1604,3.6844,3.7332,3.7791,3.8846,3.9101,3.9101,3.9101,3.9101,3.9101,3.9101,3.9788,4.0401,4.0401,4.159,4.2593,4.2593,4.3262,4.3782,4.3782,4.3912,4.4005,4.4005,4.4005,4.4005,4.4005,4.4005,4.4085,4.4214,4.4285,4.4314,4.4344,4.4373,4.473,4.5405,4.5525,4.6285,4.7744,4.8063,4.8551,4.9283,4.9434,4.9459,4.9409,4.9409,4.9262,4.8974,4.866,4.8345,4.8075,4.7806,4.7717,4.7717,4.7717,4.7717,4.7717,4.7717,4.7717,4.7717,4.7717,4.7717,4.7717,4.7717,4.7554,4.7407,4.7572,4.7468,4.7276,4.707,4.6998,4.6842,4.6368,4.6221,4.6172,4.6172,4.6172,4.6172,4.6172,4.6172,4.6172,4.6172,4.6172,4.6172,4.6172,4.6172,4.601,4.5378,4.4501,4.3676,4.3079,4.2184,4.1604,4.1604,4.1604,4.1604,4.1604,4.1604,4.1604,4.1604,4.1604,4.1604,4.1604,4.1604,4.1604,4.1604,4.1604,4.1604,4.1604,4.1604,4.1604,4.1604,4.1604,4.1604,3.6193,3.7255,3.8252,3.8941,3.9101,3.9101,3.9101,3.9101,3.9101,3.9101,3.9788,4.0401,4.0401,4.1144,4.1757,4.1757,4.2445,4.2965,4.2965,4.3559,4.4005,4.4005,4.4005,4.4005,4.4005,4.4104,4.4195,4.4285,4.4344,4.4411,4.4487,4.4411,4.4468,4.4637,4.5273,4.5723,4.6035,4.7462,4.8251,4.8382,4.9133,4.9345,4.9061,4.9061,4.9061,4.8974,4.8421,4.8135,4.8075,4.7806,4.7717,4.7717,4.7717,4.7717,4.7717,4.7717,4.7717,4.7717,4.7717,4.7717,4.7717,4.7717,4.7675,4.7615,4.7407,4.732,4.7276,4.707,4.6842,4.6637,4.6542,4.635,4.6172,4.6172,4.6172,4.6172,4.6172,4.6172,4.6172,4.6172,4.6172,4.6172,4.6172,4.6172,4.6186,4.6098,4.4834,4.3851,4.3763,4.25,4.1604,4.1604,4.1604,4.1604,4.1604,4.1604,4.1604,4.1604,4.1604,4.1604,4.1604,4.1604,4.1604,4.1604,4.1604,4.1604,4.1604,4.1604,4.1604,4.1604,4.1604,4.156,3.6521,3.7457,3.8315,3.8951,3.9101,3.9101,3.9101,3.9101,3.9101,3.9101,3.9398,3.9658,3.9658,4.0364,4.0921,4.0921,4.159,4.2129,4.2129,4.2816,4.3336,4.3336,4.3726,4.4005,4.4005,4.4036,4.4135,4.4244,4.4314,4.4354,4.444,4.444,4.4487,4.4515,4.4824,4.5218,4.5697,4.643,4.7274,4.8194,4.9077,4.9327,4.8974,4.8837,4.8677,4.8477,4.8231,4.7995,4.787,4.7741,4.7717,4.7717,4.7717,4.7717,4.7717,4.7717,4.7717,4.7717,4.7717,4.7615,4.7468,4.7468,4.7276,4.7098,4.7098,4.7007,4.6916,4.6778,4.6684,4.6542,4.6398,4.627,4.6172,4.6172,4.6172,4.6172,4.6172,4.6172,4.6172,4.6172,4.6172,4.6172,4.6172,4.6172,4.6172,4.6172,4.4904,4.3904,4.3904,4.2552,4.1604,4.1604,4.1604,4.1604,4.1604,4.1604,4.1604,4.1604,4.1604,4.1604,4.1604,4.1604,4.1604,4.1604,4.1604,4.1604,4.1604,4.1604,4.1604,4.1604,4.1604,4.1515,3.6587,3.7239,3.7785,3.8652,3.8858,3.8896,3.9045,3.9101,3.9101,3.9101,3.9101,3.9101,3.9101,3.9621,4.0067,4.0067,4.0754,4.1293,4.1293,4.198,4.25,4.25,4.3206,4.3708,4.3708,4.3924,4.4085,4.4184,4.4255,4.4344,4.4383,4.4458,4.4487,4.4515,4.4515,4.4796,4.5397,4.5604,4.643,4.7913,4.8758,4.8977,4.8556,4.8603,4.8402,4.8014,4.8014,4.787,4.7717,4.7717,4.7717,4.7717,4.7717,4.7717,4.7717,4.7717,4.7717,4.7717,4.7717,4.7554,4.7407,4.7302,4.6989,4.6666,4.6934,4.6731,4.6495,4.659,4.6542,4.6447,4.627,4.6172,4.6172,4.6172,4.6172,4.6172,4.6172,4.6172,4.6172,4.6172,4.6172,4.6172,4.6172,4.6172,4.6172,4.6172,4.4904,4.3904,4.3904,4.2552,4.1604,4.1604,4.1604,4.1604,4.1604,4.1604,4.1604,4.1604,4.1604,4.1604,4.1604,4.1604,4.1604,4.1604,4.1604,4.1604,4.1604,4.1604,4.1604,4.1604,4.156,4.1471,3.5888,3.6132,3.6529,3.7841,3.8152,3.8331,3.8961,3.9101,3.9101,3.9101,3.9101,3.9101,3.9101,3.9138,3.9175,3.9175,3.99,4.0457,4.0457,4.1144,4.1664,4.1664,4.237,4.2853,4.2853,4.3688,4.4184,4.4184,4.4255,4.4344,4.4383,4.4411,4.444,4.4515,4.4515,4.4533,4.4571,4.5322,4.6167,4.7068,4.7875,4.7965,4.7424,4.8218,4.8306,4.7699,4.7699,4.7699,4.7717,4.7717,4.7717,4.7717,4.7717,4.7717,4.7717,4.7717,4.7717,4.7717,4.7717,4.7699,4.7615,4.7363,4.7017,4.6724,4.6934,4.6542,4.6087,4.6477,4.6416,4.6221,4.6221,4.6172,4.6172,4.6172,4.6172,4.6172,4.6172,4.6172,4.6172,4.6172,4.6172,4.6172,4.6172,4.6172,4.6172,4.6172,4.4904,4.3904,4.3904,4.2552,4.1604,4.1604,4.1604,4.1604,4.1604,4.1604,4.1604,4.1604,4.1604,4.1604,4.1604,4.1604,4.1604,4.1604,4.1604,4.1604,4.1604,4.1604,4.1604,4.1604,4.1471,4.1318,3.585,3.6056,3.6342,3.728,3.781,3.8177,3.8464,3.8819,3.9101,3.9101,3.9101,3.9101,3.9101,3.9101,3.9101,3.9101,3.9361,3.9565,3.9565,4.029,4.0828,4.0828,4.1534,4.2222,4.2742,4.3107,4.3546,4.4147,4.4255,4.4344,4.4383,4.444,4.4487,4.4515,4.4515,4.4515,4.4515,4.5303,4.5866,4.6167,4.6843,4.6945,4.6521,4.6709,4.685,4.6939,4.6939,4.7228,4.7717,4.7717,4.7717,4.7657,4.7511,4.7554,4.7657,4.7511,4.7554,4.7657,4.732,4.7062,4.6863,4.6459,4.5786,4.5187,4.5271,4.4855,4.4453,4.455,4.4664,4.4729,4.4729,4.4729,4.4852,4.5378,4.5656,4.5905,4.6122,4.6172,4.6172,4.6172,4.6172,4.6172,4.6172,4.6172,4.6172,4.6172,4.4904,4.3904,4.3904,4.2552,4.1604,4.1604,4.1604,4.1604,4.1604,4.1604,4.1604,4.1604,4.1604,4.1604,4.1604,4.1604,4.1604,4.1604,4.1604,4.1604,4.1604,4.1604,4.1604,4.1604,4.1471,4.1318,3.557,3.5681,3.5871,3.6618,3.7337,3.792,3.8134,3.8726,3.9192,3.9129,3.9101,3.9101,3.9101,3.9101,3.9101,3.9101,3.9101,3.9101,3.9101,3.9602,3.9955,3.9955,4.068,4.1404,4.1973,4.227,4.2802,4.3729,4.3845,4.4015,4.4364,4.444,4.4487,4.4515,4.4515,4.4515,4.4515,4.504,4.5256,4.5169,4.5842,4.596,4.5585,4.5718,4.5895,4.6106,4.6106,4.6721,4.7717,4.7717,4.7657,4.7572,4.7468,4.7511,4.7572,4.7468,4.7407,4.7327,4.6758,4.6269,4.5822,4.5204,4.4404,4.3769,4.4156,4.3823,4.3405,4.3757,4.3933,4.3997,4.3745,4.3698,4.382,4.4362,4.4771,4.512,4.5383,4.5852,4.6172,4.6172,4.6172,4.6172,4.6172,4.6172,4.6172,4.6172,4.4904,4.3904,4.3904,4.2552,4.1604,4.1604,4.1604,4.1604,4.1604,4.1604,4.1604,4.1604,4.1604,4.1604,4.1604,4.1604,4.1604,4.1604,4.1604,4.1604,4.1604,4.1604,4.1604,4.1604,4.1408,4.1272,0.0,0.0,0.0,3.579,3.6665,3.7497,3.7978,3.8808,3.9414,3.9165,3.9129,3.9101,3.9101,3.9101,3.9101,3.9101,3.9101,3.9101,3.9101,3.9101,3.9101,3.9101,3.9844,4.0393,4.0486,4.1222,4.2033,4.2893,4.2996,4.3399,4.4308,4.4411,4.444,4.4515,4.4515,4.4515,4.4515,4.4487,4.4383,4.4109,4.4861,4.4975,4.4474,4.5315,4.5548,4.5254,4.5254,4.616,4.7645,4.7645,4.7482,4.7291,4.75,4.7439,4.7291,4.75,4.7291,4.673,4.6007,4.5298,4.4589,4.3711,4.3026,4.2655,4.3781,4.3558,4.3155,4.4192,4.4352,4.4036,4.3371,4.3224,4.3242,4.3242,4.3568,4.3904,4.3904,4.5098,4.6119,4.6137,4.6221,4.6172,4.6172,4.6154,4.6186,4.6186,4.4869,4.3869,4.3869,4.2535,4.1604,4.1604,4.1604,4.1604,4.1604,4.1604,4.1604,4.1604,4.1604,4.1604,4.1604,4.1604,4.1604,4.1604,4.1604,4.1604,4.1604,4.1604,4.1604,4.1604,4.13,4.1071,3.502,0.0,0.0,0.0,0.0,0.0,3.7484,3.8294,3.8958,3.9321,3.9401,3.9324,3.9156,3.9101,3.9101,3.9101,3.9101,3.9101,3.9101,3.9101,3.9101,3.9101,3.9379,3.9798,4.0458,4.0756,4.1278,4.2146,4.2801,4.3278,4.3586,4.4168,4.4487,4.4515,4.4515,4.4515,4.4515,4.4306,4.417,4.4109,4.3933,4.3773,4.365,4.367,4.3993,4.4421,4.4421,4.4921,4.5755,4.5755,4.5797,4.582,4.5569,4.5612,4.5779,4.5362,4.5213,4.5089,4.4155,4.3652,4.332,4.2688,4.2002,4.1474,4.1665,4.1643,4.1505,4.166,4.1835,4.1789,4.1343,4.1591,4.2053,4.2414,4.301,4.3572,4.3857,4.4237,4.4711,4.5291,4.5852,4.6172,4.6172,4.5782,4.5414,4.5414,4.4097,4.3114,4.3114,4.2219,4.1719,4.2008,4.1744,4.1719,4.2026,4.1744,4.1604,4.1604,4.1604,4.1604,4.1604,4.1856,4.1917,4.1604,4.1874,4.1899,4.1604,4.1604,4.1604,4.1604,4.13,4.1134,3.5091,3.5054,3.5054,3.5126,0.0,0.0,3.7222,3.8016,3.8742,3.9214,3.935,3.9298,3.9129,3.9101,3.9101,3.9101,3.9101,3.9101,3.9101,3.9101,3.9101,3.9101,3.9156,3.9415,4.001,4.0101,4.0499,4.1402,4.1927,4.2508,4.3257,4.3745,4.4158,4.4496,4.4515,4.444,4.4335,4.417,4.3999,4.3758,4.3442,4.3232,4.3124,4.2957,4.3154,4.3588,4.3529,4.3704,4.4079,4.3835,4.4229,4.4988,4.4839,4.4821,4.4785,4.4466,4.4137,4.3763,4.2926,4.2346,4.185,4.137,4.0841,4.0419,4.0559,4.0793,4.0884,4.0724,4.0628,4.05,4.0237,4.0593,4.1116,4.1378,4.2029,4.2661,4.2893,4.3202,4.3676,4.4448,4.4957,4.5256,4.5256,4.4887,4.4606,4.4606,4.357,4.2816,4.2816,4.2113,4.1744,4.2175,4.1984,4.2008,4.244,4.2239,4.2092,4.2092,4.2092,4.2092,4.2092,4.232,4.236,4.2092,4.2175,4.2008,4.1604,4.1604,4.1542,4.1408,4.1255,4.1134,3.5209,3.5157,3.5122,0.0,0.0,0.0,3.7029,3.7862,3.8656,3.9013,3.9171,3.9227,3.92,3.9173,3.9173,3.9173,3.9146,3.9137,3.9101,3.9101,3.9101,3.9101,3.9156,3.9256,3.9391,3.9469,3.982,4.0609,4.0741,4.1492,4.3069,4.3238,4.3632,4.4346,4.4458,4.4364,4.4091,4.406,4.3791,4.3303,4.3267,4.3124,4.2882,4.2882,4.2882,4.2882,4.2709,4.2709,4.2768,4.2169,4.2921,4.4425,4.457,4.4321,4.3979,4.4129,4.3506,4.2566,4.1945,4.124,4.0441,3.9999,3.9746,3.9642,4.017,4.0659,4.0896,4.0754,4.0303,3.9901,3.9901,4.0154,4.04,4.0466,4.1053,4.1604,4.1604,4.2166,4.2868,4.3518,4.3781,4.3904,4.3904,4.3834,4.3781,4.3781,4.3149,4.2675,4.2675,4.2088,4.1831,4.2239,4.2279,4.2422,4.2829,4.2847,4.281,4.281,4.281,4.281,4.281,4.2829,4.2847,4.281,4.2462,4.2092,4.1719,4.1648,4.1453,4.1209,4.1209,4.1088,0.0,0.0,0.0,0.0,0.0,0.0,3.6635,3.7525,3.8351,3.8898,3.9586,4.0005,3.9783,3.974,3.974,3.974,3.9557,3.9345,3.9137,3.9101,3.9101,3.9101,3.9229,3.9373,3.9391,3.952,3.9652,3.9802,4.0422,4.1229,4.2205,4.2919,4.3369,4.3538,4.4158,4.4364,4.4091,4.3873,4.3612,4.3303,4.3087,4.2957,4.2882,4.2882,4.2882,4.29,4.2862,4.267,4.2409,4.2287,4.2611,4.3159,4.2384,4.2237,4.2356,4.1649,4.1263,4.0957,4.0476,4.0205,3.9982,3.978,3.9798,3.9833,4.007,4.0271,4.0387,4.0121,3.9986,3.9901,3.9901,4.0154,4.0497,4.0819,4.1255,4.1604,4.1604,4.1727,4.1885,4.2026,4.3044,4.3904,4.3904,4.3412,4.3026,4.3026,4.2342,4.1832,4.1832,4.1962,4.2239,4.2657,4.2696,4.2847,4.3248,4.2996,4.281,4.281,4.281,4.281,4.281,4.3105,4.3141,4.281,4.2716,4.2637,4.2458,4.1788,4.1426,4.138,4.1215,4.1093,0.0,0.0,0.0,3.5418,0.0,0.0,0.0,3.7305,3.8116,3.8723,3.9527,4.0062,3.9908,3.9888,3.9888,3.9888,3.9675,3.9505,3.9552,3.9287,3.9101,3.9101,3.9229,3.9346,3.9373,3.9495,3.9552,3.9596,3.9952,4.0553,4.136,4.183,4.2243,4.2637,4.3463,4.3708,4.3311,4.3573,4.3511,4.3105,4.2957,4.2882,4.2882,4.2882,4.2882,4.2882,4.2709,4.2552,4.2409,4.2061,4.2086,4.2257,4.164,4.1293,4.115,4.0767,4.04,4.0137,3.9986,3.9849,3.9781,3.9729,3.9781,3.9952,4.0087,4.0087,4.0104,4.0037,3.9798,3.9642,3.9849,4.0154,4.0497,4.0913,4.1318,4.1604,4.1604,4.1604,4.1604,4.1604,4.2219,4.2745,4.2745,4.2447,4.2201,4.2201,4.1868,4.1675,4.1856,4.1899,4.2198,4.3032,4.2734,4.2847,4.3627,4.3141,4.2885,4.3105,4.3105,4.3105,4.3105,4.3474,4.3508,4.3105,4.3105,4.2996,4.2752,4.2221,4.1821,4.1525,4.1272,4.1198,0.0,0.0,0.0,0.0,0.0,3.5789,0.0,0.0,0.0,3.8723,3.9508,4.0081,4.0081,4.0081,4.0024,3.9852,3.9751,3.9724,3.9814,3.9509,3.9268,3.9268,3.9227,3.9264,3.9458,3.9533,3.9583,3.9602,3.965,3.9914,4.0534,4.0722,4.1098,4.1755,4.2546,4.2837,4.2479,4.3092,4.3226,4.2882,4.2882,4.2882,4.2882,4.2862,4.2844,4.29,4.2472,4.2409,4.249,4.1849,4.1525,4.1428,4.1265,4.0849,4.0351,4.04,4.0087,3.9677,3.9798,3.9798,3.9729,3.9729,3.9833,4.0037,4.0037,4.0037,4.0003,4.0037,3.9729,3.952,3.9935,4.0286,4.0611,4.1024,4.1363,4.1604,4.1648,4.1648,4.1604,4.1648,4.1648,4.1604,4.1604,4.1604,4.1604,4.1604,4.1604,4.1719,4.205,4.1941,4.2198,4.3177,4.2847,4.2959,4.3923,4.3318,4.3105,4.3474,4.344,4.344,4.3508,4.3809,4.386,4.3508,4.3526,4.3336,4.2996,4.2829,4.2386,4.1753,4.1534,4.1401,0.0,0.0,0.0,0.0,3.5698,0.0,0.0,0.0,3.8395,3.9232,0.0,4.07,4.07,0.0,0.0,3.9676,3.9961,4.0041,3.9307,3.9582,3.9909,3.9909,3.9462,3.9331,3.9728,3.9835,3.9788,3.9602,3.9762,3.9845,3.9733,4.0403,4.0835,4.0929,4.1548,4.2084,4.2479,4.2356,4.2484,4.2882,4.2882,4.2882,4.2882,4.2709,4.2747,4.29,4.2472,4.2328,4.2287,4.1657,4.1082,4.0546,4.0546,4.0383,4.0186,3.9764,3.959,3.9537,3.9554,3.9694,3.9849,3.9729,4.002,4.0387,4.0054,4.0104,4.0188,3.9833,3.9884,4.007,4.0434,4.0724,4.1024,4.1453,4.156,4.1648,4.1849,4.1736,4.1648,4.1849,4.1719,4.1604,4.1604,4.1604,4.1604,4.1604,4.1604,4.1604,4.1675,4.2239,4.2734,4.2829,4.344,4.3841,4.4005,4.3594,4.3508,4.3923,4.3594,4.356,4.3923,4.3974,4.3974,4.3923,4.3923,4.386,4.3781,4.3458,4.2829,4.1881,4.208,4.176,0.0,0.0,0.0,0.0,0.0,0.0,3.7591,0.0,3.905,0.0,0.0,0.0,0.0,0.0,0.0,0.0,4.0342,4.0323,4.0114,4.0038,3.9986,3.9948,3.9785,3.9697,3.9797,3.9859,3.981,3.9626,3.9807,3.981,3.9602,3.9915,4.0084,4.0084,4.0643,4.0996,4.1095,4.1295,4.1665,4.2212,4.2212,4.2372,4.2709,4.2747,4.2709,4.2552,4.2369,4.2103,4.1744,4.1346,4.0724,4.0104,4.0104,3.9952,3.9696,3.9625,3.9642,3.9642,3.9642,3.9781,3.9986,3.9935,4.0138,4.0337,4.0087,4.0087,4.0138,3.9884,4.002,4.0336,4.0514,4.0913,4.1346,4.1675,4.1762,4.1849,4.2061,4.2079,4.1995,4.1917,4.1849,4.1719,4.1604,4.1604,4.1604,4.1604,4.1604,4.1744,4.2239,4.24,4.2734,4.3406,4.3371,4.3474,4.3955,4.3406,4.3141,4.3283,4.3141,4.3336,4.3955,4.3777,4.366,4.366,4.344,4.3301,4.3266,4.3105,4.2678,4.1948,4.2015,4.2074,3.8459,0.0,0.0,0.0,0.0,0.0,0.0,0.0,0.0,0.0,0.0,0.0,0.0,0.0,4.0713,4.0481,0.0,4.0494,4.0466,4.0351,4.0233,4.0185,4.0185,4.0098,3.9906,4.0005,3.9983,3.9689,3.9878,3.9859,3.9602,3.9602,3.9602,3.9602,3.9842,4.0028,4.0099,4.0368,4.0793,4.1379,4.1578,4.1901,4.2286,4.26,4.2591,4.2287,4.2163,4.1849,4.1391,4.1007,4.0451,3.9901,3.9798,3.9537,3.9325,3.9537,3.9573,3.9573,3.9573,3.9781,3.9969,4.0087,4.0188,4.0238,4.0138,4.007,4.0087,3.9986,4.0271,4.058,4.0645,4.11,4.1613,4.1831,4.1977,4.2061,4.2328,4.2328,4.2246,4.2061,4.1977,4.1849,4.1648,4.1604,4.1604,4.1604,4.1675,4.1984,4.258,4.258,4.2867,4.3744,4.3406,4.3371,4.3955,4.3353,4.2941,4.2941,4.3069,4.3406,4.3974,4.3744,4.3508,4.3406,4.3105,4.2922,4.281,4.281,4.258,4.2198,4.2115,4.2216,0.0,0.0,0.0,3.8433,0.0,0.0,0.0,0.0,3.9735,0.0,0.0,0.0,0.0,4.079,4.052,3.9681,4.0239,0.0,0.0,4.0344,4.0869,4.0869,4.0711,4.0434,4.0116,4.0389,4.0377,3.9922,4.0081,4.0024,3.9626,3.9602,3.9602,3.9602,3.9184,3.9316,4.008,3.9659,3.9804,4.0564,4.1343,4.1612,4.1477,4.2051,4.2328,4.2287,4.1823,4.1542,4.1328,4.0689,4.0187,3.9849,3.9484,3.9325,3.9272,3.9325,3.9325,3.9325,3.9325,3.9484,3.9781,4.0037,4.007,4.0138,4.007,4.007,4.007,4.007,4.0485,4.0871,4.0871,4.1408,4.1892,4.1892,4.2103,4.2328,4.257,4.245,4.2287,4.2287,4.2061,4.1849,4.1648,4.1604,4.1604,4.1604,4.1941,4.2198,4.2198,4.2885,4.3371,4.3406,4.3744,4.3955,4.4005,4.3627,4.3371,4.3371,4.3744,4.3955,4.4005,4.4005,4.3809,4.3406,4.3406,4.3177,4.281,4.281,4.2752,4.2673,4.2673,4.2151,0.0,0.0,3.9565,3.9733,0.0,0.0,0.0,0.0,0.0,0.0,0.0,0.0,0.0,4.0803,4.0706,4.0409,4.061,4.0721,0.0,4.0714,4.0907,4.0907,4.0687,4.0521,4.0453,4.0369,4.0206,3.9922,3.9964,3.988,3.9602,3.9602,3.9527,3.9335,3.9064,3.8932,3.9038,3.874,3.892,3.959,3.986,4.0053,4.0246,4.1087,4.1339,4.1142,4.1594,4.1418,4.0737,4.0497,4.0037,3.9484,3.9325,3.9272,3.9325,3.9379,3.9432,3.9448,3.9642,3.9746,3.9833,4.0037,4.0037,3.9986,4.007,4.0037,4.0037,4.0434,4.0943,4.1311,4.1363,4.1849,4.231,4.2205,4.2328,4.2552,4.2747,4.2747,4.2631,4.2369,4.2246,4.2019,4.1648,4.1831,4.1984,4.1984,4.2133,4.2382,4.2922,4.3212,4.3508,4.3777,4.3923,4.4005,4.4005,4.3627,4.3508,4.3777,4.366,4.3726,4.4005,4.3744,4.3542,4.3406,4.3141,4.2792,4.2382,4.2382,4.2239,4.1959,4.1959,4.2019,3.9829,3.9762,0.0,4.0202,4.0185,0.0,4.0642,0.0,0.0,0.0,0.0,0.0,0.0,0.0,4.0796,4.0788,4.0804,4.0818,0.0,4.0898,4.0907,4.0907,4.0754,4.0636,4.0604,4.0524,4.0354,4.0063,4.0043,3.9944,3.9721,3.9564,3.9362,3.921,3.8902,3.8664,3.851,3.8289,3.8411,3.8779,3.8996,3.9153,3.9309,4.0188,4.0559,4.0541,4.1145,4.1021,4.04,4.04,3.9986,3.9272,3.9272,3.9272,3.9325,3.9379,3.9448,3.9501,3.9746,3.9849,3.9833,4.0037,4.0037,3.9986,4.007,4.0037,4.0087,4.0611,4.1065,4.1428,4.1657,4.2103,4.249,4.2409,4.245,4.257,4.2844,4.2844,4.2709,4.2369,4.2287,4.2205,4.1874,4.2008,4.2198,4.2198,4.2422,4.2792,4.3318,4.3508,4.3693,4.3955,4.4005,4.4005,4.4005,4.3777,4.3726,4.3986,4.3744,4.3744,4.4005,4.3744,4.356,4.3406,4.3141,4.2716,4.2198,4.2198,4.1984,4.1604,4.1604,4.1805]},{"header":{"parameterUnit":"m.s-1","parameterCategory":1,"la1":30.6,"la2":29.2853,"lo1":-89.7004,"lo2":-87.6739,"dy":0.0162,"dx":0.0183,"nx":112,"ny":82,"refTime":"2023-08-25T12:00:00:Z","depth":0,"parameterNumber":3,"parameterNumberName":"V-component_of_WINDS"},"data":[0.0,0.0,0.0,0.0,0.0,0.0,0.0,0.0,0.0,0.0,0.0,0.0,0.0,0.0,0.0,0.0,0.0,0.0,0.0,0.0,0.0,0.0,0.0,0.0,0.0,0.0,0.0,0.0,0.0,0.0,0.0,0.0,0.0,0.0,0.0,0.0,0.0,0.0,0.0,0.0,0.0,0.0,0.0,0.0,0.0,0.0,0.0,0.0,0.0,0.0,0.0,0.0,0.0,0.0,0.0,0.0,0.0,0.0,0.0,0.0,0.0,0.0,0.0,0.0,0.0,0.0,0.0,0.0,0.0,0.0,0.0,0.0,0.0,0.0,0.0,0.0,0.0,0.0,0.0,0.0,0.0,0.0,0.0,0.0,0.0,0.0,0.0,0.0,0.0,0.0,0.3882,0.5425,0.6354,0.6881,0.6881,0.7265,0.733,0.6946,0.0,0.0,0.0,0.0,0.0,0.0,0.0,0.0,0.0,0.0,0.0,0.0,0.0,0.0,0.0,0.0,0.0,0.0,0.0,0.0,0.0,0.0,0.0,0.0,0.0,0.0,0.0,0.0,0.0,0.0,0.0,0.0,0.0,0.0,0.0,0.0,0.0,0.0,0.0,0.0,0.0,0.0,0.0,0.0,0.0,0.0,0.0,0.0,0.0,0.0,0.0,0.0,0.0,0.0,0.0,0.0,0.0,0.0,0.0,0.0,0.0,0.0,0.0,0.0,0.0,0.0,0.0,0.0,0.0,0.0,0.0,0.0,0.0,0.0,0.0,0.0,0.0,0.0,0.0,0.0,0.0,0.0,0.0,0.0,0.0,0.0,0.0,0.0,0.0,0.0,0.0,0.0,0.0,0.0,0.0,0.0,0.0,0.0,0.0,0.0,0.0,0.0,0.0,0.0,0.5481,0.6152,0.6618,0.6881,0.6881,0.7265,0.733,0.6946,0.0,0.0,0.0,0.0,0.0,0.0,0.0,0.0,0.0,0.0,0.0,0.0,0.0,0.0,0.0,0.0,0.0,0.0,0.0,0.0,0.0,0.0,0.0,0.0,0.0,0.0,0.0,0.0,0.0,0.0,0.0,0.0,0.0,0.0,0.0,0.0,0.0,0.0,0.0,0.0,0.0,0.0,0.0,0.0,0.0,0.0,0.0,0.0,0.0,0.0,0.0,0.0,0.0,0.0,0.0,0.0,0.0,0.0,0.0,0.0,0.0,0.0,0.0,0.0,0.0,0.0,0.0,0.0,0.0,0.0,0.0,0.0,0.0,0.0,0.0,0.0,0.0,0.0,0.0,0.0,0.0,0.0,0.0,0.0,0.0,0.0,0.0,0.0,0.0,0.0,0.0,0.0,0.0,0.0,0.0,0.0,0.0,0.0,0.0,0.0,0.0,0.0,0.0,0.5359,0.5752,0.635,0.6683,0.6881,0.6881,0.7461,0.7531,0.6946,0.7053,0.0,0.0,0.0,0.0,0.0,0.0,0.0,0.0,0.0,0.0,0.0,0.0,0.0,0.0,0.0,0.0,0.0,0.0,0.0,0.0,0.0,0.0,0.0,0.0,0.0,0.0,0.0,0.0,0.0,0.0,0.0,0.0,0.0,0.0,0.0,0.0,0.0,0.0,0.0,0.0,0.0,0.0,0.0,0.0,0.0,0.0,0.0,0.0,0.0,0.0,0.0,0.0,0.0,0.0,0.0,0.0,0.0,0.0,0.0,0.0,0.0,0.0,0.0,0.0,0.0,0.0,0.0,0.0,0.0,0.0,0.0,0.0,0.0,0.0,0.0,0.0,0.0,0.0,0.0,0.0,0.0,0.0,0.0,0.0,0.0,0.0,0.0,0.0,0.0,0.0,0.0,0.0,0.0,0.0,0.0,0.0,0.0,0.0,0.0,0.0,0.0,0.0,0.5422,0.5822,0.635,0.6683,0.6881,0.6881,0.7531,0.7596,0.6946,0.7199,0.0,0.0,0.0,0.0,0.0,0.0,0.0,0.0,0.0,0.0,0.0,0.0,0.0,0.0,0.0,0.0,0.0,0.0,0.0,0.0,0.0,0.0,0.0,0.0,0.0,0.0,0.0,0.0,0.0,0.0,0.0,0.0,0.0,0.0,0.0,0.0,0.0,0.0,0.0,0.0,0.0,0.0,0.0,0.0,0.0,0.0,0.0,0.0,0.0,0.0,0.0,0.0,0.0,0.0,0.0,0.0,0.0,0.0,0.0,0.0,0.0,0.0,0.0,0.0,0.0,0.0,0.0,0.0,0.0,0.0,0.0,0.0,0.0,0.0,0.0,0.0,0.0,0.0,0.0,0.0,0.0,0.0,0.0,0.0,0.0,0.0,0.0,0.0,0.0,0.0,0.0,0.0,0.0,0.0,0.0,0.0,0.0,0.0,0.0,0.0,0.0,0.0,0.6086,0.6354,0.642,0.6683,0.6881,0.6881,0.7265,0.733,0.6946,0.6946,0.0,0.0,0.0,0.0,0.0,0.0,0.0,0.0,0.0,0.0,0.0,0.0,0.0,0.0,0.0,0.0,0.0,0.0,0.0,0.0,0.0,0.0,0.0,0.0,0.0,0.0,0.0,0.0,0.0,0.0,0.0,0.0,0.0,0.0,0.0,0.0,0.0,0.0,0.0,0.0,0.0,0.0,0.0,0.0,0.0,0.0,0.0,0.0,0.0,0.0,0.0,0.0,0.0,0.0,0.0,0.0,0.0,0.0,0.0,0.0,0.0,0.0,0.0,0.0,0.0,0.0,0.0,0.0,0.0,0.0,0.0,0.0,0.0,0.0,0.0,0.0,0.0,0.0,0.0,0.0,0.0,0.0,0.0,0.0,0.0,0.0,0.0,0.0,0.0,0.0,0.0,0.0,0.0,0.0,0.0,0.0,0.0,0.0,0.0,0.0,0.0,0.0,0.6152,0.6412,0.0,0.6815,0.7012,0.7265,0.7396,0.733,0.6946,0.0,0.0,0.0,0.0,0.0,0.0,0.0,0.0,0.0,0.0,0.0,0.0,0.0,0.0,0.0,0.0,0.0,0.0,0.0,0.0,0.0,0.0,0.0,0.0,0.0,0.0,0.0,0.0,0.0,0.0,0.0,0.0,0.0,0.0,0.0,0.0,0.0,0.0,0.0,0.0,0.0,0.0,0.0,0.0,0.0,0.0,0.0,0.0,0.0,0.0,0.0,0.0,0.0,0.0,0.0,0.0,0.0,0.0,0.0,0.0,0.0,0.0,0.0,0.0,0.0,0.0,0.0,0.0,0.0,0.0,0.0,0.0,0.0,0.0,0.0,0.0,0.0,0.0,0.0,0.0,0.0,0.0,0.0,0.0,0.0,0.0,0.0,0.0,0.0,0.0,0.0,0.0,0.0,0.0,0.0,0.0,0.0,0.0,0.0,0.0,0.0,0.0,0.5892,0.6086,0.6412,0.0,0.6749,0.6876,0.7134,0.7134,0.7134,0.7073,0.0,0.0,0.0,0.0,0.0,0.0,0.0,0.0,0.0,0.0,0.0,0.0,0.0,0.0,0.0,0.0,0.0,0.0,0.0,0.0,0.0,0.0,0.0,0.0,0.0,0.0,0.0,0.0,0.0,0.0,0.0,0.0,0.0,0.0,0.0,0.0,0.0,0.0,0.0,0.0,0.0,0.0,0.0,0.0,0.0,0.0,0.0,0.0,0.0,0.0,0.0,0.0,0.0,0.0,0.0,0.0,0.0,0.0,0.0,0.0,0.0,0.0,0.0,0.0,0.0,0.0,0.0,0.0,0.0,0.0,0.0,0.0,0.0,0.0,0.0,0.0,0.0,0.0,0.0,0.0,0.0,0.0,0.0,0.0,0.0,0.0,0.0,0.0,0.0,0.0,0.0,0.0,0.0,0.0,0.0,0.0,0.0,0.0,0.0,0.0,0.0,0.0,0.5888,0.6218,0.642,0.642,0.642,0.642,0.6416,0.6416,0.6745,0.0,0.0,0.0,0.0,0.0,0.0,0.0,0.0,0.0,0.0,0.0,0.0,0.0,0.0,0.0,0.0,0.0,0.0,0.0,0.0,0.0,0.0,0.0,0.0,0.0,0.0,0.0,0.0,0.0,0.0,0.0,0.0,0.0,0.0,0.0,0.0,0.0,0.0,0.0,0.0,0.0,0.0,0.0,0.0,0.0,0.0,0.0,0.0,0.0,0.0,0.0,0.0,0.0,0.0,0.0,0.0,0.0,0.0,0.0,0.0,0.0,0.0,0.0,0.0,0.0,0.0,0.0,0.0,0.0,0.0,0.0,0.0,0.0,0.0,0.0,0.0,0.0,0.0,0.0,0.0,0.0,0.0,0.0,0.0,0.0,0.0,0.0,0.0,0.0,0.0,0.0,0.0,0.0,0.0,0.0,0.0,0.0,0.0,0.0,0.0,0.0,0.0,0.0,0.5888,0.6218,0.6486,0.6749,0.6749,0.7068,0.7842,0.7652,0.7852,0.8495,0.0,0.0,0.0,0.0,0.0,0.0,0.0,0.0,0.0,0.0,0.0,0.0,0.0,0.0,0.0,0.0,0.0,0.0,0.0,0.0,0.0,0.0,0.0,0.0,0.0,0.0,0.0,0.0,0.0,0.0,0.0,0.0,0.0,0.0,0.0,0.0,0.0,0.0,0.0,0.0,0.0,0.0,0.0,0.0,0.0,0.0,0.0,0.0,0.0,0.0,0.0,0.0,0.0,0.0,0.0,0.0,0.0,0.0,0.0,0.0,0.0,0.0,0.0,0.0,0.0,0.0,0.0,0.0,0.0,0.0,0.0,0.0,0.0,0.0,0.0,0.0,0.0,0.0,0.0,0.0,0.0,0.0,0.0,0.0,0.0,0.0,0.0,0.0,0.0,0.0,0.0,0.0,0.0,0.0,0.0,0.0,0.0,0.0,0.0,0.0,0.0,0.0,0.5888,0.6218,0.6613,0.7073,0.7138,0.7526,0.8425,0.8301,0.8495,0.9139,0.0,0.0,0.0,0.0,0.0,0.0,0.0,0.0,0.0,0.0,0.0,0.0,0.0,0.0,0.0,0.0,0.0,0.0,0.0,0.0,0.0,0.0,0.0,0.0,0.0,0.0,0.0,0.0,0.0,0.0,0.0,0.0,0.0,0.0,0.0,0.0,0.0,0.0,0.0,0.0,0.0,0.0,0.0,0.0,0.0,0.0,0.0,0.0,0.0,0.0,0.0,0.0,0.0,0.0,0.0,0.0,0.0,0.0,0.0,0.0,0.0,0.0,0.0,0.0,0.0,0.0,0.0,0.0,0.0,0.0,0.0,0.0,0.0,0.0,0.0,0.0,0.0,0.0,0.0,0.0,0.0,0.0,0.0,0.0,0.0,0.0,0.0,0.0,0.0,0.0,0.0,0.0,0.0,0.0,0.0,0.0,0.0,0.0,0.0,0.0,0.0,0.0,0.6066,0.6336,0.6862,0.7579,0.7644,0.7967,0.8619,0.8685,0.8933,0.9618,0.0,0.0,0.0,0.0,0.0,0.0,0.0,0.0,0.0,0.0,0.0,0.0,0.0,0.0,0.0,0.0,0.0,0.0,0.0,0.0,0.0,0.0,0.0,0.0,0.0,0.0,0.0,0.0,0.0,0.0,0.0,0.0,0.0,0.0,0.0,0.0,0.0,0.0,0.0,0.0,0.0,0.0,0.0,0.0,0.0,0.0,0.0,0.0,0.0,0.0,0.0,0.0,0.0,0.0,0.0,0.0,0.0,0.0,0.0,0.0,0.1145,-0.0,0.0,0.0,0.0,0.0,0.0,0.0,0.0,0.0,0.0,0.0,0.0,0.0,0.0,0.0,0.0,0.0,0.0,0.0,0.0,0.0,0.0,0.0,0.0,0.0,0.0,0.0,0.0,0.0,0.0,0.0,0.0,0.0,0.0,0.0,0.0,0.0,0.0,0.0,0.0,0.0,0.7159,0.7599,0.8087,0.8907,0.8975,0.9251,0.9935,1.0003,1.019,1.0647,1.0699,0.0,0.0,0.0,0.0,0.0,0.0,0.0,0.0,0.0,0.0,0.0,0.0,0.0,0.0,0.0,0.0,0.0,0.0,0.0,0.0,0.0,0.0,0.0,0.0,0.0,0.0,0.0,0.0,0.0,0.0,0.0,0.0,0.0,0.0,0.0,0.0,0.0,0.0,0.0,0.0,0.0,0.0,0.0,0.0,0.0,0.0,0.0,0.0,0.0,0.0,0.0,0.0,0.0,0.0,0.0,0.0,0.0,0.0,0.0,0.2928,0.1327,0.0,0.0,0.0,0.0,0.0,0.0,0.0,0.0,0.0,0.0,0.0,0.0,0.0,0.0,0.0,0.0,0.0,0.0,0.0,0.0,0.0,0.0,0.0,0.0,0.0,0.0,0.0,0.0,0.0,0.0,0.0,0.0,0.0,0.0,0.0,0.0,0.0,0.0,0.0,0.0,0.8197,0.8569,0.906,0.9823,0.9892,1.017,1.0798,1.0867,1.0947,1.1209,1.1202,0.0,0.0,0.0,0.0,0.0,0.0,0.0,0.0,0.0,0.0,0.0,0.0,0.0,0.0,0.0,0.0,0.0,0.0,0.0,0.0,0.0,0.0,0.0,0.0,0.0,0.0,0.0,0.0,0.0,0.0,0.0,0.0,0.0,0.0,0.0,0.0,0.0,0.0,0.0,0.0,0.0,0.0,0.0,0.0,0.0,0.0,0.0,0.0,0.0,0.0,0.0,0.0,0.0,0.5067,0.6066,0.7733,0.7894,0.7977,0.7717,0.5008,0.3475,0.2857,0.2712,0.0,0.0,0.0,0.0,0.0,0.0,0.0,0.0,0.0,0.0,0.0,0.0,0.0,0.0,0.0,0.0,0.0,0.0,0.0,0.0,0.0,0.0,0.2237,0.3673,0.4414,0.454,0.354,0.0,0.0,0.0,0.0,0.0,0.0,0.0,0.0,0.0,0.0,0.0,0.9237,0.9602,0.9955,1.0658,1.0728,1.0944,1.1507,1.1577,1.1557,1.151,1.1503,1.1476,0.0,0.0,0.0,0.0,0.0,0.0,0.0,0.0,0.0,0.0,0.0,0.0,0.0,0.0,0.0,0.0,0.0,0.0,0.0,0.0,0.0,0.0,0.0,0.0,0.0,0.0,0.0,0.0,0.0,0.0,0.0,0.0,0.192,0.1061,0.0,0.0,0.0,0.0,0.0,0.0,0.0,0.0,0.0,0.0,0.0,0.0,0.0,0.5284,0.663,0.5991,0.5408,0.4948,0.5852,0.6443,0.6713,0.7624,0.78,0.7476,0.7008,0.0,0.5579,0.3691,0.0,0.0,0.0,0.0,0.0,0.0,0.0,0.0,0.0,0.0,0.0,0.0,0.0,0.0,0.0,0.0,0.0,0.0,0.0,0.0,0.0,0.0,0.1747,0.4222,0.4947,0.5101,0.5151,0.5011,0.4963,0.5225,0.5532,0.0,0.0,0.0,0.0,0.0,0.0,0.0,1.0438,1.0775,1.115,1.1965,1.2038,1.2111,1.2184,1.2184,1.2078,1.183,1.181,1.1627,1.1237,1.0985,0.0,0.0,0.0,0.0,0.0,0.0,0.0,0.0,0.0,0.0,0.0,0.0,0.0,0.0,0.0,0.0,0.0,0.0,0.0,0.0,0.0,0.0,0.0,0.0,0.0,0.0,0.0,0.0,0.0,0.2064,0.3311,0.3511,0.2269,0.1313,0.0,0.0,0.0,0.0,0.0,0.0,0.0,0.0,0.0,0.6687,0.612,0.6134,0.6756,0.7004,0.708,0.6807,0.7319,0.7539,0.7718,0.815,0.8239,0.8076,0.7815,0.7472,0.6943,0.5568,0.4386,0.3235,0.0,0.0,0.0,0.0,0.052,0.0444,0.0144,0.0071,0.0,-0.014,0.0,0.0,0.0,0.0,0.0,0.0,0.0,-0.0873,0.0798,0.1796,0.2788,0.4568,0.5188,0.5393,0.5606,0.5729,0.5751,0.5738,0.5878,0.6262,0.7074,0.0,0.0,0.0,0.0,1.0438,1.1527,1.17,1.1929,1.2224,1.2305,1.2305,1.2305,1.2305,1.2245,1.2124,1.2111,1.2058,1.1859,1.134,1.1115,0.0,0.0,0.0,0.0,0.0,0.0,0.0,0.0,0.0,0.0,0.0,0.0,0.0,0.0,0.0,0.0,0.0,0.0,0.0,0.0,0.0,0.0,0.0,0.0,0.0,0.0,0.0,0.0,0.1899,0.4193,0.5041,0.3613,0.2355,0.0,0.0,0.0,0.0,0.0,0.0,0.6685,0.7058,0.7365,0.757,0.7432,0.7424,0.7545,0.8225,0.8556,0.8529,0.8529,0.8603,0.8568,0.8568,0.8568,0.8388,0.8032,0.7694,0.7393,0.6915,0.5904,0.4603,0.4114,0.3433,0.2686,0.22,0.2016,0.2005,0.1635,0.1541,0.1463,0.1291,0.1211,0.1216,0.1313,0.0,0.0,0.0,0.0,0.0453,0.1657,0.2773,0.3887,0.5052,0.5489,0.5796,0.6311,0.654,0.6689,0.6537,0.6649,0.7049,0.8134,0.0,0.0,0.0,0.0,1.1391,1.2224,1.2305,1.2305,1.2305,1.2305,1.2305,1.2305,1.2305,1.2305,1.2305,1.2231,1.2231,1.2231,1.1655,1.1329,1.1329,0.0,0.0,0.0,0.0,0.0,0.0,0.0,0.0,0.0,0.0,0.0,0.0,0.0,0.0,0.0,0.0,0.0,0.0,0.0,0.0,0.0,0.0,0.0,0.0,0.0,0.0,0.0,0.0,0.0,0.4359,0.3993,0.0,0.0,0.0,0.0,0.4398,0.556,0.6719,0.7827,0.7902,0.8139,0.8729,0.9274,0.9809,1.0423,1.0086,0.9666,0.9244,0.9244,0.899,0.8568,0.8568,0.8388,0.7944,0.7944,0.758,0.7119,0.708,0.6936,0.6466,0.4606,0.3851,0.3682,0.242,0.1918,0.1917,0.166,0.1575,0.1575,0.1573,0.1573,0.1573,0.1575,0.1577,0.0,0.0,0.1827,0.2242,0.3656,0.4005,0.4366,0.5955,0.6222,0.6481,0.776,0.7986,0.7886,0.7714,0.8053,0.8727,1.0093,0.0,1.0944,1.1781,1.1929,1.2003,1.2305,1.2305,1.2305,1.2305,1.2305,1.2305,1.2305,1.2305,1.2305,1.2305,1.215,1.2003,1.2003,1.162,1.1385,1.1385,1.1156,0.0,0.0,0.0,0.0,0.0,0.0,0.0,0.0,0.0,0.0,0.0,0.0,0.0,0.0,0.0,0.0,0.0,0.0,0.0,0.0,0.0,0.0,0.0,0.0,0.0,0.0,0.0,0.0,0.4795,0.5163,0.0,0.4428,0.5603,0.6387,0.6194,0.7228,0.807,0.851,0.9212,0.9633,0.9671,0.9596,0.9607,0.9626,0.9449,0.9357,0.9179,0.9179,0.9088,0.8909,0.8909,0.8718,0.844,0.8257,0.7924,0.7462,0.7331,0.6953,0.6467,0.5597,0.5249,0.4981,0.4392,0.416,0.4091,0.3889,0.373,0.3673,0.3617,0.3635,0.3526,0.2741,0.256,0.2538,0.1802,0.2808,0.4165,0.4668,0.6125,0.75,0.8065,0.8281,0.8414,0.8887,0.9085,0.9332,0.9974,0.9566,0.9518,1.0501,1.0881,1.1186,1.1929,1.2077,1.2231,1.2298,1.2305,1.2305,1.2305,1.2305,1.2305,1.2305,1.2305,1.2519,1.3025,1.2365,1.2218,1.2732,1.1922,1.1409,1.1409,1.1186,1.0995,0.0,0.0,0.0,0.0,0.0,0.0,0.0,0.0,0.0,0.0,0.0,0.0,0.0,0.0,0.0,0.0,0.0,0.0,0.0,0.0,0.0,0.0,0.0,0.0,0.0,0.5396,0.5481,0.5345,0.6067,0.641,0.5811,0.7257,0.833,0.8373,0.9244,0.9852,0.9923,1.0509,1.0845,1.082,1.0362,1.0154,1.0111,0.9926,0.9744,0.9558,0.9465,0.9283,0.9096,0.9096,0.8905,0.8524,0.8337,0.8091,0.7629,0.7444,0.7109,0.6647,0.629,0.6083,0.5811,0.564,0.5561,0.5469,0.5314,0.5205,0.5124,0.5045,0.5045,0.4917,0.4121,0.3945,0.3848,0.303,0.4292,0.5924,0.6136,0.7737,0.9353,0.9424,0.9521,0.9683,1.002,1.029,1.0724,1.1711,1.1044,1.0528,1.1459,1.1694,1.1923,1.2227,1.2454,1.2605,1.253,1.2536,1.2605,1.2605,1.253,1.2496,1.2397,1.2309,1.256,1.3258,1.2592,1.2445,1.2952,1.2144,1.1602,1.1476,1.1332,1.1057,1.0812,0.0,0.0,0.0,0.0,0.0,0.0,0.0,0.0,0.0,0.0,0.0,0.0,0.0,0.0,0.0,0.0,0.0,0.0,0.0,0.0,0.0,0.0,0.0,0.8104,0.685,0.5729,0.6093,0.6864,0.7337,0.7488,0.8353,0.9547,1.0959,1.1531,1.1901,1.2124,1.1676,1.1589,1.2151,1.1594,1.16,1.207,1.1513,1.1051,1.0594,1.0036,0.9575,0.9116,0.9112,0.8828,0.8352,0.8352,0.8074,0.7607,0.7315,0.7218,0.7092,0.6632,0.626,0.6088,0.5822,0.573,0.5727,0.5725,0.5722,0.5722,0.5722,0.5643,0.5459,0.5459,0.5464,0.5457,0.5713,0.6539,0.7481,0.7985,0.8865,0.9667,0.9962,1.0005,1.0265,1.1144,1.1472,1.1887,1.2826,1.227,1.2,1.3048,1.3206,1.3127,1.2969,1.3048,0.0,1.2889,1.3048,1.3213,1.3206,1.3048,1.2779,1.2505,1.2241,1.2342,1.2875,1.27,1.262,1.2613,1.2392,1.2003,1.1516,1.1516,1.123,1.0812,0.0,0.0,0.0,0.0,0.0,0.0,0.0,0.0,0.0,0.0,0.0,0.0,0.0,0.0,0.0,0.0,0.0,0.0,0.0,0.0,0.0,0.6777,0.7415,0.7581,0.693,0.6753,0.7609,0.8577,0.9074,0.8996,1.0509,1.169,1.2095,1.2846,1.3423,1.3658,1.3568,1.3203,1.2664,1.2483,1.1905,1.0927,1.0734,1.0347,0.9867,0.9769,0.9579,0.9482,0.9287,0.8991,0.8691,0.8496,0.8143,0.7753,0.7465,0.7213,0.6917,0.6468,0.6315,0.6213,0.5855,0.5678,0.5589,0.5499,0.5469,0.5469,0.5469,0.5447,0.542,0.542,0.596,0.66,0.6603,0.8037,0.9524,0.9823,1.0578,1.145,1.1861,1.1787,1.1792,1.2231,1.2383,1.259,1.3193,1.3046,1.2953,1.32,1.3048,1.3048,1.3127,1.3127,1.3213,1.3134,1.3134,1.3134,1.2975,1.2889,1.2778,1.2536,1.245,1.272,1.341,1.2706,1.246,1.2852,1.217,1.1581,1.1226,1.1226,1.1039,0.0,0.0,0.0,0.0,0.0,0.0,0.0,0.0,0.0,0.0,0.0,0.0,0.0,0.0,0.0,0.0,0.0,0.0,0.0,0.0,0.0,0.0,0.8204,0.9087,0.8908,0.8354,0.841,0.9611,1.0522,1.0952,1.099,1.2277,1.3195,1.3262,1.3933,1.4355,1.4641,1.4278,1.3794,1.2914,1.2628,1.193,1.0703,1.0507,1.0216,0.992,0.9727,0.9628,0.9628,0.9331,0.9031,0.8825,0.8531,0.8185,0.7906,0.7619,0.7375,0.7087,0.0,0.0,0.0,0.0,0.573,0.5616,0.5545,0.5521,0.5521,0.5521,0.5488,0.5445,0.5445,0.6129,0.6905,0.6905,0.8489,1.0293,1.0459,1.1321,1.2212,1.2644,1.2584,1.2518,1.2674,1.279,1.293,1.3077,1.3136,0.0,1.2968,1.3067,1.3233,1.3233,1.3127,1.3094,1.3133,1.3152,1.3111,1.3153,1.2996,1.287,1.2588,1.2811,0.0,0.0,0.0,1.31,1.3003,1.2261,0.0,0.0,0.0,1.1318,1.1059,1.0946,0.0,0.0,1.0525,1.0513,0.0,0.0,0.0,0.0,0.0,0.0,0.0,0.0,0.0,0.0,0.0,0.0,0.0,0.0,0.0,0.0,0.9288,1.0314,1.1499,1.0776,1.055,1.1634,1.2243,1.2713,1.2962,1.3719,1.4207,1.4471,1.4782,1.4984,1.5235,1.4478,0.0,0.0,0.0,1.1765,1.1096,1.0609,1.0413,1.0314,0.9821,0.9628,0.9628,0.9331,0.9031,0.8825,0.8531,0.8237,0.7942,0.7643,0.7543,0.7419,0.6669,0.6283,0.6072,0.5964,0.585,0.5754,0.5754,0.0,0.0,0.5733,0.5659,0.5486,0.5486,0.6172,0.6822,0.6989,0.8478,1.0177,1.0538,1.1411,1.2379,1.2644,1.2681,1.2668,1.2699,1.2875,1.2983,1.2831,1.2781,1.2706,1.2711,1.3144,1.3431,1.3267,1.3052,1.2901,1.2984,1.3016,1.3112,1.3355,1.3212,0.0,1.2871,1.3444,1.3662,1.3312,1.3923,1.4009,1.322,1.2563,1.2161,1.1926,1.192,1.1805,1.1576,1.1323,1.1202,1.1202,1.0767,1.0663,0.0,0.0,0.0,0.0,0.0,0.0,0.0,0.0,0.0,0.0,0.0,0.0,0.0,0.0,0.0,0.9321,1.1086,1.2772,1.3716,1.3252,1.2595,1.1871,1.2569,1.3247,1.3408,1.4549,1.5325,1.553,1.5927,1.6236,1.6298,1.533,1.4472,1.3806,1.2732,1.1663,1.0609,1.0413,1.0216,0.9727,0.9628,0.0,0.9628,0.9126,0.8825,0.8726,0.8333,0.8038,0.7942,0.7437,0.7039,0.6623,0.6672,0.6458,0.6083,0.6059,0.5975,0.5871,0.5871,0.5809,0.5733,0.5733,0.5719,0.5697,0.5697,0.6292,0.0,0.7918,0.9216,1.052,1.1434,1.1893,1.2129,1.2644,1.2542,1.2445,1.2656,1.2705,1.2863,1.2983,1.3062,1.3043,1.3245,1.2826,1.2648,1.2894,1.2928,1.2909,1.2888,1.2894,1.3067,1.334,1.334,1.348,1.3987,1.4358,1.4545,1.4481,1.4093,1.3777,1.3615,1.2562,1.1974,1.192,1.192,1.1896,1.1848,1.1793,1.1769,1.1751,1.1241,1.1037,0.0,0.0,0.0,0.0,0.0,0.0,0.0,0.0,0.0,0.0,0.0,0.7008,0.7499,0.0,1.0669,1.0984,1.2638,1.4031,1.4628,1.4624,1.4292,1.3882,1.417,1.4542,1.4916,1.5511,1.5953,1.6197,1.6588,1.6784,1.6784,1.5622,1.4561,1.3511,1.2339,1.1179,1.0019,1.0019,0.9821,0.9628,0.9628,0.9529,0.943,0.9027,0.8726,0.8531,0.8137,0.8038,0.7942,0.7437,0.6939,0.6634,0.6572,0.6377,0.6179,0.6179,0.61,0.5994,0.5994,0.5958,0.5909,0.5909,0.5869,0.5817,0.5817,0.6754,0.7929,0.8544,0.9854,1.1338,1.2032,1.2275,1.2373,1.2674,1.2602,1.2542,1.2674,1.2705,1.2668,1.2704,1.2679,1.272,1.2667,1.2743,1.3008,1.3554,1.3525,1.3557,1.402,1.4041,1.4097,1.4413,1.4427,1.4508,1.4838,1.4976,1.5301,1.5701,1.4981,1.4578,1.4578,1.394,1.3614,1.3614,1.3541,1.3233,1.2762,1.2702,1.2399,1.1914,1.1642,1.1516,0.0,0.0,0.0,0.0,0.0,0.0,0.0,0.7477,0.7741,0.9082,0.9332,0.9393,0.9774,1.0952,1.2053,1.2376,1.3705,1.4776,1.5017,1.5389,1.567,1.5954,1.5763,1.5765,1.6197,1.6319,1.6407,1.6588,1.6588,1.6588,1.6501,1.5045,1.3788,1.2732,1.1565,1.0498,0.9628,0.9628,0.9628,0.9628,0.9529,0.943,0.9236,0.8829,0.8627,0.8432,0.8137,0.7939,0.7839,0.7338,0.7039,0.6742,0.6437,0.638,0.6301,0.6301,0.6225,0.6121,0.6121,0.6105,0.6086,0.6086,0.6018,0.5939,0.6213,0.7228,0.8468,0.9084,1.0499,1.1902,1.2284,1.2525,1.2685,1.2717,1.2705,1.2705,1.2705,1.2705,1.2644,1.2433,1.2468,1.2566,1.2351,1.3113,1.3874,1.4093,1.4122,1.4359,1.5091,1.5113,1.5065,1.542,1.545,1.5554,1.5786,1.5793,1.6144,1.6862,1.6131,1.5636,1.5636,1.5477,1.5365,1.5299,1.5109,1.4545,1.3784,1.3618,1.3107,1.2399,1.2399,1.224,0.5864,0.6414,0.745,0.7691,0.8462,0.9252,0.0,0.9352,0.9341,0.9864,0.9809,0.9784,1.0186,1.1337,1.2376,1.2346,1.4025,1.5311,1.5344,1.5792,1.617,1.6445,1.6264,1.6278,1.6494,1.6784,1.6784,1.6588,1.5717,1.5051,1.4586,1.2727,1.156,1.1463,1.0306,0.9723,0.9628,0.9628,0.9628,0.9628,0.9331,0.9236,0.9137,0.8634,0.8432,0.8432,0.8137,0.7739,0.7238,0.7238,0.6936,0.6437,0.6437,0.6429,0.6418,0.6418,0.6344,0.6246,0.6246,0.6179,0.6086,0.6086,0.6075,0.6253,0.7185,0.764,0.8184,0.9929,1.0755,1.1353,1.2154,1.2539,1.2657,1.2679,1.2705,1.2705,1.2705,1.2705,1.2693,1.2662,1.3243,1.382,1.3787,1.4684,1.5005,1.387,1.4301,1.4824,1.494,1.494,1.511,1.5599,1.5684,1.6121,1.7178,1.7291,1.7434,1.7844,1.7033,1.6535,1.6535,1.5801,1.5255,1.4874,1.4831,1.4605,1.4259,1.4223,1.4123,1.4045,1.4045,1.3265,0.8676,0.8695,0.8836,0.9717,1.0288,1.0706,1.0953,1.0979,1.1282,1.2247,1.2468,1.2514,1.2724,1.3404,1.4002,1.416,1.4852,1.5451,1.5625,1.5947,1.6218,1.6116,1.6218,1.6312,1.6581,1.6595,1.6211,1.5527,1.5045,1.4472,1.3613,1.2278,1.1458,1.1359,1.0382,0.9937,0.9937,0.9733,0.9631,0.9631,0.943,0.9176,0.8881,0.8675,0.8421,0.8137,0.7842,0.7643,0.7441,0.7141,0.6839,0.6639,0.6437,0.6437,0.6437,0.6437,0.6407,0.6366,0.6366,0.6333,0.6388,0.697,0.7109,0.7327,0.8372,0.9059,0.9625,1.0551,1.1385,1.2193,1.2648,1.2986,1.3141,1.3206,1.3061,1.2952,1.2952,1.2819,1.2869,1.3372,1.3711,1.4126,1.472,1.5621,1.6106,1.5506,1.5878,1.6277,1.6675,1.6675,1.6755,1.6992,1.7071,1.7217,1.7783,1.78,1.7869,1.8031,1.7619,1.7448,1.7448,1.7123,1.6806,1.6653,1.6653,1.6332,1.571,1.5438,1.5102,1.4619,1.4366,1.3974,0.9891,1.0033,1.0116,1.126,1.1999,1.2331,1.2499,1.265,1.2967,1.4025,1.4309,1.4429,1.4502,1.4763,1.5057,1.5351,1.5464,1.5585,1.5798,1.6028,1.613,1.5927,1.6123,1.6407,1.6494,1.6021,1.5635,1.5146,1.437,1.3727,1.3511,1.2103,1.1313,1.1572,1.0707,1.016,1.016,0.9951,0.9743,0.9743,0.9433,0.9057,0.8742,0.8635,0.8449,0.8102,0.7802,0.7582,0.7444,0.6945,0.6742,0.6739,0.6836,0.6853,0.698,0.7244,0.693,0.6437,0.6437,0.6634,0.693,0.7726,0.8143,0.8534,0.9598,1.0269,1.0909,1.1381,1.2138,1.2789,1.2998,1.3164,1.3421,1.3344,1.3279,1.323,1.323,1.3242,1.3502,1.4012,1.4501,1.5063,1.565,1.646,1.7033,1.7033,1.7204,1.7546,1.7951,1.804,1.804,1.804,1.804,1.804,1.804,1.804,1.804,1.804,1.804,1.804,1.804,1.804,1.7989,1.7877,1.7877,1.7498,1.6742,1.649,1.5968,1.5393,1.4851,1.4669,0.8183,0.9436,1.0679,1.1781,1.3281,1.4402,1.4402,1.4409,1.4422,1.4509,1.4289,1.4182,1.4469,1.4763,1.5057,1.5351,1.5631,1.5818,1.5832,1.6028,1.6224,1.6224,1.6407,1.6494,1.6224,1.5343,1.5146,1.6123,1.3403,1.2536,1.4562,1.1683,1.0569,1.1887,1.0772,1.016,1.016,1.016,1.006,0.9743,0.9433,0.9119,0.8905,0.8584,0.8397,0.8262,0.8051,0.7664,0.7238,0.6942,0.6642,0.6537,0.7528,0.8109,0.8418,0.9172,0.8219,0.6437,0.6437,0.7129,0.7922,0.8021,0.8711,0.9792,1.0867,1.1156,1.1448,1.2441,1.2737,1.2785,1.2842,1.2958,1.3071,1.3111,1.3326,1.3501,1.3501,1.4205,1.4816,1.4435,1.5933,1.7111,1.6754,1.7367,1.7959,1.7959,1.7951,1.7959,1.804,1.804,1.804,1.804,1.804,1.804,1.804,1.804,1.804,1.804,1.804,1.804,1.804,1.804,1.786,1.7492,1.7492,1.7312,1.6877,1.686,1.686,1.686,1.598,1.5581,0.9659,1.0948,1.2284,1.3433,1.4254,1.4816,1.4816,1.4663,1.4522,1.4522,1.3815,1.3237,1.333,1.3576,1.395,1.4223,1.5,1.5611,1.5798,1.6028,1.613,1.5927,1.6218,1.6218,1.5927,1.5832,1.5153,1.3992,1.3757,1.3001,1.1582,1.1447,1.1317,1.0966,1.0663,1.0405,1.0297,1.0085,0.9761,0.9544,0.9112,0.8849,0.8742,0.9159,0.9387,0.9235,0.882,0.8936,0.9187,0.737,0.7415,0.8517,0.812,0.845,0.9203,0.9658,0.9377,0.8758,0.8553,0.8715,0.9209,0.9895,1.0386,1.0881,1.1965,1.2262,1.2365,1.2662,1.2861,1.3033,1.2956,1.3318,1.3677,1.3596,1.4173,1.4767,1.4767,1.5424,1.6132,1.6533,1.704,1.7451,1.7913,1.795,1.804,1.804,1.804,1.804,1.804,1.804,1.804,1.804,1.804,1.804,1.804,1.804,1.804,1.804,1.804,1.804,1.804,1.804,1.798,1.7843,1.7843,1.7783,1.7655,1.7406,1.7287,1.7278,1.6716,1.6446,1.1075,1.2123,1.3191,1.4379,1.4897,1.509,1.499,1.4816,1.4649,1.4543,1.3536,1.2691,1.2786,1.2589,1.2518,1.2859,1.3537,1.4322,1.4974,1.5279,1.5439,1.5737,1.5927,1.6028,1.5832,1.5927,1.5439,1.389,1.4039,1.3624,1.2395,1.265,1.2578,1.2228,1.1928,1.145,1.0802,1.0582,1.0253,1.0025,1.0023,0.9969,1.0074,1.0383,1.0509,1.0451,0.993,1.004,1.0387,0.8639,0.8645,0.9701,0.9398,0.9701,1.0315,1.0934,1.113,1.1074,1.0142,1.01,1.0497,1.1197,1.1642,1.1983,1.2687,1.2829,1.2764,1.2764,1.2861,1.2958,1.2958,1.3346,1.3738,1.3738,1.4634,1.5518,1.5518,1.6464,1.7458,1.7866,1.8024,1.8275,1.8735,1.8485,1.8186,1.8057,1.804,1.804,1.804,1.804,1.804,1.804,1.804,1.804,1.804,1.804,1.804,1.804,1.804,1.804,1.804,1.804,1.804,1.804,1.804,1.804,1.804,1.7792,1.7672,1.7663,1.7103,1.6838,1.2237,1.3015,1.3554,1.4731,1.5197,1.5324,1.505,1.4963,1.4863,1.4488,1.3219,1.2312,1.2563,1.1722,1.1179,1.14,1.1724,1.2355,1.3602,1.3915,1.4459,1.5635,1.5832,1.5838,1.5852,1.5852,1.5858,1.5872,1.4356,1.4307,1.6406,1.493,1.4451,1.5221,1.4266,1.3078,1.1678,1.1678,1.145,1.1214,1.1978,1.2417,1.2413,1.22,1.199,1.182,1.1283,1.0962,1.0781,1.0473,1.0257,1.0289,1.1194,1.1496,1.1697,1.2715,1.3276,1.3172,1.1209,1.12,1.2005,1.2005,1.2486,1.3125,1.3125,1.2969,1.2797,1.2786,1.278,1.278,1.2867,1.3152,1.3539,1.3539,1.4765,1.5893,1.5893,1.7483,1.8784,1.8375,1.9026,1.9615,1.9239,1.8845,1.8468,1.8117,1.8049,1.804,1.804,1.804,1.804,1.804,1.804,1.804,1.804,1.804,1.804,1.804,1.804,1.804,1.804,1.804,1.804,1.804,1.804,1.804,1.804,1.804,1.804,1.7959,1.7115,1.678,1.2873,1.3925,1.491,1.5172,1.5344,1.5378,1.5304,1.495,1.434,1.3448,1.2076,1.0799,1.0081,1.0348,1.0855,1.1169,1.2864,1.4311,1.4896,1.5162,1.5439,1.573,1.5832,1.5919,1.6139,1.6159,1.6246,1.6466,1.6043,1.5392,1.4418,1.4983,1.4938,1.383,1.3722,1.3295,1.2536,1.2313,1.2205,1.2091,1.2304,1.2417,1.2417,1.296,1.3151,1.2886,1.2558,1.2656,1.288,1.1182,1.1281,1.2542,1.176,1.1998,1.2725,1.3212,1.3427,1.3426,1.3244,1.3136,1.3059,1.3059,1.3222,1.3383,1.3383,1.3346,1.326,1.3071,1.3017,1.2974,1.2997,1.3249,1.3539,1.3738,1.5425,1.6922,1.6922,1.8511,1.9886,1.9793,1.9745,1.9615,1.9239,1.8845,1.8554,1.8459,1.8211,1.804,1.804,1.804,1.804,1.804,1.804,1.804,1.804,1.804,1.804,1.804,1.804,1.804,1.804,1.804,1.804,1.804,1.804,1.804,1.804,1.804,1.804,1.7951,1.7789,1.77,1.378,1.4676,1.5424,1.5558,1.5491,1.5265,1.4577,1.4123,1.3498,1.2133,1.0871,0.9749,0.9065,0.941,0.9873,1.0078,1.1798,1.3495,1.4324,1.4596,1.5006,1.5717,1.5945,1.6086,1.6259,1.6386,1.6587,1.6881,1.6901,1.6349,1.4949,1.6039,1.5974,1.4696,1.4911,1.4476,1.3511,1.329,1.3181,1.3181,1.3722,1.3938,1.3932,1.4272,1.4385,1.4056,1.3727,1.3772,1.3875,1.268,1.277,1.3511,1.2848,1.278,1.3147,1.3502,1.3566,1.355,1.4029,1.4019,1.3793,1.3793,1.3717,1.3631,1.3631,1.3556,1.3448,1.3308,1.3366,1.3407,1.327,1.3504,1.3676,1.3864,1.5146,1.6452,1.6936,1.8326,1.9629,2.0192,2.0129,1.9864,1.9487,1.9239,1.9033,1.887,1.8519,1.828,1.828,1.8134,1.804,1.804,1.804,1.804,1.804,1.804,1.804,1.804,1.804,1.804,1.804,1.804,1.804,1.804,1.804,1.804,1.804,1.804,1.804,1.804,1.804,1.804,1.4711,1.5204,1.5504,1.5718,1.5558,1.4983,1.3501,1.3141,1.2534,1.0824,0.9749,0.9061,0.8803,0.8803,0.8978,0.9061,1.019,1.1652,1.3182,1.3614,1.4172,1.5655,1.6119,1.6299,1.638,1.662,1.6887,1.7188,1.7208,1.7105,1.6801,1.7239,1.7166,1.6324,1.653,1.5879,1.4493,1.4385,1.4385,1.4493,1.5458,1.5891,1.5891,1.5583,1.5261,1.4928,1.4713,1.4396,1.4196,1.4196,1.4062,1.3868,1.3836,1.3566,1.3249,1.3663,1.3696,1.3588,1.404,1.4196,1.4196,1.4196,1.4046,1.3868,1.3868,1.3733,1.3566,1.3534,1.3724,1.3862,1.3618,1.3757,1.4091,1.4043,1.4731,1.5662,1.6581,1.777,1.8964,2.0102,2.0292,2.0189,1.9872,1.9778,1.9632,1.9299,1.8913,1.8665,1.8665,1.8297,1.804,1.804,1.804,1.804,1.804,1.804,1.804,1.804,1.804,1.804,1.804,1.804,1.804,1.804,1.804,1.804,1.804,1.804,1.804,1.804,1.804,1.804,1.495,1.5351,1.5712,1.5518,1.5251,1.4687,1.3407,1.2958,1.2232,1.0193,0.9492,0.889,0.794,0.8372,0.9235,1.0183,1.1499,1.2992,1.4462,1.493,1.5304,1.6132,1.6246,1.6466,1.6947,1.7041,1.7194,1.7482,1.7508,1.7403,1.7101,1.7252,1.6961,1.6324,1.6105,1.5885,1.5571,1.5571,1.5571,1.5571,1.5785,1.5791,1.5589,1.5482,1.5154,1.4713,1.46,1.4396,1.4196,1.4196,1.4169,1.411,1.39,1.3766,1.3706,1.3787,1.3793,1.3803,1.4094,1.4196,1.4196,1.4196,1.4164,1.4126,1.4126,1.4105,1.4029,1.382,1.376,1.3811,1.3788,1.432,1.4843,1.4783,1.6082,1.7457,1.7744,1.898,2.0011,2.0292,2.0292,2.0275,2.0206,1.9941,1.9718,1.965,1.9316,1.9076,1.9076,1.8468,1.804,1.804,1.804,1.804,1.804,1.804,1.804,1.804,1.804,1.804,1.804,1.804,1.804,1.804,1.804,1.804,1.804,1.804,1.804,1.804,1.804,1.804,1.4923,1.5164,1.5384,1.5391,1.5064,1.433,1.258,1.2006,1.1225,0.9152,0.8544,0.8109,0.7326,0.8017,0.8877,0.9309,1.1039,1.2744,1.3891,1.4708,1.5384,1.5972,1.6313,1.6607,1.6894,1.7194,1.7428,1.7569,1.7483,1.7272,1.6955,1.6636,1.643,1.6324,1.5998,1.5891,1.5891,1.5891,1.5891,1.5891,1.5791,1.5583,1.5482,1.5369,1.5041,1.4606,1.4606,1.4396,1.4196,1.4196,1.4196,1.4186,1.4062,1.3933,1.3836,1.3965,1.3933,1.3852,1.411,1.4196,1.4196,1.4196,1.4196,1.4196,1.4196,1.4196,1.4169,1.4046,1.4434,1.4901,1.4758,1.5403,1.5935,1.5963,1.6863,1.786,1.807,1.9116,2.0019,2.0292,2.0292,2.0292,2.0292,2.0146,2.0026,2.0026,1.971,1.947,1.947,1.8973,1.8554,1.8348,1.8151,1.804,1.804,1.804,1.804,1.804,1.804,1.804,1.804,1.804,1.804,1.804,1.804,1.804,1.804,1.804,1.804,1.804,1.804,1.804,1.4694,1.4917,1.5003,1.5164,1.4863,1.3967,1.1767,1.1173,1.0443,0.8288,0.7591,0.7238,0.6884,0.7397,0.791,0.8002,0.9822,1.1619,1.2783,1.3904,1.4897,1.5664,1.6346,1.6734,1.6794,1.7275,1.7582,1.7483,1.7173,1.6855,1.663,1.6205,1.6105,1.6217,1.5998,1.5891,1.5891,1.5891,1.5891,1.5891,1.569,1.5482,1.5369,1.5148,1.4821,1.4498,1.4498,1.4396,1.4196,1.4196,1.4196,1.4196,1.4196,1.4073,1.3922,1.4121,1.4073,1.3927,1.4126,1.4196,1.4196,1.4196,1.4196,1.4196,1.4196,1.4299,1.4509,1.4509,1.525,1.605,1.5842,1.6406,1.7154,1.7372,1.7858,1.8304,1.8682,1.9263,1.9854,2.0229,2.0161,2.0102,2.0102,2.0201,2.0292,2.0292,2.0043,1.9864,1.9864,1.953,1.9179,1.887,1.8425,1.8126,1.804,1.804,1.804,1.804,1.804,1.804,1.804,1.804,1.804,1.804,1.804,1.804,1.804,1.804,1.804,1.804,1.804,1.804,1.4041,1.4668,1.4903,1.4663,1.4563,1.3915,1.1559,1.1058,1.0443,0.8288,0.7323,0.6884,0.6795,0.6343,0.6334,0.7383,0.8086,0.9376,1.1888,1.2866,1.3964,1.5569,1.6346,1.6814,1.7081,1.7395,1.7483,1.7279,1.6749,1.6324,1.6324,1.6324,1.6105,1.5891,1.5891,1.5891,1.5891,1.5891,1.5891,1.5891,1.5891,1.5571,1.5041,1.5041,1.4719,1.4191,1.4191,1.4191,1.4196,1.4196,1.4196,1.4196,1.4196,1.418,1.4164,1.4186,1.418,1.4164,1.4186,1.4196,1.4196,1.4196,1.4196,1.4196,1.4196,1.4719,1.5351,1.5351,1.5986,1.6617,1.6599,1.7213,1.8178,1.91,1.9574,1.982,2.0321,2.0219,2.005,2.0143,1.987,1.9637,1.9637,2.0011,2.0292,2.0292,2.0266,2.024,2.024,1.9915,1.9675,1.9641,1.8973,1.84,1.8066,1.804,1.804,1.804,1.804,1.804,1.804,1.804,1.804,1.804,1.804,1.804,1.804,1.804,1.804,1.804,1.804,1.804,1.3864,1.4302,1.4449,1.4502,1.3851,1.2807,1.1322,1.0253,0.9226,0.7955,0.727,0.6753,0.6315,0.6295,0.6343,0.6422,0.7562,0.8761,0.9826,1.094,1.2216,1.3884,1.463,1.5512,1.6577,1.7107,1.7173,1.6643,1.643,1.6217,1.6105,1.6105,1.5998,1.5891,1.5891,1.5891,1.5891,1.5891,1.5891,1.5891,1.5791,1.5552,1.5264,1.5051,1.4806,1.4606,1.4606,1.4606,1.46,1.4455,1.4401,1.4385,1.425,1.4196,1.4196,1.4196,1.4196,1.4196,1.4196,1.4196,1.4196,1.4196,1.4509,1.4928,1.4928,1.5244,1.5559,1.6092,1.6829,1.7463,1.7463,1.8101,1.8916,1.931,1.9535,1.9789,2.0383,2.02,2.0085,2.0533,2.017,1.9895,1.9953,2.0201,2.0292,2.0292,2.0292,2.0292,2.0292,2.0163,1.9992,1.9769,1.905,1.8528,1.8382,1.8168,1.804,1.804,1.804,1.804,1.804,1.804,1.804,1.804,1.804,1.804,1.804,1.804,1.804,1.804,1.804,1.804,1.3168,1.3658,1.3965,1.4342,1.3176,1.1792,1.0867,0.954,0.8251,0.7366,0.6858,0.6531,0.6055,0.6228,0.6216,0.5802,0.6949,0.7952,0.8333,0.9449,1.0667,1.2029,1.2867,1.3841,1.5368,1.6412,1.6755,1.6324,1.6217,1.6105,1.5891,1.5891,1.5891,1.5891,1.5891,1.5891,1.5891,1.5891,1.5891,1.5791,1.566,1.547,1.5308,1.5166,1.5071,1.4885,1.4885,1.4885,1.4875,1.4708,1.4595,1.4519,1.4358,1.4256,1.4196,1.4196,1.4196,1.4196,1.4196,1.4196,1.4191,1.4509,1.5035,1.5559,1.6086,1.6193,1.6405,1.6942,1.7674,1.8415,1.8415,1.8848,1.9376,1.948,1.9713,2.0039,2.0443,2.0174,2.0159,2.0679,2.0248,1.9915,2.0222,2.0278,2.0292,2.0292,2.0292,2.0292,2.0292,2.0292,2.0189,1.9932,1.9324,1.8836,1.8605,1.8348,1.8151,1.804,1.804,1.804,1.804,1.804,1.804,1.804,1.804,1.804,1.804,1.804,1.804,1.804,1.804,1.804,1.1487,1.2589,1.3483,1.4004,1.2693,1.1059,1.006,0.8835,0.7532,0.6396,0.6037,0.6077,0.6215,0.5809,0.5589,0.57,0.6074,0.6779,0.7643,0.8824,0.9696,1.0044,1.0969,1.2138,1.3378,1.524,1.6324,1.6324,1.5998,1.5891,1.5891,1.5891,1.5891,1.5891,1.5891,1.5891,1.5891,1.5891,1.5791,1.5487,1.5734,1.5528,1.4994,1.5227,1.5112,1.4885,1.4885,1.4885,1.4885,1.488,1.4745,1.4536,1.453,1.4396,1.4196,1.4196,1.4196,1.4196,1.4196,1.4196,1.4299,1.5244,1.5452,1.5773,1.7457,1.7982,1.7989,1.7989,1.8632,1.9272,1.9272,1.9272,1.948,1.9983,2.0498,2.0917,2.0917,2.0639,2.0384,2.0384,1.9828,1.9447,1.9997,2.0163,2.0292,2.0292,2.0292,2.0292,2.0292,2.0292,2.0292,2.0283,1.9949,1.9418,1.8656,1.8579,1.8425,1.8066,1.804,1.804,1.804,1.804,1.804,1.804,1.804,1.804,1.804,1.804,1.804,1.804,1.804,1.804,1.0167,1.0772,1.1243,1.1413,1.0409,0.9137,0.8574,0.7487,0.643,0.6066,0.5975,0.5909,0.5949,0.6198,0.6337,0.6118,0.6549,0.6782,0.6419,0.7833,0.9233,1.0039,1.2759,1.4814,1.5362,1.5783,1.5998,1.5998,1.5998,1.5891,1.5891,1.5891,1.5891,1.5891,1.5891,1.5891,1.5891,1.5684,1.5583,1.5487,1.5516,1.5393,1.5238,1.5477,1.5445,1.5375,1.5375,1.5375,1.5359,1.5203,1.509,1.4993,1.4665,1.4487,1.4406,1.425,1.4196,1.4196,1.4196,1.4617,1.5143,1.5452,1.6299,1.7351,1.7884,1.7989,1.8094,1.8736,1.9063,1.9279,1.9279,1.9279,1.9376,1.9472,1.968,1.9998,2.0719,2.0215,1.9974,2.1238,2.0516,1.9838,2.0533,2.0457,2.0292,2.0292,2.0292,2.0292,2.0292,2.0292,2.0292,2.0292,2.0189,1.9915,1.9418,1.8888,1.8537,1.8425,1.8177,1.804,1.804,1.804,1.804,1.804,1.804,1.804,1.804,1.804,1.804,1.804,1.804,1.804,0.8894,0.957,0.9958,1.0121,0.9136,0.7967,0.757,0.6522,0.5574,0.5365,0.5433,0.5545,0.5644,0.6047,0.6282,0.6034,0.6292,0.6517,0.6508,0.7745,0.9011,1.0068,1.2844,1.4794,1.4914,1.5553,1.5891,1.5891,1.5891,1.5891,1.5891,1.5891,1.5891,1.5891,1.5891,1.5891,1.5791,1.5583,1.5374,1.5154,1.5189,1.5166,1.4992,1.532,1.5438,1.5472,1.5564,1.5601,0.0,1.544,1.5327,1.5219,1.4923,1.4697,1.4519,1.4374,1.4266,1.4299,1.4617,1.5035,1.5559,1.6193,1.7358,1.852,1.852,1.852,1.8624,1.9168,1.9279,1.9279,1.9279,1.9279,1.9279,1.9279,1.9583,1.9998,2.0506,2.0395,2.0538,2.1645,2.1007,2.0451,2.095,2.0763,2.0463,2.0317,2.0292,2.0292,2.0292,2.0292,2.0292,2.0292,2.0292,2.0198,1.9966,1.9384,1.8896,1.8605,1.8374,1.8186,1.804,1.804,1.804,1.804,1.804,1.804,1.804,1.804,1.804,1.804,1.804,1.804,0.0,0.8644,0.9347,0.9832,0.8607,0.7256,0.6936,0.5959,0.0,0.456,0.4771,0.5075,0.5314,0.5363,0.5445,0.567,0.5714,0.616,0.7658,0.8307,0.921,1.0538,1.2033,1.2915,1.2931,1.4727,1.5891,1.5891,1.5891,1.5891,1.5891,1.5891,1.5891,1.5891,1.5891,1.5791,1.5482,1.5482,1.5154,1.4606,1.4866,1.4762,1.4552,1.5015,1.5235,1.5262,1.5478,1.5585,1.5601,1.5601,1.5472,1.5273,1.5257,1.4966,1.4557,1.4541,1.45,1.4407,1.5244,1.5666,1.598,1.7569,1.8632,1.9279,1.9279,1.9279,1.9279,1.9279,1.9279,1.9279,1.9279,1.9279,1.9279,1.9279,2.0101,2.0712,2.0292,2.0909,2.1623,2.1725,2.1428,2.1253,2.1377,2.1114,2.0746,2.0352,2.0292,2.0292,2.0292,2.0292,2.0292,2.0292,2.0292,2.0292,2.0292,1.9949,1.9436,1.8716,1.8648,1.8459,1.8091,1.8074,1.8066,1.804,1.804,1.804,1.804,1.804,1.7968,1.8074,1.8074,1.8091,0.6574,0.0,0.7062,0.7219,0.6905,0.6428,0.0,0.568,0.5358,0.4932,0.4927,0.505,0.5119,0.5306,0.5586,0.5999,0.5838,0.6281,0.7904,0.9947,1.1972,1.3826,1.4471,1.4849,1.485,1.5481,1.5891,1.5891,1.5891,1.5891,1.5891,1.5891,1.5891,1.5891,1.5684,1.5589,1.5482,1.5261,1.4934,1.4606,1.4642,1.4536,1.4546,1.4837,1.5074,1.5252,1.5311,1.5435,1.5601,1.5601,1.5569,1.5499,1.5322,1.5068,1.489,1.5376,1.5361,1.5351,1.6092,1.6829,1.7562,1.8632,1.9168,1.9279,1.9279,1.9279,1.9279,1.9279,1.9279,1.9279,1.9279,1.9279,1.9279,1.9279,1.9783,2.0395,2.0609,2.0917,2.1326,2.2241,2.1728,2.1253,2.1377,2.1114,2.0746,2.0352,2.0292,2.0292,2.0292,2.0292,2.0292,2.0292,2.0292,2.0292,2.0292,1.9949,1.9667,1.9478,1.9196,1.8862,1.8468,1.8459,1.8323,1.804,1.804,1.804,1.804,1.804,1.8186,1.8459,1.8459,1.8614,0.6132,0.6207,0.6338,0.6338,0.6338,0.6183,0.5715,0.5637,0.5401,0.4851,0.4891,0.4965,0.4678,0.487,0.5238,0.5346,0.5676,0.6573,0.8322,0.9974,1.1617,1.3453,1.4025,1.452,1.5203,1.5662,1.5891,1.5891,1.5891,1.5891,1.5891,1.5891,1.5891,1.5891,1.5791,1.5583,1.5482,1.5041,1.4713,1.4606,1.4424,1.4379,1.4385,1.4616,1.4799,1.4929,1.5036,1.5155,1.5268,1.5268,1.5338,1.5429,1.53,1.533,1.5547,1.5852,1.6005,1.6199,1.7041,1.7891,1.8632,1.9168,1.9279,1.9279,1.9279,1.9279,1.9279,1.9279,1.9279,1.9279,1.9279,1.9279,1.9376,1.9576,2.0094,2.0601,2.1121,2.153,2.1835,2.2443,2.218,2.1818,2.1641,2.1371,2.0994,2.0617,2.0412,2.0292,2.0292,2.0292,2.0292,2.0292,2.0292,2.0292,2.0292,2.0103,1.9924,1.9752,1.9547,1.9264,1.887,1.8853,1.8759,1.8562,1.8562,1.8562,1.8562,1.8562,1.8656,1.8853,1.8853,1.8965,0.5949,0.6218,0.649,0.6338,0.6338,0.6183,0.5715,0.5637,0.5407,0.4641,0.4877,0.4986,0.4287,0.4545,0.4809,0.4461,0.583,0.7538,0.9175,0.987,1.0742,1.2098,1.273,1.3642,1.5005,1.5584,1.5891,1.5891,1.5891,1.5891,1.5891,1.5891,1.5891,1.5891,1.5785,1.5684,1.5482,1.4934,1.4606,1.4498,1.4299,1.4196,1.4202,1.4396,1.4503,1.4546,1.4745,1.4853,1.4885,1.4885,1.5009,1.5198,1.5308,1.5727,1.6169,1.6398,1.6739,1.7047,1.7884,1.8632,1.9279,1.9279,1.9279,1.9279,1.9279,1.9279,1.9279,1.9279,1.9279,1.9279,1.9279,1.9279,1.948,1.9983,2.0506,2.1019,2.1623,2.2131,2.2644,2.2644,2.2644,2.2432,2.2064,2.167,2.1293,2.0934,2.0549,2.0292,2.0292,2.0292,2.0292,2.0292,2.0292,2.0292,2.0292,2.0292,2.0155,1.9847,1.9829,1.9658,1.9281,1.9204,1.917,1.917,1.917,1.917,1.917,1.917,1.9204,1.9264,1.9264,1.929,0.5919,0.6666,0.718,0.6493,0.6338,0.6183,0.5715,0.5637,0.5511,0.5137,0.5173,0.5094,0.4801,0.4853,0.4896,0.4905,0.742,0.9815,1.0881,1.2476,1.3657,1.3896,1.4372,1.4796,1.5107,1.5584,1.5891,1.5891,1.5891,1.5891,1.5891,1.5891,1.5891,1.5891,1.5357,1.5256,1.5482,1.5148,1.4719,1.4299,1.4191,1.4196,1.4196,1.4229,1.4352,1.4536,1.4573,1.4702,1.4885,1.4885,1.4907,1.5053,1.5733,1.6016,1.5997,1.754,1.7976,1.7884,1.8848,1.9168,1.9279,1.9279,1.9279,1.9279,1.9279,1.9279,1.9279,1.9279,1.9279,1.9279,1.9279,1.9279,1.948,1.9983,2.0506,2.1019,2.1623,2.2131,2.2644,2.2644,2.2644,2.2432,2.2064,2.167,2.1293,2.0934,2.0549,2.0292,2.0292,2.0292,2.0292,2.0292,2.0292,2.0292,2.0292,2.0292,2.0266,2.0215,2.0206,2.0043,1.9675,1.9341,1.917,1.917,1.917,1.917,1.917,1.917,1.9341,1.9658,1.9658,1.9821,0.5672,0.6303,0.6894,0.7137,0.7469,0.7778,0.754,0.7612,0.7381,0.6319,0.6312,0.6077,0.4758,0.5336,0.6524,0.7804,0.8812,0.9877,1.1079,1.1552,1.2022,1.2909,1.3331,1.4015,1.4993,1.5451,1.5734,1.5879,1.5891,1.5891,1.5891,1.5891,1.5891,1.5891,1.5678,1.547,1.5482,1.5369,1.4939,1.4396,1.4299,1.4196,1.4196,1.4196,1.425,1.4352,1.4352,1.4412,1.4509,1.4509,1.4906,1.5461,1.5794,1.649,1.7341,1.849,1.8766,1.8736,1.9168,1.9279,1.9279,1.9279,1.9279,1.9279,1.9279,1.9279,1.9279,1.9279,1.9279,1.9279,1.9279,1.9279,1.948,2.03,2.0712,2.1121,2.203,2.2443,2.2644,2.2644,2.2644,2.2492,2.2321,2.1978,2.1602,2.1225,2.0848,2.0531,2.0317,2.0292,2.0292,2.0292,2.0292,2.0292,2.0292,2.0292,2.0292,2.0292,2.0292,2.0215,2.0043,1.9872,1.9778,1.9778,1.9778,1.9778,1.9778,1.9778,1.9864,2.0035,2.0035,2.0129,0.545,0.603,0.6747,0.7572,0.8073,0.8409,0.8974,0.8917,0.8526,0.7537,0.7659,0.7339,0.5234,0.6005,0.7658,0.9887,0.9831,1.0071,1.1528,1.1106,1.1137,1.2318,1.2729,1.3463,1.4891,1.5252,1.5517,1.5777,1.5801,1.5825,1.5885,1.5891,1.5891,1.5891,1.5785,1.5684,1.5482,1.5374,1.5041,1.4606,1.4396,1.4299,1.4196,1.4196,1.4196,1.4196,1.4196,1.4196,1.4191,1.4407,1.5036,1.5734,1.6169,1.7257,1.8652,1.9157,1.9279,1.9279,1.9279,1.9279,1.9279,1.9279,1.9279,1.9279,1.9279,1.9279,1.9279,1.9279,1.9279,1.9279,1.9279,1.9376,1.968,2.0719,2.1019,2.1326,2.2342,2.2644,2.2644,2.2644,2.2644,2.2644,2.2644,2.2244,2.1867,2.1465,2.1105,2.0737,2.0343,2.0292,2.0292,2.0292,2.0292,2.0292,2.0292,2.0292,2.0292,2.0292,2.0292,2.0292,2.0292,2.0292,2.0292,2.0292,2.0292,2.0292,2.0292,2.0292,2.0292,2.0292,2.0292,2.0292,0.545,0.647,0.7407,0.75,0.6655,0.6414,0.8469,0.7858,0.72,0.8677,0.8932,0.8568,0.7169,0.6675,0.6986,0.8735,1.029,1.1805,1.3455,1.3826,1.3998,1.41,1.4344,1.4622,1.4745,1.498,1.5246,1.5511,1.5529,1.5632,1.5879,1.569,1.569,1.5891,1.5357,1.5148,1.5482,1.4934,1.4606,1.4606,1.4606,1.4396,1.4196,1.4196,1.4196,1.4196,1.4196,1.4196,1.4299,1.5035,1.5464,1.5696,1.7279,1.845,1.9204,1.9286,1.9279,1.9279,1.9279,1.9279,1.9279,1.9279,1.9279,1.9279,1.9279,1.9279,1.9279,1.9279,1.9279,1.9279,1.9279,1.968,2.0189,2.0712,2.1326,2.1827,2.2443,2.2644,2.2644,2.2644,2.2644,2.2644,2.2644,2.2244,2.1867,2.1465,2.1105,2.0737,2.0343,2.0292,2.0292,2.0292,2.0292,2.0292,2.0292,2.0292,2.0292,2.0292,2.0292,2.0292,2.0292,2.0292,2.0292,2.0292,2.0292,2.0292,2.0292,2.0292,2.0292,2.0292,2.0292,2.0292,0.5303,0.646,0.756,0.7725,0.7171,0.7224,0.9485,0.9668,0.9537,0.9913,1.0062,0.9647,0.8237,0.8689,0.95,1.0117,1.1705,1.3217,1.3794,1.4129,1.4298,1.4298,1.4389,1.4521,1.4702,1.4805,1.4974,1.5234,1.5252,1.5366,1.5632,1.5545,1.5623,1.5885,1.5678,1.5571,1.5791,1.5369,1.5041,1.4821,1.4504,1.4299,1.4196,1.4196,1.4196,1.4196,1.4196,1.4196,1.4299,1.5143,1.5773,1.6411,1.8108,1.9056,1.9279,1.9279,1.9279,1.9279,1.9279,1.9279,1.9279,1.9279,1.9279,1.9279,1.9279,1.9279,1.9279,1.9279,1.9279,1.9279,1.9279,1.968,2.0292,2.0814,2.1326,2.1827,2.2443,2.2644,2.2644,2.2644,2.2644,2.2644,2.2644,2.2432,2.2133,2.1508,2.1293,2.0985,2.0369,2.0292,2.0292,2.0292,2.0292,2.0292,2.0292,2.0292,2.0292,2.0292,2.0292,2.0292,2.0292,2.0292,2.0292,2.0292,2.0292,2.0292,2.0292,2.0292,2.0292,2.0292,2.0292,2.0292,0.5087,0.594,0.7032,0.7565,0.7422,0.7873,1.0243,1.0624,1.0601,1.1155,1.0875,1.0366,0.9459,1.0205,1.1074,1.1217,1.2721,1.3936,1.4014,1.4183,1.4298,1.4298,1.4298,1.437,1.4564,1.4582,1.4696,1.4962,1.4986,1.5101,1.536,1.5347,1.5473,1.5653,1.5743,1.5791,1.5791,1.5476,1.5261,1.5035,1.4509,1.4196,1.4196,1.4196,1.4196,1.4196,1.4196,1.4196,1.4299,1.5458,1.6518,1.7681,1.8848,1.9279,1.9279,1.9279,1.9279,1.9279,1.9279,1.9279,1.9279,1.9279,1.9279,1.9279,1.9279,1.9279,1.9279,1.9279,1.9279,1.9376,1.948,1.999,2.0498,2.0814,2.1428,2.2131,2.2544,2.2644,2.2644,2.2644,2.2644,2.2644,2.2644,2.2644,2.2329,2.1687,2.149,2.1182,2.0557,2.0369,2.0292,2.0292,2.0292,2.0292,2.0292,2.0292,2.0292,2.0292,2.0292,2.0292,2.0292,2.0292,2.0292,2.0292,2.0292,2.0292,2.0292,2.0292,2.0292,2.0292,2.0292,2.0292,0.4726,0.4977,0.5665,0.69,0.7263,0.7909,1.0522,0.995,0.9669,1.2167,1.1569,1.0681,1.0982,1.1028,1.1181,1.1728,1.2952,1.4002,1.4262,1.4298,1.4298,1.4298,1.4298,1.4298,1.4298,1.4298,1.4413,1.469,1.4714,1.4829,1.5089,1.5039,1.507,1.5076,1.5341,1.5482,1.5482,1.5148,1.5041,1.5035,1.4509,1.4196,1.4196,1.4196,1.4196,1.4196,1.4196,1.4196,1.4299,1.5992,1.7681,1.9279,1.9279,1.9279,1.9279,1.9279,1.9279,1.9279,1.9279,1.9279,1.9279,1.9279,1.9279,1.9279,1.9279,1.9279,1.9279,1.9279,1.9279,1.9376,1.9983,2.0498,2.0925,2.0925,2.1733,2.2644,2.2644,2.2644,2.2644,2.2644,2.2644,2.2644,2.2644,2.2644,2.2424,2.2055,2.1662,2.1276,2.0917,2.0531,2.0292,2.0292,2.0292,2.0292,2.0292,2.0292,2.0292,2.0292,2.0292,2.0292,2.0292,2.0292,2.0292,2.0292,2.0292,2.0292,2.0292,2.0292,2.0292,2.0292,2.0292,2.0292,0.4873,0.6318,0.7741,0.7509,0.8729,1.0125,1.0929,1.0741,1.0861,1.2372,1.251,1.2124,1.1196,1.2117,1.2777,1.1974,1.3093,1.4208,1.4286,1.4298,1.4298,1.4298,1.4298,1.4298,1.4298,1.4298,1.4334,1.4419,1.4425,1.4442,1.4512,1.4671,1.4888,1.5065,1.5122,1.5261,1.5482,1.4934,1.4713,1.4713,1.4407,1.4196,1.4196,1.4196,1.4196,1.4196,1.4196,1.4509,1.5244,1.6935,1.8311,1.9279,1.9279,1.9279,1.9279,1.9279,1.9279,1.9279,1.9279,1.9279,1.9279,1.9279,1.9279,1.9279,1.9279,1.9279,1.9279,1.9279,1.9279,1.9376,1.9983,2.0498,2.1019,2.1318,2.2038,2.2644,2.2644,2.2644,2.2644,2.2644,2.2644,2.2644,2.2644,2.2644,2.2424,2.2055,2.1662,2.1182,2.0549,2.036,2.0292,2.0292,2.0292,2.0292,2.0292,2.0292,2.0292,2.0292,2.0292,2.0292,2.0292,2.0292,2.0292,2.0292,2.0292,2.0292,2.0292,2.0292,2.0292,2.0292,2.0292,2.0292,0.5371,0.674,0.8137,0.8657,0.9838,1.0988,1.159,1.1702,1.1911,1.2583,1.2928,1.288,1.2154,1.3055,1.3655,1.2886,1.3611,1.4298,1.4298,1.4298,1.4298,1.4298,1.4298,1.4298,1.4298,1.4298,1.4298,1.4298,1.4208,1.4183,1.4246,1.4401,1.4552,1.4705,1.4966,1.5045,1.5154,1.4821,1.4606,1.4606,1.4299,1.4196,1.4196,1.4196,1.4196,1.4191,1.4617,1.525,1.6092,1.7457,1.852,1.9279,1.9279,1.9279,1.9279,1.9279,1.9279,1.9279,1.9279,1.9279,1.9279,1.9279,1.9279,1.9279,1.9279,1.9279,1.9376,1.9576,1.9576,1.9783,2.049,2.1011,2.1326,2.1623,2.2139,2.2644,2.2644,2.2644,2.2644,2.2644,2.2644,2.2644,2.2644,2.2644,2.2475,2.2244,2.1756,2.1139,2.0386,2.0292,2.0292,2.0292,2.0292,2.0292,2.0292,2.0292,2.0292,2.0292,2.0292,2.0292,2.0292,2.0292,2.0292,2.0292,2.0292,2.0292,2.0292,2.0292,2.0292,2.0292,2.0292,2.0292,0.6116,0.6663,0.7507,0.9922,1.0632,1.1042,1.2389,1.2705,1.2705,1.2705,1.2946,1.323,1.3471,1.3749,1.402,1.4256,1.4298,1.4298,1.4298,1.4298,1.4298,1.4298,1.4298,1.4298,1.4298,1.4298,1.4298,1.4298,1.4022,1.4022,1.4202,1.4264,1.4213,1.4129,1.4717,1.4872,1.4567,1.4595,1.4606,1.4606,1.4293,1.4196,1.4196,1.4196,1.4196,1.4299,1.525,1.5986,1.673,1.7779,1.8632,1.9279,1.9279,1.9279,1.9279,1.9279,1.9279,1.9279,1.9279,1.9279,1.9279,1.9279,1.9279,1.9279,1.9279,1.9279,1.9376,1.9879,2.0078,2.0388,2.1318,2.1623,2.1725,2.1725,2.2241,2.2644,2.2644,2.2644,2.2644,2.2644,2.2644,2.2644,2.2644,2.2644,2.2636,2.2501,2.1876,2.1156,2.0437,2.0317,2.0292,2.0292,2.0292,2.0292,2.0292,2.0292,2.0292,2.0292,2.0292,2.0292,2.0292,2.0292,2.0292,2.0292,2.0292,2.0292,2.0292,2.0292,2.0292,2.0292,2.0292,2.0292,0.6419,0.7919,0.9776,1.0559,1.1528,1.2287,1.2601,1.2705,1.2705,1.2705,1.3091,1.3447,1.3507,1.3894,1.4232,1.4286,1.4298,1.4298,1.4298,1.4298,1.4298,1.4298,1.4298,1.4298,1.4298,1.4298,1.4202,1.4022,1.3931,1.3732,1.334,1.3773,1.3834,1.3685,1.4115,1.4372,1.4328,1.4308,1.4299,1.4299,1.4196,1.4196,1.4196,1.4196,1.4196,1.4299,1.5779,1.6518,1.6836,1.8422,1.9168,1.9279,1.9279,1.9279,1.9279,1.9279,1.9279,1.9279,1.9279,1.9279,1.9279,1.9279,1.9279,1.9279,1.9279,1.9279,1.9272,1.948,1.9783,2.0292,2.0917,2.142,2.1827,2.2342,2.2544,2.2644,2.2644,2.2644,2.2644,2.2644,2.2644,2.2644,2.2644,2.2644,2.2449,2.2158,2.1713,2.1251,2.0814,2.048,2.0292,2.0292,2.0292,2.0292,2.0292,2.0292,2.0292,2.0292,2.0292,2.0292,2.0292,2.0292,2.0292,2.0292,2.0292,2.0292,2.0292,2.0292,2.0292,2.0292,2.0292,2.0292,0.7568,0.8813,1.0116,1.1383,1.2172,1.2705,1.2705,1.2705,1.2705,1.2705,1.3037,1.3332,1.3332,1.3755,1.4111,1.4111,1.4214,1.4298,1.4298,1.4298,1.4298,1.4298,1.4298,1.4298,1.4298,1.4298,1.4208,1.3931,1.3738,1.3545,1.3346,1.3464,1.3489,1.3502,1.3757,1.3903,1.4035,1.4055,1.4078,1.4196,1.4196,1.4196,1.4196,1.4196,1.4401,1.4934,1.6199,1.6942,1.747,1.8743,1.9279,1.9279,1.9279,1.9279,1.9279,1.9279,1.9279,1.9279,1.9279,1.9279,1.9279,1.9279,1.948,1.968,1.9376,1.948,1.9783,1.999,2.03,2.0704,2.153,2.1937,2.2232,2.2544,2.2644,2.2644,2.2644,2.2644,2.2644,2.2644,2.2644,2.2644,2.2644,2.2644,2.2424,2.2055,2.1662,2.1276,2.0925,2.054,2.0292,2.0292,2.0292,2.0292,2.0292,2.0292,2.0292,2.0292,2.0292,2.0292,2.0292,2.0292,2.0292,2.0292,2.0292,2.0292,2.0292,2.0292,2.0292,2.0292,2.0292,2.0292,0.8591,0.9394,1.0038,1.2155,1.2705,1.2705,1.2705,1.2705,1.2705,1.2705,1.2928,1.3127,1.3127,1.3513,1.3839,1.3839,1.4057,1.4226,1.4226,1.4268,1.4298,1.4298,1.4298,1.4298,1.4298,1.4298,1.4112,1.3835,1.3539,1.3443,1.3346,1.3249,1.3144,1.3342,1.3485,1.3601,1.369,1.3782,1.3922,1.4132,1.4175,1.4299,1.4401,1.4401,1.4826,1.5559,1.6518,1.7358,1.8094,1.8952,1.9279,1.9279,1.9279,1.9279,1.9279,1.9279,1.9279,1.9279,1.9279,1.9279,1.9279,1.9279,1.9576,1.9879,1.9583,1.9783,2.0189,2.0712,2.0925,2.1224,2.2241,2.2544,2.2644,2.2644,2.2644,2.2644,2.2644,2.2644,2.2644,2.2644,2.2644,2.2644,2.2644,2.2644,2.2441,2.2133,2.1704,2.1302,2.1011,2.0574,2.0292,2.0292,2.0292,2.0292,2.0292,2.0292,2.0292,2.0292,2.0292,2.0292,2.0292,2.0292,2.0292,2.0292,2.0292,2.0292,2.0292,2.0292,2.0292,2.0292,2.0292,2.0292,0.8107,0.9461,1.1149,1.2372,1.2705,1.2705,1.2705,1.2705,1.2705,1.2705,1.2928,1.3127,1.3127,1.3369,1.3568,1.3568,1.3791,1.396,1.396,1.4153,1.4298,1.4298,1.4298,1.4298,1.4298,1.4118,1.3829,1.3539,1.3346,1.305,1.2861,1.305,1.3066,1.2905,1.3303,1.3435,1.32,1.361,1.3836,1.3873,1.4089,1.4617,1.5351,1.5351,1.5351,1.5559,1.7147,1.7877,1.8094,1.8952,1.9279,1.9279,1.9279,1.9279,1.9279,1.9279,1.9279,1.9279,1.9279,1.9279,1.9279,1.9279,1.9383,1.948,1.9879,2.0086,2.0189,2.0712,2.1224,2.1623,2.1827,2.2232,2.2644,2.2644,2.2644,2.2644,2.2644,2.2644,2.2644,2.2644,2.2644,2.2644,2.2644,2.2644,2.2526,2.2484,2.1867,2.1388,2.1345,2.0728,2.0292,2.0292,2.0292,2.0292,2.0292,2.0292,2.0292,2.0292,2.0292,2.0292,2.0292,2.0292,2.0292,2.0292,2.0292,2.0292,2.0292,2.0292,2.0292,2.0292,2.0292,2.0382,0.8852,1.03,1.1623,1.2468,1.2705,1.2705,1.2705,1.2705,1.2705,1.2705,1.2801,1.2886,1.2886,1.3115,1.3296,1.3296,1.3513,1.3688,1.3688,1.3912,1.4081,1.4081,1.4208,1.4298,1.4298,1.4202,1.4022,1.3738,1.3443,1.3244,1.2953,1.2953,1.2861,1.2764,1.2959,1.3073,1.3104,1.3313,1.3556,1.382,1.4073,1.4611,1.5559,1.5986,1.6405,1.6929,1.7674,1.8304,1.8736,1.9168,1.9279,1.9279,1.9279,1.9279,1.9279,1.9279,1.9279,1.9279,1.9279,1.948,1.9783,1.9783,2.0189,2.0601,2.0601,2.0806,2.1011,2.1318,2.1522,2.1827,2.2131,2.2443,2.2644,2.2644,2.2644,2.2644,2.2644,2.2644,2.2644,2.2644,2.2644,2.2644,2.2644,2.2644,2.2644,2.2644,2.1901,2.1413,2.1413,2.0754,2.0292,2.0292,2.0292,2.0292,2.0292,2.0292,2.0292,2.0292,2.0292,2.0292,2.0292,2.0292,2.0292,2.0292,2.0292,2.0292,2.0292,2.0292,2.0292,2.0292,2.0292,2.0473,0.9547,1.0502,1.1282,1.2187,1.2439,1.2451,1.2687,1.2705,1.2705,1.2705,1.2705,1.2705,1.2705,1.2874,1.3019,1.3019,1.3242,1.3417,1.3417,1.364,1.3809,1.3809,1.4039,1.4201,1.4201,1.4166,1.4112,1.3931,1.3636,1.3346,1.3147,1.2958,1.2861,1.2764,1.2764,1.2845,1.3017,1.3077,1.3313,1.3739,1.3981,1.4624,1.5777,1.638,1.7259,1.8311,1.8311,1.8736,1.9279,1.9279,1.9279,1.9279,1.9279,1.9279,1.9279,1.9279,1.9279,1.9279,1.9279,1.9576,1.9879,2.0078,2.0798,2.1514,2.1019,2.142,2.1928,2.1725,2.1827,2.203,2.2443,2.2644,2.2644,2.2644,2.2644,2.2644,2.2644,2.2644,2.2644,2.2644,2.2644,2.2644,2.2644,2.2644,2.2644,2.2644,2.1901,2.1413,2.1413,2.0754,2.0292,2.0292,2.0292,2.0292,2.0292,2.0292,2.0292,2.0292,2.0292,2.0292,2.0292,2.0292,2.0292,2.0292,2.0292,2.0292,2.0292,2.0292,2.0292,2.0292,2.0382,2.0564,0.9365,0.9513,0.9617,1.1299,1.1755,1.1902,1.2565,1.2705,1.2705,1.2705,1.2705,1.2705,1.2705,1.2717,1.2729,1.2729,1.2964,1.3145,1.3145,1.3369,1.3538,1.3538,1.3767,1.3924,1.3924,1.388,1.3931,1.3931,1.3636,1.3346,1.3147,1.305,1.2953,1.2764,1.2764,1.277,1.278,1.2996,1.3238,1.3497,1.3728,1.4664,1.6329,1.6603,1.7582,1.9272,1.9272,1.9272,1.9279,1.9279,1.9279,1.9279,1.9279,1.9279,1.9279,1.9279,1.9279,1.9279,1.9279,1.9272,1.948,1.9983,2.0688,2.1293,2.1019,2.1827,2.2728,2.192,2.2139,2.2544,2.2544,2.2644,2.2644,2.2644,2.2644,2.2644,2.2644,2.2644,2.2644,2.2644,2.2644,2.2644,2.2644,2.2644,2.2644,2.2644,2.1901,2.1413,2.1413,2.0754,2.0292,2.0292,2.0292,2.0292,2.0292,2.0292,2.0292,2.0292,2.0292,2.0292,2.0292,2.0292,2.0292,2.0292,2.0292,2.0292,2.0292,2.0292,2.0292,2.0292,2.0564,2.0826,0.9355,0.9493,0.9483,1.0426,1.12,1.1672,1.1668,1.224,1.2705,1.2705,1.2705,1.2705,1.2705,1.2705,1.2705,1.2705,1.2789,1.2856,1.2856,1.3091,1.3266,1.3266,1.3495,1.3719,1.3888,1.3902,1.3939,1.3919,1.3636,1.3346,1.3147,1.2953,1.2861,1.2764,1.2764,1.2764,1.2764,1.299,1.3152,1.3238,1.3987,1.4915,1.6132,1.6655,1.7633,1.8964,1.8964,1.9081,1.9279,1.9279,1.9279,1.9376,1.968,1.9576,1.9376,1.968,1.9576,1.9376,2.0086,2.0585,2.0987,2.1912,2.2455,2.2652,2.2571,2.2486,2.2285,2.2091,2.1905,2.1816,2.1816,2.1816,2.1876,2.2133,2.2763,2.3138,2.2745,2.2644,2.2644,2.2644,2.2644,2.2644,2.2644,2.2644,2.2644,2.2644,2.1901,2.1413,2.1413,2.0754,2.0292,2.0292,2.0292,2.0292,2.0292,2.0292,2.0292,2.0292,2.0292,2.0292,2.0292,2.0292,2.0292,2.0292,2.0292,2.0292,2.0292,2.0292,2.0292,2.0292,2.0564,2.0826,0.9034,0.9228,0.9277,0.9812,1.0442,1.0963,1.1205,1.1747,1.2357,1.2619,1.2705,1.2705,1.2705,1.2705,1.2705,1.2705,1.2705,1.2705,1.2705,1.2868,1.2982,1.2982,1.3218,1.3453,1.3537,1.3632,1.3701,1.3683,1.3509,1.3352,1.3141,1.2953,1.2861,1.2764,1.2764,1.2764,1.2764,1.2915,1.3084,1.338,1.4125,1.5044,1.6143,1.6753,1.7617,1.8628,1.8628,1.8877,1.9279,1.9279,1.9376,1.9583,1.9783,1.968,1.9583,1.9783,1.9879,1.9968,2.0452,2.1208,2.1979,2.2661,2.3238,2.3518,2.2742,2.2449,2.2236,2.1579,2.1309,2.1222,2.1692,2.1787,2.1848,2.2118,2.2566,2.2742,2.2257,2.2364,2.2644,2.2644,2.2644,2.2644,2.2644,2.2644,2.2644,2.2644,2.1901,2.1413,2.1413,2.0754,2.0292,2.0292,2.0292,2.0292,2.0292,2.0292,2.0292,2.0292,2.0292,2.0292,2.0292,2.0292,2.0292,2.0292,2.0292,2.0292,2.0292,2.0292,2.0292,2.0292,2.0645,2.0916,0.0,0.0,0.0,0.9506,0.9482,0.9697,1.125,1.1404,1.1488,1.2443,1.2619,1.2705,1.2705,1.2705,1.2705,1.2705,1.2705,1.2705,1.2705,1.2705,1.2705,1.2705,1.2946,1.3027,1.2862,1.2997,1.3152,1.3216,1.3145,1.3165,1.3125,1.305,1.2953,1.2764,1.2764,1.2764,1.2764,1.2861,1.3147,1.3908,1.4252,1.5158,1.6739,1.6943,1.7484,1.8284,1.8284,1.865,1.925,1.925,1.9546,1.9952,1.9554,1.965,1.9952,1.9554,1.9952,2.0805,2.0364,2.1123,2.2231,2.2152,2.2878,2.3522,2.1353,2.1717,2.2465,2.049,2.0329,2.1004,2.2218,2.2501,2.251,2.251,2.196,2.1413,2.1413,2.1996,2.2619,2.2627,2.2544,2.2644,2.2644,2.2636,2.2526,2.2526,2.1884,2.1396,2.1396,2.0746,2.0292,2.0292,2.0292,2.0292,2.0292,2.0292,2.0292,2.0292,2.0292,2.0292,2.0292,2.0292,2.0292,2.0292,2.0292,2.0292,2.0292,2.0292,2.0292,2.0292,2.0817,2.1266,0.8327,0.0,0.0,0.0,0.0,0.0,0.9433,0.9814,1.0439,1.1461,1.1671,1.1929,1.2534,1.2705,1.2705,1.2705,1.2705,1.2705,1.2705,1.2705,1.2705,1.2705,1.2605,1.2644,1.2756,1.2655,1.262,1.2584,1.278,1.2819,1.2601,1.2769,1.2861,1.2764,1.2764,1.2764,1.2764,1.3335,1.3715,1.3908,1.5127,1.5932,1.632,1.6982,1.744,1.7947,1.7947,1.8378,1.907,1.907,1.897,1.8862,1.946,1.9361,1.8962,1.9842,2.013,2.0311,2.1655,2.2482,2.3033,2.3784,2.4006,2.3945,2.3573,2.2728,2.1953,2.1572,2.1316,2.1407,2.2215,2.27,2.2833,2.2197,2.2151,2.2081,2.1509,2.1576,2.1807,2.209,2.2364,2.2644,2.2644,2.2329,2.215,2.215,2.1508,2.1028,2.1028,2.0591,2.0011,1.9255,1.9911,2.0011,1.9263,1.9911,2.0292,2.0292,2.0292,2.0292,2.0292,1.9629,1.9546,2.0292,1.9637,1.9538,2.0292,2.0292,2.0292,2.0292,2.0817,2.1186,0.8021,0.8093,0.8093,0.7868,0.0,0.0,0.9108,0.9478,1.011,1.1616,1.1843,1.2015,1.2619,1.2705,1.2705,1.2705,1.2705,1.2705,1.2705,1.2705,1.2705,1.2705,1.2534,1.2428,1.2423,1.226,1.2092,1.2068,1.2221,1.239,1.2404,1.2544,1.2662,1.2759,1.2764,1.2953,1.3238,1.3715,1.419,1.4854,1.5812,1.6379,1.6662,1.7138,1.7435,1.7611,1.7808,1.8103,1.8371,1.8946,1.9117,1.8981,1.938,1.9372,1.9357,2.0031,2.0699,2.1345,2.2227,2.3112,2.3919,2.4126,2.4177,2.4047,2.3772,2.2612,2.1624,2.1882,2.2059,2.2334,2.2765,2.285,2.2674,2.2233,2.1879,2.1503,2.1036,2.1071,2.1302,2.1679,2.1927,2.2073,2.2073,2.1893,2.1756,2.1756,2.1251,2.0883,2.0883,2.054,1.9911,1.8888,1.9355,1.9255,1.8234,1.8696,1.9072,1.9072,1.9072,1.9072,1.9072,1.8511,1.8419,1.9072,1.8888,1.9255,2.0292,2.0292,2.0374,2.0645,2.0907,2.1186,0.7484,0.7633,0.7706,0.0,0.0,0.0,0.9318,0.9528,0.9817,1.1742,1.2163,1.218,1.2266,1.2351,1.2351,1.2351,1.2437,1.2528,1.2705,1.2705,1.2705,1.2705,1.2534,1.2283,1.2043,1.1785,1.1701,1.1645,1.1682,1.1898,1.235,1.2398,1.2511,1.2716,1.2748,1.3141,1.3902,1.3998,1.4758,1.619,1.6285,1.6662,1.7326,1.7326,1.7326,1.7326,1.78,1.78,1.7606,1.8996,1.956,1.9547,1.9264,1.9733,2.0391,2.0111,2.1337,2.2992,2.2538,2.3332,2.454,2.3797,2.3764,2.3937,2.2843,2.1961,2.1516,2.1784,2.2687,2.3503,2.3503,2.295,2.2394,2.2315,2.1257,2.0292,2.0292,2.0566,2.0908,2.1225,2.1353,2.1413,2.1413,2.1379,2.1353,2.1353,2.1045,2.0814,2.0814,2.0414,1.9729,1.8696,1.8603,1.8226,1.7196,1.7203,1.7296,1.7296,1.7296,1.7296,1.7296,1.7196,1.7203,1.7296,1.8133,1.9072,2.0011,2.0201,2.0555,2.0997,2.0997,2.1275,0.0,0.0,0.0,0.0,0.0,0.0,0.7038,0.6955,0.7108,0.8446,0.8685,0.896,0.9735,0.9908,0.9908,0.9908,1.0692,1.1655,1.2528,1.2705,1.2705,1.2705,1.2369,1.2037,1.2043,1.1613,1.137,1.1413,1.1591,1.1822,1.2102,1.2307,1.2436,1.2484,1.2662,1.3141,1.3902,1.4573,1.5337,1.619,1.6756,1.7138,1.7326,1.7326,1.7326,1.7333,1.7426,1.7893,1.855,1.8827,1.8528,1.7988,1.9652,1.992,1.9527,2.0993,2.1825,2.2354,2.3017,2.3447,2.3787,2.3784,2.3677,2.358,2.3135,2.2784,2.2618,2.3047,2.3319,2.3503,2.3503,2.295,2.2217,2.1704,2.0907,2.0292,2.0292,2.0352,2.0429,2.0497,2.0994,2.1413,2.1413,2.1174,2.0985,2.0985,2.0651,2.0403,2.0403,1.9679,1.8696,1.7669,1.7576,1.7203,1.617,1.6828,1.7296,1.7296,1.7296,1.7296,1.7296,1.6546,1.6452,1.7296,1.7475,1.777,1.8241,1.982,2.0654,2.0744,2.1114,2.1392,0.0,0.0,0.0,0.6086,0.0,0.0,0.0,0.6746,0.6978,0.8143,0.8402,0.8607,0.9122,0.9209,0.9209,0.9209,1.0168,1.0956,1.0783,1.1918,1.2705,1.2705,1.2369,1.2123,1.2037,1.1699,1.1435,1.1354,1.1456,1.1628,1.186,1.1995,1.2113,1.2226,1.2463,1.3155,1.4282,1.4791,1.5622,1.6763,1.7138,1.7326,1.7326,1.7326,1.7326,1.7326,1.78,1.8172,1.855,1.9279,1.918,1.8703,2.0085,2.0701,2.0854,2.1676,2.2394,2.294,2.3319,2.359,2.3667,2.3754,2.3667,2.3416,2.3144,2.3144,2.3154,2.3232,2.3677,2.3937,2.359,2.295,2.2217,2.1526,2.0826,2.0292,2.0292,2.0292,2.0292,2.0292,2.0591,2.0848,2.0848,2.0703,2.0583,2.0583,2.042,2.0102,1.9629,1.9538,1.8788,1.6734,1.7483,1.7203,1.5235,1.6452,1.7109,1.6546,1.6546,1.6546,1.6546,1.5609,1.5514,1.6546,1.6546,1.6828,1.749,1.8688,1.9613,2.0365,2.0916,2.1105,0.0,0.0,0.0,0.0,0.0,0.5509,0.0,0.0,0.0,0.8143,0.8398,0.8519,0.8519,0.8519,0.8507,0.8471,0.9452,0.9812,0.8645,1.0494,1.1912,1.1912,1.218,1.2192,1.1688,1.1429,1.1257,1.1262,1.1089,1.1163,1.1623,1.1677,1.1785,1.1973,1.2401,1.3199,1.4731,1.5049,1.5947,1.7326,1.7326,1.7326,1.7326,1.7426,1.7419,1.7333,1.8357,1.855,1.8365,1.9737,2.0365,2.043,2.0799,2.1606,2.2482,2.2394,2.3028,2.3841,2.3677,2.3677,2.3754,2.3754,2.358,2.3232,2.3232,2.3232,2.3329,2.3232,2.3754,2.41,2.3406,2.2677,2.205,2.1356,2.0736,2.0292,2.0201,2.0201,2.0292,2.0201,2.0201,2.0292,2.0292,2.0292,2.0292,2.0292,2.0292,2.0011,1.9163,1.9446,1.8788,1.6358,1.7203,1.6922,1.4484,1.5981,1.6546,1.5609,1.5704,1.5704,1.5514,1.4765,1.4675,1.5514,1.552,1.5988,1.6828,1.7196,1.8211,1.9803,2.0257,2.0529,0.0,0.0,0.0,0.0,0.4621,0.0,0.0,0.0,0.5653,0.5863,0.0,0.6083,0.6083,0.0,0.0,0.593,0.6867,0.7421,0.7197,0.8233,0.8939,0.8939,1.1037,1.1837,1.0274,0.9932,1.0197,1.1262,1.0376,1.0212,1.13,1.1585,1.1709,1.1736,1.2604,1.3573,1.4731,1.5312,1.6202,1.7326,1.7326,1.7326,1.7326,1.78,1.7707,1.7333,1.8357,1.8735,1.8827,2.0093,2.1159,2.2129,2.2129,2.2385,2.2736,2.3657,2.4024,2.411,2.412,2.3851,2.359,2.3754,2.3222,2.2618,2.3242,2.3154,2.2969,2.358,2.3493,2.3135,2.2413,2.1882,2.1356,2.0555,2.0382,2.0201,1.9737,2.0019,2.0201,1.9737,2.0011,2.0292,2.0292,2.0292,2.0292,2.0292,2.0292,2.0292,2.0102,1.8696,1.7483,1.7196,1.5704,1.4669,1.4298,1.533,1.5514,1.4484,1.533,1.5425,1.4484,1.4394,1.4394,1.4484,1.4484,1.4675,1.4968,1.571,1.7196,1.953,1.8956,1.9695,0.0,0.0,0.0,0.0,0.0,0.0,0.5199,0.0,0.5488,0.0,0.0,0.0,0.0,0.0,0.0,0.0,0.648,0.6838,0.5906,0.733,0.8591,0.8856,0.9643,1.0082,0.9923,0.9753,1.0111,1.1176,1.0202,1.0111,1.1262,1.1445,1.1494,1.1494,1.2426,1.332,1.4251,1.503,1.5994,1.7055,1.7055,1.7335,1.78,1.7707,1.78,1.8172,1.8643,1.9188,1.9911,2.0727,2.1882,2.3038,2.3038,2.3299,2.3734,2.3927,2.3937,2.3937,2.3937,2.3667,2.3319,2.3406,2.3057,2.2706,2.3144,2.3144,2.3057,2.3493,2.3222,2.2589,2.2227,2.1526,2.0727,2.0102,1.992,1.9737,1.9279,1.9288,1.9471,1.9546,1.9737,2.0011,2.0292,2.0292,2.0292,2.0292,2.0292,1.9911,1.8696,1.8326,1.7483,1.5798,1.5893,1.5609,1.4388,1.5798,1.6452,1.6075,1.6452,1.5988,1.4388,1.486,1.514,1.514,1.5704,1.6082,1.6177,1.6546,1.7569,1.9338,1.9147,1.9063,0.5748,0.0,0.0,0.0,0.0,0.0,0.0,0.0,0.0,0.0,0.0,0.0,0.0,0.0,0.5722,0.5689,0.0,0.6142,0.5058,0.6301,0.7457,0.7811,0.7811,0.8249,0.9305,0.896,0.9231,1.0727,0.9758,0.9753,1.1262,1.1262,1.1262,1.1262,1.2371,1.3199,1.3905,1.4892,1.5864,1.6718,1.6904,1.7249,1.7949,1.7755,1.8079,1.8827,1.9104,1.9737,2.0637,2.1347,2.2422,2.3503,2.3677,2.411,2.4454,2.411,2.4013,2.4013,2.4013,2.3667,2.3309,2.3144,2.2969,2.2882,2.3057,2.3135,2.3144,2.3319,2.2784,2.2148,2.2069,2.1168,2.0184,1.9729,1.9463,1.9279,1.8735,1.8735,1.892,1.9279,1.9463,1.9737,2.0201,2.0292,2.0292,2.0292,2.0102,1.9355,1.7855,1.7855,1.7102,1.4956,1.5798,1.5893,1.4388,1.5886,1.6915,1.6915,1.664,1.5798,1.4394,1.4956,1.5514,1.5798,1.6546,1.7016,1.7296,1.7296,1.7855,1.8788,1.8972,1.8796,0.0,0.0,0.0,0.4634,0.0,0.0,0.0,0.0,0.5231,0.0,0.0,0.0,0.0,0.5733,0.5695,0.5489,0.5298,0.0,0.0,0.4597,0.4476,0.4476,0.545,0.6766,0.8162,0.7031,0.721,0.9492,0.8519,0.8873,1.1176,1.1262,1.1262,1.1262,1.2637,1.3538,1.3899,1.5224,1.6082,1.6389,1.6704,1.713,1.7606,1.8394,1.8735,1.8827,1.9837,2.0374,2.0718,2.1863,2.2853,2.359,2.4196,2.4454,2.454,2.4454,2.4454,2.4454,2.4454,2.4196,2.3667,2.3232,2.3135,2.3057,2.3135,2.3135,2.3135,2.3135,2.2441,2.1731,2.1731,2.0645,1.9646,1.9646,1.9188,1.8735,1.8179,1.8458,1.8827,1.8827,1.9279,1.9737,2.0201,2.0292,2.0292,2.0292,1.9446,1.8788,1.8788,1.7109,1.5893,1.5798,1.4956,1.4388,1.4298,1.5235,1.5893,1.5893,1.4956,1.4388,1.4298,1.4298,1.4765,1.5798,1.5798,1.6358,1.7296,1.7296,1.749,1.7785,1.7785,1.8988,0.0,0.0,0.841,0.6204,0.0,0.0,0.0,0.0,0.0,0.0,0.0,0.0,0.0,0.5644,0.563,0.5499,0.5166,0.491,0.0,0.4459,0.43,0.43,0.5628,0.6599,0.677,0.7027,0.7906,0.9492,0.9226,0.9666,1.1262,1.1262,1.1521,1.2026,1.2881,1.3691,1.4208,1.5163,1.5922,1.65,1.6613,1.7208,1.8129,1.8401,1.8839,1.9404,1.9728,2.0538,2.1774,2.2217,2.3115,2.4196,2.4454,2.454,2.4454,2.4368,2.4282,2.4292,2.3937,2.3764,2.358,2.3232,2.3232,2.3319,2.3135,2.3232,2.3232,2.2413,2.1427,2.0709,2.0736,1.9737,1.8727,1.9012,1.8735,1.8172,1.7707,1.7707,1.7986,1.8643,1.892,1.9371,2.0201,1.9729,1.9355,1.9355,1.898,1.8319,1.7016,1.6264,1.5514,1.486,1.4484,1.4298,1.4298,1.5235,1.5514,1.486,1.514,1.4949,1.4298,1.4956,1.5419,1.5798,1.6452,1.7289,1.8319,1.8319,1.8696,1.9455,1.9455,1.9371,0.9378,0.9822,0.0,0.7724,0.7811,0.0,0.5802,0.0,0.0,0.0,0.0,0.0,0.0,0.0,0.5552,0.546,0.5191,0.4921,0.0,0.4389,0.43,0.43,0.5275,0.5983,0.6068,0.6328,0.7115,0.8698,0.8877,0.9314,1.0458,1.1251,1.194,1.2363,1.33,1.3977,1.4398,1.5082,1.5617,1.6162,1.6452,1.7126,1.8018,1.8209,1.8806,1.9664,1.9625,2.0676,2.2394,2.2394,2.3202,2.454,2.454,2.454,2.4454,2.4368,2.4292,2.4206,2.3764,2.359,2.358,2.3232,2.3232,2.3319,2.3135,2.3232,2.3144,2.205,2.115,2.043,2.0093,1.9188,1.8365,1.855,1.8458,1.8179,1.7419,1.7419,1.78,1.8643,1.8827,1.9012,1.9637,1.9255,1.8788,1.8788,1.8226,1.7289,1.5981,1.5514,1.5045,1.4388,1.4298,1.4298,1.4298,1.486,1.4949,1.4292,1.4956,1.4956,1.4298,1.4956,1.5425,1.5798,1.6452,1.7475,1.8788,1.8788,1.9355,2.0292,2.0292,1.9828]}]]